[[{"header":{"parameterUnit":"m.s-1","parameterCategory":1,"la1":30.6,"la2":28.766,"lo1":-90.7593,"lo2":-88.6598,"dy":0.0162,"dx":0.0183,"nx":116,"ny":114,"refTime":"2024-05-19T06:00:00:Z","depth":0,"parameterNumber":2,"parameterNumberName":"U-component_of_WINDS"},"data":[0.0,0.0,0.0,0.0,0.0,0.0,0.0,0.0,0.0,0.0,0.0,0.0,0.0,0.0,0.0,0.0,0.0,0.0,0.0,0.0,0.0,0.0,0.0,0.0,0.0,0.0,0.0,0.0,0.0,0.0,0.0,0.0,0.0,0.0,0.0,0.0,0.0,0.0,0.0,0.0,0.0,0.0,0.0,0.0,0.0,0.0,0.0,0.0,0.0,0.0,0.0,0.0,0.0,0.0,0.0,0.0,0.0,0.0,0.0,0.0,0.0,0.0,0.0,0.0,0.0,0.0,0.0,0.0,0.0,0.0,0.0,0.0,0.0,0.0,0.0,0.0,0.0,0.0,0.0,0.0,0.0,0.0,0.0,0.0,0.0,0.0,0.0,0.0,0.0,0.0,0.0,0.0,0.0,0.0,0.0,0.0,0.0,0.0,0.0,0.0,0.0,0.0,0.0,0.0,0.0,0.0,0.0,0.0,0.0,0.0,0.0,0.0,0.0,0.0,0.0,0.0,0.0,0.0,0.0,0.0,0.0,0.0,0.0,0.0,0.0,0.0,0.0,0.0,0.0,0.0,0.0,0.0,0.0,0.0,0.0,0.0,0.0,0.0,0.0,0.0,0.0,0.0,0.0,0.0,0.0,0.0,0.0,0.0,0.0,0.0,0.0,0.0,0.0,0.0,0.0,0.0,0.0,0.0,0.0,0.0,0.0,0.0,0.0,0.0,0.0,0.0,0.0,0.0,0.0,0.0,0.0,0.0,0.0,0.0,0.0,0.0,0.0,0.0,0.0,0.0,0.0,0.0,0.0,0.0,0.0,0.0,0.0,0.0,0.0,0.0,0.0,0.0,0.0,0.0,0.0,0.0,0.0,0.0,0.0,0.0,0.0,0.0,0.0,0.0,0.0,0.0,0.0,0.0,0.0,0.0,0.0,0.0,0.0,0.0,0.0,0.0,0.0,0.0,0.0,0.0,0.0,0.0,0.0,0.0,0.0,0.0,0.0,0.0,0.0,0.0,0.0,0.0,0.0,0.0,0.0,0.0,0.0,0.0,0.0,0.0,0.0,0.0,0.0,0.0,0.0,0.0,0.0,0.0,0.0,0.0,0.0,0.0,0.0,0.0,0.0,0.0,0.0,0.0,0.0,0.0,0.0,0.0,0.0,0.0,0.0,0.0,0.0,0.0,0.0,0.0,0.0,0.0,0.0,0.0,0.0,0.0,0.0,0.0,0.0,0.0,0.0,0.0,0.0,0.0,0.0,0.0,0.0,0.0,0.0,0.0,0.0,0.0,0.0,0.0,0.0,0.0,0.0,0.0,0.0,0.0,0.0,0.0,0.0,0.0,0.0,0.0,0.0,0.0,0.0,0.0,0.0,0.0,0.0,0.0,0.0,0.0,0.0,0.0,0.0,0.0,0.0,0.0,0.0,0.0,0.0,0.0,0.0,0.0,0.0,0.0,0.0,0.0,0.0,0.0,0.0,0.0,0.0,0.0,0.0,0.0,0.0,0.0,0.0,0.0,0.0,0.0,0.0,0.0,0.0,0.0,0.0,0.0,0.0,0.0,0.0,0.0,0.0,0.0,0.0,0.0,0.0,0.0,0.0,0.0,0.0,0.0,0.0,0.0,0.0,0.0,0.0,0.0,0.0,0.0,0.0,0.0,0.0,0.0,0.0,0.0,0.0,0.0,0.0,0.0,0.0,0.0,0.0,0.0,0.0,0.0,0.0,0.0,0.0,0.0,0.0,0.0,0.0,0.0,0.0,0.0,0.0,0.0,0.0,0.0,0.0,0.0,0.0,0.0,0.0,0.0,0.0,0.0,0.0,0.0,0.0,0.0,0.0,0.0,0.0,0.0,0.0,0.0,0.0,0.0,0.0,0.0,0.0,0.0,0.0,0.0,0.0,0.0,0.0,0.0,0.0,0.0,0.0,0.0,0.0,0.0,0.0,0.0,0.0,0.0,0.0,0.0,0.0,0.0,0.0,0.0,0.0,0.0,0.0,0.0,0.0,0.0,0.0,0.0,0.0,0.0,0.0,0.0,0.0,0.0,0.0,0.0,0.0,0.0,0.0,0.0,0.0,0.0,0.0,0.0,0.0,0.0,0.0,0.0,0.0,0.0,0.0,0.0,0.0,0.0,0.0,0.0,0.0,0.0,0.0,0.0,0.0,0.0,0.0,0.0,0.0,0.0,0.0,0.0,0.0,0.0,0.0,0.0,0.0,0.0,0.0,0.0,0.0,0.0,0.0,0.0,0.0,0.0,0.0,0.0,0.0,0.0,0.0,0.0,0.0,0.0,0.0,0.0,0.0,0.0,0.0,0.0,0.0,0.0,0.0,0.0,0.0,0.0,0.0,0.0,0.0,0.0,0.0,0.0,0.0,0.0,0.0,0.0,0.0,0.0,0.0,0.0,0.0,0.0,0.0,0.0,0.0,0.0,0.0,0.0,0.0,0.0,0.0,0.0,0.0,0.0,0.0,0.0,0.0,0.0,0.0,0.0,0.0,0.0,0.0,0.0,0.0,0.0,0.0,0.0,0.0,0.0,0.0,0.0,0.0,0.0,0.0,0.0,0.0,0.0,0.0,0.0,0.0,0.0,0.0,0.0,0.0,0.0,0.0,0.0,0.0,0.0,0.0,0.0,0.0,0.0,0.0,0.0,0.0,0.0,0.0,0.0,0.0,0.0,0.0,0.0,0.0,0.0,0.0,0.0,0.0,0.0,0.0,0.0,0.0,0.0,0.0,0.0,0.0,0.0,0.0,0.0,0.0,0.0,0.0,0.0,0.0,0.0,0.0,0.0,0.0,0.0,0.0,0.0,0.0,0.0,0.0,0.0,0.0,0.0,0.0,0.0,0.0,0.0,0.0,0.0,0.0,0.0,0.0,0.0,0.0,0.0,0.0,0.0,0.0,0.0,0.0,0.0,0.0,0.0,0.0,0.0,0.0,0.0,0.0,0.0,0.0,0.0,0.0,0.0,0.0,0.0,0.0,0.0,0.0,0.0,0.0,0.0,0.0,0.0,0.0,0.0,0.0,0.0,0.0,0.0,0.0,0.0,0.0,0.0,0.0,0.0,0.0,0.0,0.0,0.0,0.0,0.0,0.0,0.0,0.0,0.0,0.0,0.0,0.0,0.0,0.0,0.0,0.0,0.0,0.0,0.0,0.0,0.0,0.0,0.0,0.0,0.0,0.0,0.0,0.0,0.0,0.0,0.0,0.0,0.0,0.0,0.0,0.0,0.0,0.0,0.0,0.0,0.0,0.0,0.0,0.0,0.0,0.0,0.0,0.0,0.0,0.0,0.0,0.0,0.0,0.0,0.0,0.0,0.0,0.0,0.0,0.0,0.0,0.0,0.0,0.0,0.0,0.0,0.0,0.0,0.0,0.0,0.0,0.0,0.0,0.0,0.0,0.0,0.0,0.0,0.0,0.0,0.0,0.0,0.0,0.0,0.0,0.0,0.0,0.0,0.0,0.0,0.0,0.0,0.0,0.0,0.0,0.0,0.0,0.0,0.0,0.0,0.0,0.0,0.0,0.0,0.0,0.0,0.0,0.0,0.0,0.0,0.0,0.0,0.0,0.0,0.0,0.0,0.0,0.0,0.0,0.0,0.0,0.0,0.0,0.0,0.0,0.0,0.0,0.0,0.0,0.0,0.0,0.0,0.0,0.0,0.0,0.0,0.0,0.0,0.0,0.0,0.0,0.0,0.0,0.0,0.0,0.0,0.0,0.0,0.0,0.0,0.0,0.0,0.0,0.0,0.0,0.0,0.0,0.0,0.0,0.0,0.0,0.0,0.0,0.0,0.0,0.0,0.0,0.0,0.0,0.0,0.0,0.0,0.0,0.0,0.0,0.0,0.0,0.0,0.0,0.0,0.0,0.0,0.0,0.0,0.0,0.0,0.0,0.0,0.0,0.0,0.0,0.0,0.0,0.0,0.0,0.0,0.0,0.0,0.0,0.0,0.0,0.0,0.0,0.0,0.0,0.0,0.0,0.0,0.0,0.0,0.0,0.0,0.0,0.0,0.0,0.0,0.0,0.0,0.0,0.0,0.0,0.0,0.0,0.0,0.0,0.0,0.0,0.0,0.0,0.0,0.0,0.0,0.0,0.0,0.0,0.0,0.0,0.0,0.0,0.0,0.0,0.0,0.0,0.0,0.0,0.0,0.0,0.0,0.0,0.0,0.0,0.0,0.0,0.0,0.0,0.0,0.0,0.0,0.0,0.0,0.0,0.0,0.0,0.0,0.0,0.0,0.0,0.0,0.0,0.0,0.0,0.0,0.0,0.0,0.0,0.0,0.0,0.0,0.0,0.0,0.0,0.0,0.0,0.0,0.0,0.0,0.0,0.0,0.0,0.0,0.0,0.0,0.0,0.0,0.0,0.0,0.0,0.0,0.0,0.0,0.0,0.0,0.0,0.0,0.0,0.0,0.0,0.0,0.0,0.0,0.0,0.0,0.0,0.0,0.0,0.0,0.0,0.0,0.0,0.0,0.0,0.0,0.0,0.0,0.0,0.0,0.0,0.0,0.0,0.0,0.0,0.0,0.0,0.0,0.0,0.0,0.0,0.0,0.0,0.0,0.0,0.0,0.0,0.0,0.0,0.0,0.0,0.0,0.0,0.0,0.0,0.0,0.0,0.0,0.0,0.0,0.0,0.0,0.0,0.0,0.0,0.0,0.0,0.0,0.0,0.0,0.0,0.0,0.0,0.0,0.0,0.0,0.0,0.0,0.0,0.0,0.0,0.0,0.0,0.0,0.0,0.0,0.0,0.0,0.0,0.0,0.0,0.0,0.0,0.0,0.0,0.0,0.0,0.0,0.0,0.0,0.0,0.0,0.0,0.0,0.0,0.0,0.0,0.0,0.0,0.0,0.0,0.0,0.0,0.0,0.0,0.0,0.0,0.0,0.0,0.0,0.0,0.0,0.0,0.0,0.0,0.0,0.0,0.0,0.0,0.0,0.0,0.0,0.0,0.0,0.0,0.0,0.0,0.0,0.0,0.0,0.0,0.0,0.0,0.0,0.0,0.0,0.0,0.0,0.0,0.0,0.0,0.0,0.0,0.0,0.0,0.0,0.0,0.0,0.0,0.0,0.0,0.0,0.0,0.0,0.0,0.0,0.0,0.0,0.0,0.0,0.0,0.0,0.0,0.0,0.0,0.0,0.0,0.0,0.0,0.0,0.0,0.0,0.0,0.0,0.0,0.0,0.0,0.0,0.0,0.0,0.0,0.0,0.0,0.0,0.0,0.0,0.0,0.0,0.0,0.0,0.0,0.0,0.0,0.0,0.0,0.0,0.0,0.0,0.0,0.0,0.0,0.0,0.0,0.0,0.0,0.0,0.0,0.0,0.0,0.0,0.0,0.0,0.0,0.0,0.0,0.0,0.0,0.0,0.0,0.0,0.0,0.0,0.0,0.0,0.0,0.0,0.0,0.0,0.0,0.0,0.0,0.0,0.0,0.0,0.0,0.0,0.0,0.0,0.0,0.0,0.0,0.0,0.0,0.0,0.0,0.0,0.0,0.0,0.0,0.0,0.0,0.0,0.0,0.0,0.0,0.0,0.0,0.0,0.0,0.0,0.0,0.0,0.0,0.0,0.0,0.0,0.0,0.0,0.0,0.0,0.0,0.0,0.0,0.0,0.0,0.0,0.0,0.0,0.0,0.0,0.0,0.0,0.0,0.0,0.0,0.0,0.0,0.0,0.0,0.0,0.0,0.0,0.0,0.0,0.0,0.0,0.0,0.0,0.0,0.0,0.0,0.0,0.0,0.0,0.0,0.0,0.0,0.0,0.0,0.0,0.0,0.0,0.0,0.0,0.0,0.0,0.0,0.0,0.0,0.0,0.0,0.0,0.0,0.0,0.0,0.0,0.0,0.0,0.0,0.0,0.0,0.0,0.0,0.0,0.0,0.0,0.0,0.0,0.0,0.0,0.0,0.0,0.0,0.0,0.0,0.0,0.0,0.0,0.0,0.0,0.0,0.0,0.0,0.0,0.0,0.0,0.0,0.0,0.0,0.0,0.0,0.0,0.0,0.0,0.0,0.0,0.0,0.0,0.0,0.0,0.0,0.0,0.0,0.0,0.0,0.0,0.0,-3.1092,-3.082,0.0,0.0,0.0,0.0,0.0,0.0,0.0,0.0,0.0,0.0,0.0,0.0,0.0,0.0,0.0,0.0,0.0,0.0,0.0,0.0,0.0,0.0,0.0,-2.8857,-2.9443,-3.0389,-3.019,-3.0099,-3.0357,0.0,0.0,0.0,0.0,0.0,-2.7924,-2.7244,-2.7017,-2.7323,-2.6394,-2.5934,-2.5947,-2.6299,-2.6407,-2.6283,0.0,0.0,0.0,0.0,0.0,0.0,0.0,0.0,0.0,0.0,0.0,0.0,0.0,0.0,0.0,0.0,0.0,0.0,0.0,0.0,0.0,0.0,0.0,0.0,0.0,0.0,0.0,0.0,0.0,0.0,0.0,0.0,0.0,0.0,0.0,0.0,0.0,0.0,0.0,0.0,0.0,0.0,0.0,0.0,0.0,0.0,0.0,0.0,0.0,0.0,0.0,0.0,0.0,0.0,0.0,0.0,0.0,0.0,0.0,0.0,0.0,0.0,0.0,0.0,0.0,0.0,0.0,0.0,0.0,0.0,-3.0928,-3.0369,0.0,0.0,0.0,0.0,0.0,0.0,0.0,0.0,0.0,0.0,0.0,0.0,0.0,0.0,0.0,0.0,0.0,0.0,0.0,0.0,0.0,-2.699,-2.7781,-2.7769,-2.8212,-2.9445,-2.9075,-2.8949,-2.939,-2.8826,0.0,0.0,0.0,-2.7507,-2.6948,-2.6289,-2.6214,-2.6704,-2.5641,-2.5196,-2.5291,-2.5799,-2.6285,-2.6763,-2.6802,0.0,0.0,0.0,0.0,0.0,0.0,0.0,0.0,0.0,0.0,0.0,0.0,0.0,0.0,0.0,0.0,0.0,0.0,0.0,0.0,0.0,0.0,0.0,0.0,0.0,0.0,0.0,0.0,0.0,0.0,0.0,0.0,0.0,0.0,0.0,0.0,0.0,0.0,0.0,0.0,0.0,0.0,0.0,0.0,0.0,0.0,0.0,0.0,0.0,0.0,0.0,0.0,0.0,0.0,0.0,0.0,0.0,0.0,0.0,0.0,0.0,0.0,0.0,-3.3635,-3.3677,-3.3564,-3.3241,-3.269,-3.192,-3.0842,-3.0109,-2.9693,-3.0355,0.0,0.0,0.0,0.0,0.0,0.0,0.0,0.0,0.0,0.0,0.0,0.0,0.0,0.0,0.0,0.0,0.0,0.0,0.0,-2.5808,-2.6786,-2.6887,-2.7346,-2.8557,-2.8588,-2.8556,-2.862,-2.8556,0.0,0.0,-2.8383,-2.8343,-2.8261,-2.7145,-2.6606,-2.671,-2.6009,-2.5937,-2.6407,-2.6467,-2.6557,-2.6635,-2.6757,-2.7041,-2.7376,0.0,0.0,0.0,0.0,0.0,0.0,0.0,0.0,0.0,0.0,0.0,0.0,0.0,0.0,0.0,0.0,0.0,0.0,0.0,0.0,0.0,0.0,0.0,0.0,0.0,0.0,0.0,0.0,0.0,0.0,0.0,0.0,0.0,0.0,0.0,0.0,0.0,0.0,0.0,0.0,0.0,-2.9265,-2.9854,0.0,0.0,0.0,0.0,0.0,0.0,0.0,0.0,0.0,0.0,0.0,0.0,0.0,-3.0863,-3.0784,-3.2028,-3.2396,-3.1922,-3.2961,-3.3186,-3.2658,-3.163,-3.1082,-3.0968,-3.0342,0.0,-2.9862,-3.0794,0.0,0.0,0.0,0.0,0.0,0.0,0.0,0.0,0.0,0.0,0.0,0.0,0.0,0.0,0.0,0.0,0.0,0.0,0.0,0.0,0.0,-2.5913,-2.6457,-2.7421,-2.7977,-2.8164,-2.7941,-2.7885,-2.7689,-2.7397,-2.7384,-2.7384,-2.7384,-2.6544,-2.5927,-2.5628,-2.6025,-2.5993,-2.5597,-2.5959,-2.61,-2.6105,-2.6523,-2.6863,-2.7087,-2.6533,0.0,0.0,0.0,0.0,0.0,0.0,0.0,0.0,0.0,0.0,0.0,0.0,0.0,0.0,0.0,0.0,0.0,0.0,0.0,0.0,0.0,0.0,0.0,0.0,0.0,0.0,0.0,0.0,0.0,0.0,0.0,0.0,0.0,0.0,0.0,0.0,0.0,0.0,0.0,-3.008,-3.0105,-3.0895,-3.0862,-3.0687,0.0,0.0,0.0,0.0,0.0,0.0,0.0,0.0,0.0,-3.0381,-3.1201,-3.1669,-3.1669,-3.2879,-3.3375,-3.3128,-3.3664,-3.3768,-3.348,-3.3011,-3.2497,-3.2054,-3.2317,-3.1677,-3.0446,-3.0531,-3.0175,-2.9517,0.0,0.0,0.0,0.0,-2.8836,-2.8694,0.0,0.0,0.0,0.0,0.0,0.0,0.0,0.0,0.0,0.0,0.0,0.0,-2.4805,-2.5312,-2.5945,-2.6789,-2.7472,-2.7782,0.0,0.0,-2.6927,-2.6512,-2.6499,-2.6424,-2.6273,-2.5686,-2.5347,-2.5247,-2.5934,-2.5921,-2.5234,-2.5697,-2.591,-2.591,-2.6362,-2.6725,-2.6923,-2.6757,-2.6428,0.0,0.0,0.0,0.0,0.0,0.0,0.0,0.0,0.0,0.0,0.0,0.0,0.0,0.0,0.0,0.0,0.0,0.0,0.0,0.0,0.0,0.0,0.0,0.0,0.0,0.0,0.0,0.0,0.0,0.0,0.0,0.0,0.0,0.0,0.0,0.0,0.0,0.0,-3.0011,-3.0006,-3.1006,-3.1064,-3.0855,0.0,0.0,0.0,0.0,0.0,0.0,-3.0958,-3.1227,-3.1315,-3.109,-3.2138,-3.2676,-3.2676,-3.3449,-3.3837,-3.3824,-3.3713,-3.3636,-3.3636,-3.3495,-3.3064,-3.248,-3.2996,-3.2331,-3.0863,-3.0518,-3.012,-2.9699,-2.9207,-2.9028,-2.909,-2.8912,-2.8805,-2.8697,0.0,0.0,0.0,0.0,0.0,0.0,0.0,0.0,0.0,0.0,0.0,-2.3583,-2.4689,-2.5272,-2.6059,-2.7175,-2.7304,-2.7341,0.0,0.0,-2.6524,-2.6499,-2.6499,-2.6235,-2.5649,-2.5134,-2.536,-2.6411,-2.5883,-2.5896,-2.6411,-2.6445,-2.6445,-2.6445,-2.648,-2.6907,-2.7497,-2.6871,-2.6616,-2.6658,0.0,0.0,0.0,0.0,0.0,0.0,0.0,0.0,0.0,0.0,0.0,0.0,0.0,0.0,0.0,0.0,0.0,0.0,0.0,0.0,0.0,0.0,0.0,0.0,0.0,0.0,0.0,0.0,0.0,0.0,0.0,0.0,0.0,0.0,0.0,0.0,0.0,0.0,0.0,-2.8812,-2.9403,0.0,0.0,0.0,0.0,-3.1474,-3.198,-3.2204,-3.2014,-3.2982,-3.3187,-3.2433,-3.2965,-3.3254,-3.3254,-3.2808,-3.2578,-3.2578,-3.2079,-3.1837,-3.1813,-3.1305,-3.1033,-3.0965,-3.0501,-3.0562,-3.0905,-3.1211,-3.0647,-2.9577,-2.9013,-2.8917,-2.9019,-2.8301,-2.8059,-2.7962,0.0,0.0,0.0,0.0,0.0,-2.3806,-2.2777,-2.2892,-2.2907,-2.2355,-2.2757,-2.3396,0.0,-2.5071,-2.5912,-2.6725,-2.6726,-2.6478,-2.611,0.0,-2.4974,-2.5756,-2.5252,-2.4981,-2.5099,-2.5945,-2.6173,-2.5746,-2.6708,-2.713,-2.7027,-2.7356,-2.7519,-2.7519,-2.7519,-2.769,-2.7851,-2.6948,-2.6357,-2.608,-2.6481,-2.605,0.0,0.0,0.0,0.0,0.0,0.0,0.0,0.0,0.0,0.0,0.0,0.0,0.0,0.0,0.0,0.0,0.0,0.0,0.0,0.0,0.0,0.0,0.0,0.0,0.0,0.0,0.0,0.0,0.0,0.0,0.0,0.0,0.0,0.0,0.0,0.0,0.0,-3.1495,-3.1415,0.0,-3.1291,-3.1455,-3.1606,-3.164,-3.2167,-3.2591,-3.2877,-3.3223,-3.3305,-3.3008,-3.2863,-3.2791,-3.2791,-3.2599,-3.2322,-3.2006,-3.213,-3.201,-3.1705,-3.1512,-3.1428,-3.1416,-3.1223,-3.1247,-3.1404,-3.1546,-3.0924,-2.9858,-2.9321,-2.8969,-2.8682,-2.8425,-2.8309,-2.8271,0.0,0.0,0.0,0.0,-2.3478,-2.3222,-2.243,-2.2757,-2.2907,-2.2355,-2.2757,-2.3292,-2.382,-2.4686,-2.5459,-2.5942,-2.5769,-2.5469,-2.5064,0.0,-2.391,-2.4684,-2.4153,-2.4301,-2.5295,-2.5862,-2.6021,-2.5654,-2.6697,-2.7189,-2.7149,-2.7507,-2.7828,-2.8109,-2.8109,-2.8109,-2.807,-2.7322,-2.6628,-2.6011,-2.6419,-2.5961,-2.5085,0.0,0.0,0.0,0.0,0.0,0.0,0.0,0.0,0.0,0.0,0.0,0.0,0.0,0.0,0.0,0.0,0.0,0.0,0.0,0.0,0.0,0.0,0.0,0.0,0.0,0.0,0.0,0.0,0.0,0.0,0.0,0.0,0.0,0.0,-2.9988,-3.0835,-3.2326,-3.2359,-3.2241,-3.2241,-3.2414,-3.2411,-3.2223,-3.2719,-3.3104,-3.3284,-3.3452,-3.3464,-3.3296,-3.2947,-3.2767,-3.2767,-3.2767,-3.2575,-3.2259,-3.2406,-3.2298,-3.1982,-3.1789,-3.1705,-3.1705,-3.1705,-3.1705,-3.1705,-3.1705,-3.1187,-3.0302,-2.9773,-2.9244,-2.8751,-2.857,-2.851,-2.8471,0.0,0.0,0.0,-2.231,-2.2314,-2.2309,-2.2309,-2.2757,-2.2907,-2.2355,-2.2769,-2.3201,-2.3547,-2.4102,-2.4601,-2.4957,-2.4517,-2.4241,-2.424,-2.3709,-2.3386,-2.3338,-2.3396,-2.4299,-2.6166,-2.4773,-2.4788,-2.6251,-2.5743,-2.5965,-2.6788,-2.6812,-2.7248,-2.8074,-2.8086,-2.8123,-2.8123,-2.8098,-2.7519,-2.6593,-2.6541,-2.6187,-2.5793,0.0,0.0,0.0,0.0,0.0,0.0,0.0,0.0,0.0,0.0,0.0,0.0,0.0,0.0,0.0,0.0,0.0,0.0,0.0,0.0,0.0,0.0,0.0,0.0,0.0,0.0,0.0,0.0,0.0,0.0,0.0,0.0,0.0,-2.8582,-2.9484,-3.035,-3.0946,-3.1889,-3.2527,-3.2551,-3.2996,-3.3284,-3.3284,-3.3741,-3.3754,-3.3308,-3.3753,-3.3789,-3.3308,-3.3272,-3.3272,-3.3272,-3.3284,-3.3284,-3.326,-3.2767,-3.2515,-3.2478,-3.1913,-3.1661,-3.1661,-3.1617,-3.1617,-3.1617,-3.1661,-3.136,-3.0843,-3.0302,-2.9761,-2.9232,-2.8663,-2.8431,-2.8379,0.0,0.0,-2.1755,-2.2218,-2.2314,-2.2309,-2.2309,-2.2757,-2.2907,-2.2355,-2.2344,-2.2679,-2.3514,-2.3319,-2.363,-2.4886,-2.337,-2.2655,-2.3379,0.0,-2.1232,-2.2222,-2.4339,-2.5038,-2.4068,-2.472,-2.5007,-2.4851,-2.5678,-2.6186,-2.6461,-2.6832,-2.7137,-2.7415,-2.8108,-2.838,-2.8395,-2.8599,-2.8524,-2.816,-2.7382,-2.6764,-2.6252,0.0,0.0,0.0,0.0,0.0,0.0,0.0,0.0,0.0,0.0,0.0,0.0,0.0,0.0,0.0,0.0,0.0,0.0,0.0,0.0,0.0,0.0,0.0,0.0,0.0,0.0,0.0,0.0,0.0,0.0,0.0,-2.928,-3.023,-3.023,-3.085,-3.1709,-3.302,-3.3116,-3.3212,-3.3526,-3.3416,-3.3284,-3.3284,-3.3416,-3.344,-3.3296,-3.3416,-3.3428,-3.3296,-3.2911,-3.2719,-3.2719,-3.3104,-3.3092,-3.2719,-3.2959,-3.2875,-3.2478,-3.1205,-3.0588,-3.0588,-2.9841,-2.951,-2.9555,-3.0306,-3.0506,-3.0386,-3.0179,-2.9761,-2.915,-2.7993,-2.704,-2.6329,0.0,-2.124,-2.1798,-2.2231,-2.2314,-2.2385,-2.2594,-2.2895,-2.2995,-2.2669,-2.2329,-2.23,-2.2789,-2.2239,-2.2192,-2.3013,-2.2024,-2.1493,-2.1715,0.0,-2.0824,-2.2594,-2.3985,-2.4414,-2.3753,-2.4473,-2.4694,-2.436,-2.5172,-2.5743,-2.6109,-2.639,-2.673,-2.711,-2.7678,-2.8131,-2.8518,-2.8658,-2.8921,-2.9214,-2.8323,-2.7645,-2.7115,-2.6515,-2.6337,-2.6248,-2.5441,-2.5362,-2.5621,-2.5403,0.0,0.0,0.0,0.0,0.0,0.0,0.0,0.0,0.0,0.0,0.0,0.0,0.0,0.0,0.0,0.0,0.0,0.0,0.0,0.0,0.0,0.0,0.0,0.0,-2.9683,-3.0779,-3.1451,-3.2182,-3.3008,-3.3886,-3.3982,-3.3958,-3.3982,-3.373,-3.3513,-3.3308,-3.3284,-3.3188,-3.2971,-3.2959,-3.2851,-3.2668,-3.231,-3.1962,-3.1532,-3.2229,-3.2195,-3.1518,-3.1807,-3.1807,-3.1448,-3.0181,-2.9567,-2.9567,-2.8958,-2.868,-2.8773,-2.9326,-2.9567,-2.9557,0.0,0.0,0.0,0.0,-2.6121,-2.5495,0.0,-2.1859,-2.2332,-2.2402,-2.2352,-2.2468,-2.302,-2.3108,-2.3133,-2.3195,0.0,-2.2072,-2.1984,-2.1263,-2.0705,-2.0487,-2.0876,-2.0793,0.0,0.0,0.0,-2.3639,-2.308,-2.3267,-2.4394,-2.4136,-2.4146,-2.4497,-2.4497,-2.4903,-2.5663,-2.5663,-2.608,-2.6823,-2.6905,-2.7435,-2.8211,-2.8291,-2.8831,-2.9625,-2.9074,-2.8575,-2.8134,-2.7582,-2.7369,-2.7243,-2.6239,-2.5837,-2.5711,-2.5259,0.0,0.0,0.0,0.0,0.0,0.0,0.0,0.0,0.0,0.0,0.0,0.0,0.0,0.0,0.0,0.0,0.0,0.0,0.0,0.0,0.0,0.0,0.0,0.0,-2.9521,-3.0603,-3.2005,-3.3095,-3.3731,-3.3731,-3.4088,-3.4148,-3.3684,-3.3637,-3.3481,-3.3085,-3.2989,-3.2749,-3.2282,-3.2122,0.0,0.0,0.0,-3.0913,-3.0034,-3.0946,-3.0945,-3.0008,-3.0062,-3.0062,-2.9975,-2.9001,-2.8541,-2.8541,-2.8402,-2.8355,-2.8355,-2.8495,-2.8476,-2.8383,-2.8518,-2.8414,-2.8026,-2.6304,-2.5442,-2.5105,0.0,-2.2545,-2.3003,-2.3021,-2.2623,-2.2468,-2.302,-2.3108,-2.3271,-2.3766,-2.2806,-2.2313,-2.2937,-2.1687,-2.0833,-2.0943,-2.1062,-2.1197,0.0,0.0,-2.308,-2.278,-2.365,-2.4095,-2.4012,-2.4281,-2.4414,-2.4497,-2.4497,-2.4583,-2.4743,-2.4743,-2.4818,-2.5031,-2.5757,-2.6152,-2.6359,-2.7058,-2.7891,-2.874,-2.863,-2.8627,-2.8675,-2.816,-2.7946,-2.7921,-2.7695,-2.7331,-2.6942,-2.6841,-2.6612,-2.6311,-2.621,0.0,0.0,0.0,0.0,0.0,0.0,0.0,0.0,0.0,0.0,0.0,0.0,0.0,0.0,0.0,0.0,0.0,0.0,0.0,0.0,-2.8929,-2.9961,-3.0734,-3.107,-3.1645,-3.204,-3.204,-3.1823,-3.16,-3.1511,-3.1529,-3.1553,-3.146,-3.1043,-3.0753,-3.066,-2.9897,-2.9392,-2.928,-2.928,-2.9189,-2.9004,-2.994,-3.0141,-2.9624,-2.9958,0.0,-2.9554,-2.8153,-2.7463,-2.7416,-2.661,-2.6284,-2.6332,-2.7152,-2.7081,-2.6525,-2.7282,-2.6661,-2.5285,-2.4892,-2.4016,-2.2984,-2.388,-2.3784,-2.3582,-2.3604,-2.309,-2.2782,-2.3058,-2.3108,-2.3308,-2.3916,-2.3156,-2.265,-2.2903,-2.1676,-2.0751,-2.0461,-2.0638,0.0,0.0,-2.2801,-2.3184,-2.3184,-2.3846,-2.4209,-2.4209,-2.4383,-2.4497,-2.4497,-2.4497,-2.4497,-2.4497,-2.4497,-2.4497,-2.4497,-2.4946,-2.5379,-2.5819,-2.6276,-2.6894,-2.7678,-2.7758,-2.7806,-2.7915,-2.8325,-2.8511,-2.8486,-2.821,-2.7921,-2.7695,-2.7695,-2.7507,-2.7231,-2.6989,-2.6901,-2.6816,0.0,0.0,0.0,0.0,0.0,0.0,0.0,0.0,0.0,0.0,0.0,0.0,0.0,0.0,-2.6098,-2.6597,0.0,-2.8258,-2.8562,-2.9356,-2.996,-3.0061,-2.9815,-3.0065,-3.1113,-3.1046,-3.0707,-3.0236,-3.0244,-3.0137,-2.9879,-2.9621,-2.9464,-2.9464,-2.8958,-2.868,-2.868,-2.868,-2.8448,-2.7934,-2.8832,-2.8958,-2.8245,-2.8473,-2.8462,-2.8224,-2.701,-2.6466,-2.6418,-2.5917,-2.5693,-2.5713,-2.6034,-2.5768,-2.5144,-2.5282,-2.4649,-2.3647,-2.3517,-2.2994,-2.2397,-2.5446,-2.4952,-2.4327,-2.4218,-2.3597,-2.3119,-2.3113,-2.3007,-2.3195,-2.3916,-2.3441,-2.2971,-2.2805,-2.1677,-2.0694,0.0,0.0,0.0,0.0,-2.2791,-2.3194,-2.3888,-2.396,-2.4178,-2.4487,-2.4497,-2.4497,-2.4497,-2.4497,-2.4497,-2.4497,-2.4497,-2.4497,-2.4497,-2.4497,-2.4903,-2.5537,-2.5537,-2.5913,-2.6565,-2.6771,-2.6812,-2.693,-2.8098,-2.8646,-2.8761,-2.8313,-2.8138,-2.8109,-2.8109,-2.7959,-2.7708,-2.7268,-2.7241,-2.7145,-2.6432,-2.6275,0.0,0.0,0.0,0.0,0.0,0.0,0.0,0.0,-2.6113,-2.6296,-2.711,-2.7001,-2.6711,-2.6658,-2.776,-2.849,-2.7994,-2.8431,-2.8819,-2.884,-2.8089,-2.8204,-2.9846,-3.0035,-2.9734,-2.8983,-2.8966,-2.8881,-2.8423,-2.8391,-2.8391,-2.8391,-2.8215,-2.8132,-2.8132,-2.8132,-2.7709,-2.6914,-2.7776,-2.7754,-2.6894,-2.6973,-2.6973,-2.6865,-2.6044,-2.5693,-2.5693,-2.5693,-2.5693,-2.5645,-2.5118,-2.469,-2.4273,-2.3451,-2.2958,-2.2627,-2.2485,-2.2397,-2.2309,0.0,-2.5414,-2.5521,-2.4968,-2.396,-2.316,-2.311,-2.2694,-2.2786,-2.3853,-2.346,-2.317,-2.3448,-2.2039,-2.103,0.0,0.0,0.0,-2.3049,-2.3867,-2.4178,-2.3888,-2.426,-2.4445,-2.4497,-2.4497,-2.4497,-2.4497,-2.4497,-2.4497,-2.4497,-2.4497,-2.4497,-2.4497,-2.4497,-2.454,-2.4658,-2.4658,-2.5009,-2.5652,-2.5861,-2.6276,-2.6853,-2.7163,-2.7797,-2.8524,-2.8464,-2.8307,-2.8109,-2.8109,-2.7457,-2.6663,-2.6612,-2.6927,-2.7145,-2.6432,-2.6536,-2.6714,-2.588,-2.5277,-2.5205,-2.6485,-2.5672,-2.5322,0.0,-2.7224,-2.6159,-2.7952,-2.7025,-2.6192,-2.7353,-2.7079,-2.6932,-2.7599,-2.7806,-2.7727,-2.7282,-2.7131,-2.7045,-2.6913,-2.6913,-2.6874,-2.6784,-2.7194,-2.7431,-2.7379,-2.7379,-2.7379,-2.7379,-2.6514,-2.6062,-2.6062,-2.6062,-2.5965,-2.5878,-2.6732,-2.6927,-2.6465,-2.6836,-2.6816,-2.6445,-2.5908,-2.5693,-2.5693,-2.5693,-2.5693,-2.5625,-2.4609,-2.4195,-2.4023,-2.273,-2.2232,-2.2185,-2.2353,-2.2264,-2.2141,0.0,-2.6038,-2.6218,-2.5619,-2.424,-2.3311,-2.3631,-2.2896,-2.2723,-2.3853,-2.3791,-2.3604,-2.3616,-2.1984,-2.0941,0.0,0.0,0.0,-2.2356,-2.3691,-2.4301,-2.394,-2.4312,-2.4497,-2.4497,-2.4497,-2.4497,-2.4497,-2.4497,-2.4497,-2.4497,-2.4497,-2.4497,-2.4497,-2.4497,-2.4497,-2.4497,-2.4497,-2.4572,-2.4765,-2.4978,-2.5147,-2.5306,-2.539,-2.5915,-2.6714,-2.7628,-2.7821,0.0,0.0,-2.751,-2.6812,-2.6942,-2.6809,-2.6569,-2.6159,-2.6314,-2.6493,-2.5809,-2.5842,-2.5984,-2.5501,-2.5867,-2.6509,-2.7042,-2.6801,-2.6754,-2.7824,-2.7406,-2.7021,-2.762,-2.7578,-2.7451,-2.7314,-2.75,-2.7422,-2.6748,-2.6865,-2.6865,-2.6435,-2.6602,-2.6553,-2.6055,-2.621,-2.6332,-2.6332,-2.6332,-2.6332,-2.6332,-2.5917,-2.5693,-2.5693,-2.5693,-2.5693,-2.5693,-2.6582,-2.6807,-2.6396,-2.6816,-2.6797,-2.6367,-2.5888,-2.5693,-2.5693,-2.5693,-2.5586,-2.5303,-2.4454,-2.3955,-2.3585,-2.2499,-2.2097,-2.2097,-2.1998,-2.1954,-2.1874,0.0,-2.6181,-2.6457,-2.619,-2.4792,-2.3722,-2.3832,-2.2971,-2.2609,-2.3401,-2.3665,-2.361,-2.322,-2.1968,-2.1185,-2.1296,0.0,0.0,0.0,-2.3545,-2.4136,-2.4064,-2.425,-2.4373,-2.4497,-2.4497,-2.4497,-2.4497,-2.4497,-2.4497,-2.4497,-2.4497,-2.4497,-2.4497,-2.4497,-2.4497,-2.4497,-2.4497,-2.4368,-2.4206,-2.4411,-2.4368,-2.4186,-2.4149,-2.4388,-2.4927,-2.6251,-2.6679,0.0,0.0,-2.6688,-2.6227,-2.6237,-2.6166,-2.5937,-2.5493,-2.5492,-2.554,-2.5169,-2.5553,-2.5812,-2.4691,-2.57,-2.6743,-2.5997,-2.6374,-2.7048,-2.7577,-2.7718,-2.7718,-2.7718,-2.792,-2.7881,-2.7139,-2.7285,-2.7226,-2.6494,-2.665,-2.6728,-2.6426,-2.6758,-2.6728,-2.5986,-2.5869,-2.582,-2.5703,-2.5693,-2.5693,-2.5693,-2.5693,-2.5693,-2.5693,-2.5693,-2.5693,-2.5693,-2.6582,-2.6807,-2.6396,-2.6816,-2.6797,-2.6367,-2.5888,-2.5693,-2.5693,-2.5693,-2.5478,-2.5039,-2.4273,-2.3712,-2.3245,-2.2344,-2.2008,-2.1963,-2.1776,-2.1696,-2.1696,0.0,0.0,-2.6025,-2.6663,-2.5771,-2.4553,-2.3408,-2.2712,-2.2293,-2.2342,-2.2794,-2.2878,-2.2223,-2.2075,-2.2186,-2.2523,-2.2282,-2.2722,-2.4128,-2.3606,-2.3619,-2.4445,-2.4115,-2.4105,-2.4487,-2.4497,-2.4497,-2.4497,-2.4497,-2.4497,-2.4497,-2.4497,-2.4497,-2.4497,-2.4497,-2.4497,-2.4497,-2.4497,-2.4368,-2.4206,-2.4411,-2.4368,-2.4155,-2.398,-2.3752,-2.3638,-2.4332,0.0,0.0,0.0,-2.4352,-2.4213,-2.3767,-2.455,0.0,-2.4282,-2.3836,-2.3667,-2.3673,-2.3745,-2.4001,-2.4771,-2.4741,-2.4812,-2.6084,-2.6397,-2.6662,-2.7542,-2.7718,-2.7718,-2.7718,-2.7728,-2.7539,-2.709,-2.7021,-2.6885,-2.6455,-2.6396,-2.6406,-2.6387,-2.6758,-2.6846,-2.6406,-2.6367,-2.6191,-2.5713,-2.5693,-2.5693,-2.5693,-2.5693,-2.5693,-2.5693,-2.5693,-2.5693,-2.5693,-2.6582,-2.6807,-2.6396,-2.6816,-2.6797,-2.6367,-2.5888,-2.5693,-2.5693,-2.5693,-2.5478,-2.5029,-2.4087,-2.3482,-2.3028,-2.2076,-2.1687,-2.1687,-2.1696,-2.1696,-2.1696,0.0,0.0,0.0,-2.5506,-2.4803,-2.4013,-2.3234,-2.3004,-2.2892,-2.2858,-2.3335,0.0,0.0,0.0,0.0,0.0,-2.304,-2.3228,-2.406,-2.4305,-2.4545,-2.4825,-2.4472,-2.4342,-2.4497,-2.4497,-2.4497,-2.4497,-2.4497,-2.4652,-2.4952,-2.4952,-2.5106,-2.543,-2.543,-2.543,-2.5409,-2.5075,-2.5303,-2.5723,-2.4859,-2.4815,-2.5214,-2.4387,-2.3688,-2.3084,0.0,0.0,0.0,0.0,-2.3661,-2.3516,-2.3497,-2.3935,-2.4504,-2.4598,-2.4131,-2.3703,-2.4089,-2.4387,-2.4495,-2.4281,-2.4726,-2.5362,-2.581,-2.6182,-2.6553,-2.7119,-2.7236,-2.7324,-2.7669,-2.7432,-2.7187,-2.7041,-2.6787,-2.6445,-2.6016,-2.6201,-2.6494,-2.6768,-2.6934,-2.6963,-2.6816,-2.6553,-2.6211,-2.5723,-2.5693,-2.5693,-2.5693,-2.5693,-2.5693,-2.5693,-2.5693,-2.583,-2.6172,-2.6455,-2.6533,-2.6387,-2.624,-2.6094,-2.5947,-2.5752,-2.5693,-2.5693,-2.5693,-2.5478,-2.5039,-2.4273,-2.3629,-2.3028,-2.2255,-2.1874,-2.1696,-2.1696,-2.1696,-2.1696,0.0,0.0,0.0,0.0,0.0,0.0,0.0,0.0,0.0,0.0,0.0,0.0,0.0,0.0,0.0,0.0,0.0,-2.37,-2.4338,0.0,-2.4703,-2.544,-2.4925,-2.4635,-2.4735,-2.4816,-2.466,-2.4312,-2.4535,-2.4859,-2.5189,-2.5189,-2.5461,-2.5875,-2.5875,-2.5875,-2.5889,-2.5753,-2.6022,-2.651,-2.5744,-2.5583,-2.5779,-2.4764,-2.3835,0.0,0.0,0.0,0.0,-2.2395,-2.2456,-2.2497,-2.2467,-2.2785,-2.3277,-2.3757,-2.3561,-2.3293,-2.3686,-2.4041,-2.4269,-2.4071,-2.4766,-2.5537,-2.5654,-2.6074,-2.6465,-2.6738,-2.6914,-2.71,-2.7383,-2.7207,-2.7012,-2.7012,-2.6787,-2.6465,-2.6035,-2.6338,-2.666,-2.6777,-2.6924,-2.6953,-2.6807,-2.6543,-2.6211,-2.5723,-2.5693,-2.5693,-2.5693,-2.5693,-2.5762,-2.5967,-2.5967,-2.6182,-2.6611,-2.6611,-2.6533,-2.6387,-2.5947,-2.5693,-2.5693,-2.5693,-2.5693,-2.5684,-2.5586,-2.5344,-2.4897,-2.4133,-2.3482,-2.2892,-2.221,-2.1874,-2.1696,-2.1696,-2.1696,-2.1696,0.0,0.0,0.0,0.0,0.0,0.0,0.0,0.0,0.0,0.0,0.0,0.0,0.0,0.0,0.0,0.0,0.0,0.0,0.0,0.0,0.0,-2.6158,-2.5329,-2.495,-2.5187,-2.538,-2.5008,-2.4033,-2.4723,-2.5165,-2.5311,-2.5311,-2.5594,-2.6055,-2.5979,-2.5979,-2.6038,-2.6379,-2.6529,-2.6593,-2.6934,-2.6607,-2.5775,-2.5101,0.0,0.0,0.0,0.0,0.0,-2.0752,-2.0859,-2.1122,-2.0762,-2.1251,-2.1894,-2.1934,-2.2217,-2.2519,-2.2539,-2.2852,-2.3325,-2.4209,-2.4746,-2.5233,-2.5586,-2.6055,-2.6357,-2.6357,-2.667,-2.6953,-2.6953,-2.6953,-2.6953,-2.6982,-2.6982,-2.6846,-2.6445,-2.6728,-2.6836,-2.6435,-2.6719,-2.6807,-2.6426,-2.6367,-2.6182,-2.5713,-2.5693,-2.5693,-2.5693,-2.5713,-2.5967,-2.6377,-2.6406,-2.6611,-2.7012,-2.6992,-2.6768,-2.6357,-2.5937,-2.5693,-2.5693,-2.5693,-2.5684,-2.5635,-2.5391,-2.5054,-2.4593,-2.3711,-2.3056,-2.261,-2.1986,-2.1687,-2.1696,-2.1696,-2.1696,-2.1696,0.0,0.0,0.0,0.0,0.0,0.0,0.0,0.0,0.0,0.0,0.0,0.0,0.0,0.0,0.0,0.0,0.0,0.0,0.0,0.0,0.0,0.0,0.0,-2.5335,-2.5402,-2.5483,0.0,0.0,0.0,-2.6393,-2.716,-2.716,-2.7406,-2.7841,-2.7409,-2.7264,-2.7231,-2.6981,-2.7023,-2.7231,0.0,-2.6905,-2.6535,0.0,0.0,0.0,0.0,0.0,0.0,-2.0752,-2.0859,-2.1229,-2.1484,-2.1699,-2.2012,-2.2637,-2.2676,-2.2578,-2.2847,-2.3301,-2.375,-2.4287,-2.4746,-2.5233,-2.5586,-2.5771,-2.5908,-2.5908,-2.5937,-2.6015,-2.6015,-2.6015,-2.6172,-2.6494,-2.6543,-2.6514,-2.6406,-2.6484,-2.6504,-2.6396,-2.6191,-2.6152,-2.6367,-2.6094,-2.581,-2.5693,-2.5693,-2.5693,-2.5693,-2.6045,-2.6279,-2.6387,-2.6689,-2.6904,-2.7012,-2.6709,-2.6328,-2.5908,-2.5742,-2.5693,-2.5684,-2.5489,-2.5391,-2.5391,-2.5137,-2.4753,-2.4345,-2.3805,-2.3251,-2.2656,-2.2165,-2.1874,-2.1696,-2.1696,-2.1696,-2.1696,0.0,0.0,0.0,0.0,0.0,0.0,0.0,0.0,0.0,0.0,0.0,0.0,0.0,0.0,0.0,0.0,0.0,0.0,0.0,0.0,0.0,0.0,0.0,-2.588,-2.5768,-2.5892,0.0,0.0,0.0,0.0,0.0,-2.709,-2.7352,-2.7767,-2.7463,-2.7349,-2.7357,0.0,0.0,0.0,0.0,0.0,0.0,0.0,0.0,0.0,0.0,0.0,0.0,-2.1056,-2.1105,-2.1268,-2.1748,-2.2012,-2.2256,-2.2682,-2.2779,-2.2789,-2.3033,-2.3276,-2.3652,-2.4258,-2.46,-2.4902,-2.5342,-2.5439,-2.5391,-2.5148,-2.5109,-2.5167,-2.541,-2.5605,-2.583,-2.6318,-2.6699,-2.6816,-2.6435,-2.6543,-2.6523,-2.6143,-2.584,-2.5781,-2.6084,-2.583,-2.5693,-2.5693,-2.5693,-2.5693,-2.5693,-2.6152,-2.6475,-2.666,-2.6894,-2.6924,-2.6738,-2.6504,-2.6172,-2.5693,-2.5693,-2.5693,-2.5684,-2.5538,-2.5489,-2.543,-2.5088,-2.4656,-2.4249,-2.3627,-2.3019,-2.2464,-2.2076,-2.183,-2.1696,-2.1696,-2.1696,-2.1696,0.0,0.0,0.0,0.0,0.0,0.0,0.0,0.0,0.0,0.0,0.0,0.0,0.0,0.0,0.0,0.0,0.0,0.0,0.0,0.0,0.0,0.0,0.0,-2.6387,-2.6166,-2.6377,-2.6061,0.0,0.0,0.0,0.0,0.0,0.0,0.0,0.0,0.0,0.0,0.0,0.0,0.0,0.0,0.0,0.0,0.0,0.0,0.0,0.0,0.0,0.0,-2.151,-2.1468,-2.1424,-2.1846,-2.2256,-2.2598,-2.2598,-2.2808,-2.3091,-2.3091,-2.314,-2.3374,-2.4219,-2.4463,-2.46,-2.5028,-2.5116,-2.4988,-2.4502,-2.4414,-2.4521,-2.4844,-2.5312,-2.5771,-2.6152,-2.6934,-2.7236,-2.6494,-2.6699,-2.6631,-2.5781,-2.5693,-2.5693,-2.5693,-2.5693,-2.5693,-2.5693,-2.5693,-2.5713,-2.5771,-2.624,-2.666,-2.709,-2.6992,-2.6758,-2.6396,-2.6328,-2.6113,-2.5693,-2.5693,-2.5693,-2.5693,-2.5635,-2.5645,-2.5635,-2.5088,-2.4569,-2.4117,-2.324,-2.2629,-2.2172,-2.1824,-2.1696,-2.1696,-2.1696,-2.1696,-2.1696,0.0,0.0,0.0,0.0,0.0,0.0,0.0,0.0,0.0,0.0,-2.679,-2.7757,0.0,0.0,0.0,0.0,0.0,0.0,0.0,0.0,0.0,0.0,0.0,-2.6468,-2.6417,-2.6468,-2.6611,-2.6864,0.0,0.0,0.0,0.0,0.0,0.0,0.0,0.0,0.0,0.0,0.0,0.0,0.0,0.0,0.0,0.0,0.0,0.0,0.0,0.0,0.0,0.0,-2.2168,-2.2305,-2.2383,-2.2652,-2.2984,-2.2984,-2.3042,-2.3091,-2.3091,-2.3398,-2.3799,-2.4287,-2.4687,-2.5018,-2.5096,-2.5116,-2.4988,-2.4502,-2.4414,-2.4336,-2.4062,-2.4648,-2.5205,-2.5331,-2.6084,-2.6553,-2.6406,-2.6455,-2.6309,-2.5742,-2.5693,-2.5693,-2.5693,-2.5693,-2.5693,-2.5693,-2.5693,-2.5849,-2.626,-2.668,-2.7109,-2.7539,-2.6865,-2.6465,-2.6387,-2.6035,-2.5762,-2.5693,-2.5693,-2.5693,-2.5684,-2.5489,-2.5391,-2.5333,-2.4784,-2.4149,-2.3448,-2.3073,-2.2474,-2.1787,-2.1723,-2.1696,-2.1696,-2.1696,-2.1696,-2.1696,0.0,0.0,0.0,0.0,0.0,0.0,0.0,-2.495,-2.5847,-2.7154,-2.8081,-2.8625,-2.864,-2.8893,-2.8969,0.0,0.0,0.0,0.0,0.0,0.0,0.0,0.0,-2.685,-2.6499,-2.6499,-2.6625,-2.6889,0.0,-2.7027,-2.7291,-2.7291,-2.7291,-2.7278,0.0,0.0,0.0,0.0,0.0,0.0,0.0,0.0,0.0,0.0,0.0,0.0,0.0,0.0,0.0,0.0,-2.2726,-2.2846,-2.2816,-2.3022,-2.3276,-2.3144,-2.3091,-2.3091,-2.3091,-2.3457,-2.3896,-2.4316,-2.4746,-2.4998,-2.4548,-2.457,-2.4482,-2.3603,-2.3603,-2.3647,-2.3486,-2.415,-2.4805,-2.5077,-2.581,-2.6387,-2.6387,-2.6387,-2.623,-2.5742,-2.5693,-2.5693,-2.5693,-2.5693,-2.5693,-2.5693,-2.5693,-2.5781,-2.6035,-2.6455,-2.6787,-2.7043,-2.6602,-2.6279,-2.6055,-2.5791,-2.5693,-2.5693,-2.5693,-2.5693,-2.5693,-2.5586,-2.5489,-2.5479,-2.4704,-2.4068,-2.3467,-2.2852,-2.2227,-2.1696,-2.1696,-2.141,-2.1042,-2.1508,-2.141,-2.1042,0.0,0.0,0.0,0.0,0.0,0.0,0.0,-2.5309,-2.6344,-2.8433,-2.9232,-2.9479,-2.9145,-2.9657,-2.9964,0.0,0.0,0.0,0.0,0.0,0.0,0.0,0.0,-2.7484,-2.6939,0.0,0.0,-2.6904,-2.6732,0.0,0.0,0.0,0.0,0.0,-2.6499,-2.6499,-2.6499,0.0,0.0,0.0,0.0,-2.8034,0.0,0.0,0.0,0.0,0.0,-2.4877,-2.4102,-2.3705,-2.3465,-2.3336,-2.3401,-2.3381,-2.3341,-2.3202,-2.3144,-2.3091,-2.3091,-2.3525,-2.3984,-2.4219,-2.4678,-2.4861,-2.3877,-2.3975,-2.3945,-2.2754,-2.2808,-2.3091,-2.3091,-2.3725,-2.4424,-2.4853,-2.5674,-2.6279,-2.6377,-2.6387,-2.626,-2.5869,-2.5742,-2.5693,-2.5693,-2.5693,-2.5693,-2.5693,-2.5693,-2.5732,-2.582,-2.6201,-2.6387,-2.6387,-2.6299,-2.6084,-2.5693,-2.5693,-2.5693,-2.5693,-2.5693,-2.5693,-2.5693,-2.5693,-2.5635,-2.5431,-2.466,-2.389,-2.314,-2.2317,-2.1634,-2.1096,-2.1096,-2.0628,-2.0068,-2.0817,-2.0628,-2.0068,0.0,0.0,0.0,0.0,0.0,0.0,0.0,-2.4995,-2.589,-2.8375,-2.9232,-2.9813,-3.0365,-3.0957,-3.11,0.0,0.0,0.0,0.0,0.0,0.0,0.0,0.0,0.0,0.0,0.0,0.0,-2.8118,-2.7532,0.0,0.0,0.0,0.0,0.0,0.0,-2.6499,-2.6499,-2.6499,0.0,0.0,0.0,0.0,0.0,0.0,0.0,0.0,0.0,-2.6257,-2.561,-2.5543,-2.4687,-2.3735,-2.4219,-2.3677,-2.2935,-2.3341,-2.3276,-2.3091,-2.3091,-2.3695,-2.4277,-2.3935,-2.4463,-2.4793,-2.355,-2.3589,-2.3594,-2.2695,-2.2808,-2.3091,-2.3091,-2.3525,-2.3984,-2.4404,-2.5225,-2.5937,-2.6338,-2.6387,-2.6367,-2.6338,-2.5977,-2.5693,-2.5693,-2.5693,-2.5693,-2.5693,-2.5693,-2.5908,-2.6309,-2.6367,-2.6387,-2.6387,-2.6006,-2.5732,-2.5693,-2.5693,-2.5693,-2.5693,-2.5693,-2.5693,-2.5693,-2.5693,-2.5363,-2.4784,-2.4431,-2.324,-2.1496,-2.1174,-2.0239,-1.9063,-1.9063,-1.9018,-1.8926,-1.9018,-1.9018,-1.8926,0.0,0.0,0.0,0.0,0.0,0.0,-2.5457,-2.5839,-2.6663,-2.8476,-2.9566,-3.0437,-3.1076,-3.1729,-3.17,-3.0699,0.0,0.0,0.0,0.0,0.0,0.0,0.0,0.0,0.0,0.0,-2.8111,-2.8299,-2.7952,0.0,0.0,0.0,0.0,0.0,0.0,-2.6499,-2.6499,-2.6499,0.0,0.0,0.0,0.0,0.0,0.0,0.0,0.0,0.0,0.0,-2.5838,-2.5329,-2.4401,-2.347,-2.3606,-2.3197,-2.2717,-2.3113,-2.3089,-2.2942,-2.3066,-2.3725,-2.4316,-2.3896,-2.448,-2.4705,-2.3125,-2.3301,-2.3477,-2.2363,-2.2676,-2.3091,-2.3091,-2.3237,-2.3623,-2.4307,-2.467,-2.5185,-2.5898,-2.6221,-2.6299,-2.6025,-2.6074,-2.6025,-2.5713,-2.5693,-2.5693,-2.5693,-2.5693,-2.5762,-2.5986,-2.5996,-2.5996,-2.5996,-2.5781,-2.5693,-2.5693,-2.5693,-2.5693,-2.5693,-2.5693,-2.5693,-2.5674,-2.5459,-2.5187,-2.4887,-2.3973,-2.276,-2.1417,-2.0813,-1.9845,-1.8788,-1.8788,-1.8427,-1.7971,-1.8557,-1.8427,-1.7963,0.0,0.0,0.0,0.0,0.0,-2.5019,-2.5877,-2.6462,-2.7329,-2.8768,-2.9929,-3.0932,-3.1729,-3.2031,-3.1845,-3.093,-3.0714,0.0,0.0,0.0,0.0,0.0,0.0,0.0,0.0,0.0,-2.9026,-2.9186,-2.8708,-2.8411,0.0,0.0,-2.7444,-2.7268,0.0,0.0,0.0,0.0,0.0,0.0,0.0,0.0,0.0,0.0,0.0,0.0,0.0,0.0,0.0,0.0,0.0,-2.3574,-2.3643,-2.3079,0.0,-2.2962,-2.309,-2.3021,-2.31,-2.3627,-2.416,-2.3867,-2.415,-2.418,-2.2978,-2.3066,-2.3154,-2.2256,-2.2604,-2.3091,-2.3091,-2.3091,-2.3335,-2.4111,-2.4443,-2.4912,-2.5752,-2.6299,-2.6504,-2.6328,-2.6357,-2.6269,-2.5967,-2.5762,-2.5693,-2.5693,-2.5693,-2.5693,-2.5693,-2.5693,-2.5693,-2.5693,-2.5693,-2.5693,-2.5693,-2.5693,-2.5693,-2.5693,-2.5693,-2.5693,-2.5674,-2.5273,-2.4848,-2.4297,-2.3176,-2.1824,-2.0386,-1.972,-1.8834,-1.7909,-1.7909,-1.7505,-1.6951,-1.7638,-1.7451,-1.6951,0.0,0.0,0.0,0.0,0.0,0.0,-2.5804,-2.6462,-2.7461,-2.9334,-3.0176,-3.1061,-3.2367,-3.1886,-3.1526,-3.148,-3.093,0.0,0.0,0.0,0.0,0.0,0.0,0.0,0.0,0.0,-3.0736,-3.1273,-2.9931,-2.9222,-2.9077,-2.8399,-2.7808,-2.7281,0.0,0.0,0.0,0.0,0.0,0.0,0.0,0.0,0.0,0.0,0.0,0.0,0.0,0.0,0.0,0.0,0.0,0.0,0.0,0.0,0.0,0.0,-2.3338,-2.345,-2.3178,-2.3457,-2.3799,-2.3789,-2.3467,-2.311,-2.3091,-2.2779,-2.2519,-2.251,-2.2799,-2.3091,-2.3091,-2.3091,-2.3237,-2.3721,-2.4512,-2.5419,-2.626,-2.6738,-2.7168,-2.7598,-2.6904,-2.6387,-2.6387,-2.5986,-2.5693,-2.5693,-2.5693,-2.5693,-2.5693,-2.5693,-2.5693,-2.5693,-2.5693,-2.5693,-2.5693,-2.5693,-2.5693,-2.5693,-2.5693,-2.5693,-2.5674,-2.5273,-2.4202,-2.2595,-2.1919,-2.0138,-1.7738,-1.7419,-1.6716,-1.5832,-1.5832,-1.5825,-1.5825,-1.5832,-1.5825,-1.5825,0.0,0.0,0.0,0.0,0.0,0.0,0.0,-2.7106,-2.7795,-2.884,-2.9944,-3.0932,-3.1743,-3.1642,-3.1495,-3.1495,-3.0945,0.0,0.0,0.0,0.0,0.0,0.0,0.0,0.0,0.0,-3.1124,-3.1287,-3.0786,-3.0263,-2.9689,-2.907,-2.8658,-2.8373,-2.762,-2.7216,0.0,0.0,0.0,0.0,0.0,0.0,0.0,0.0,0.0,0.0,0.0,0.0,0.0,0.0,0.0,0.0,0.0,0.0,0.0,0.0,-2.2716,-2.2376,-2.2634,-2.2812,-2.292,-2.292,-2.2812,-2.2637,-2.2344,-2.2402,-2.251,-2.251,-2.2808,-2.3091,-2.3091,-2.3091,-2.3432,-2.4502,-2.494,-2.5527,-2.665,-2.6934,-2.6963,-2.6816,-2.6289,-2.5947,-2.5947,-2.5771,-2.5693,-2.5693,-2.5693,-2.5693,-2.5693,-2.5693,-2.5693,-2.5693,-2.5693,-2.5693,-2.5693,-2.5693,-2.5693,-2.5684,-2.543,-2.4929,-2.4256,-2.3505,-2.2463,-2.1147,-2.0453,-1.9214,-1.7692,-1.7419,-1.6723,-1.5784,-1.5784,-1.5784,-1.5784,-1.5784,-1.5784,-1.5784,0.0,0.0,0.0,0.0,0.0,0.0,0.0,-2.7669,-2.8286,-2.8651,-2.9813,-3.0814,-3.1438,-3.1308,-3.125,-3.1466,-3.1163,0.0,0.0,0.0,0.0,0.0,0.0,0.0,0.0,-3.1786,-3.189,-3.2132,-3.1777,-3.121,-3.048,-2.9579,-2.9119,-2.8931,-2.8005,-2.7482,0.0,0.0,0.0,0.0,0.0,0.0,0.0,0.0,0.0,0.0,0.0,0.0,0.0,0.0,0.0,0.0,0.0,0.0,0.0,0.0,-2.2566,-2.1957,-2.2207,-2.2393,-2.251,-2.251,-2.2266,-2.209,-2.2305,-2.2314,-2.2363,-2.2643,-2.2916,-2.3091,-2.3091,-2.3091,-2.3354,-2.4209,-2.4609,-2.5225,-2.6367,-2.667,-2.668,-2.6416,-2.6143,-2.5869,-2.5703,-2.5693,-2.5693,-2.5693,-2.5693,-2.5693,-2.5693,-2.5693,-2.5693,-2.5693,-2.5693,-2.5606,-2.5488,-2.5488,-2.5208,-2.4699,-2.4421,-2.3795,-2.2796,-2.211,-2.1122,-1.9947,-1.9263,-1.8241,0.0,-1.6857,-1.6393,-1.5784,-1.5784,-1.5784,-1.5784,-1.5784,-1.5784,-1.5784,0.0,0.0,0.0,0.0,0.0,0.0,0.0,-2.8059,-2.8821,-2.8709,-2.9813,-3.083,-3.138,-3.093,-3.0829,-3.1437,0.0,0.0,0.0,0.0,0.0,0.0,0.0,0.0,0.0,-3.2481,-3.2832,-3.3503,-3.2773,-3.2016,-3.1254,-2.9925,-2.9267,-2.9142,-2.8424,-2.7821,0.0,0.0,0.0,0.0,0.0,0.0,0.0,0.0,0.0,0.0,0.0,0.0,0.0,0.0,0.0,0.0,0.0,0.0,0.0,0.0,0.0,0.0,0.0,-2.2112,-2.2383,-2.2412,-2.1797,-2.1463,-2.2682,-2.2402,0.0,-2.2877,-2.3052,-2.3071,-2.313,-2.312,-2.312,-2.3218,-2.3945,-2.4766,-2.5567,-2.6084,-2.6338,-2.6338,-2.6338,-2.6182,-2.5732,-2.5693,-2.5693,-2.5693,-2.5693,-2.5693,-2.5693,-2.5693,-2.5674,-2.5645,-2.5586,-2.5392,-2.5021,-2.4916,-2.4212,-2.2887,-2.2859,-2.2324,-2.135,-2.0925,-2.0063,-1.8886,-1.8178,-1.7217,-1.617,-1.5879,-1.5784,-1.5784,-1.5784,-1.5784,-1.5784,-1.5784,-1.5784,-1.5784,0.0,0.0,0.0,0.0,0.0,0.0,0.0,0.0,0.0,0.0,-2.9813,-3.0656,-3.0816,-3.0685,-3.0829,0.0,0.0,0.0,0.0,0.0,0.0,0.0,0.0,0.0,0.0,-3.2481,-3.2832,-3.3503,-3.28,-3.2064,-3.1273,-2.9922,-2.9454,-2.9754,-2.8615,0.0,0.0,0.0,0.0,0.0,0.0,0.0,0.0,0.0,0.0,0.0,-2.7165,-2.7092,0.0,0.0,0.0,0.0,0.0,0.0,0.0,0.0,-2.3965,-2.3264,-2.2262,0.0,-2.1103,-2.1445,-2.1123,-2.0889,0.0,-2.1492,-2.159,-2.248,-2.2656,-2.2861,-2.3516,-2.3315,-2.3467,-2.4453,-2.4785,-2.5107,-2.5615,-2.5771,-2.584,-2.584,-2.584,-2.5801,-2.5703,-2.5693,-2.5693,-2.5693,-2.5693,-2.5693,-2.5693,-2.5693,-2.5586,-2.5234,-2.4478,-2.4027,-2.3924,-2.3145,-2.2408,-2.183,-2.1541,-2.0879,-1.9882,-1.9485,-1.8543,-1.72,-1.6979,-1.6527,-1.5879,-1.5832,-1.5784,-1.5784,-1.5784,-1.5784,-1.5784,-1.5784,-1.5784,-1.5784,0.0,0.0,0.0,0.0,0.0,0.0,0.0,0.0,0.0,0.0,0.0,0.0,0.0,0.0,0.0,0.0,0.0,0.0,0.0,0.0,0.0,0.0,0.0,0.0,0.0,-3.2191,-3.2527,-3.3503,-3.2832,-3.2115,-3.1354,-3.0341,-2.9774,-2.9601,-2.8313,0.0,0.0,0.0,0.0,0.0,0.0,0.0,0.0,0.0,0.0,0.0,-2.6939,-2.6939,0.0,-2.7241,-2.7153,-2.6942,0.0,0.0,0.0,0.0,-2.4326,-2.3334,-2.2639,-2.2105,-2.164,-2.1301,-2.1055,-2.0986,-2.1435,-2.1337,-2.1385,-2.209,-2.2227,-2.2422,-2.3086,-2.3174,-2.3437,-2.4336,-2.4639,-2.4922,-2.5371,-2.5781,-2.5967,-2.5713,-2.5693,-2.5693,-2.5693,-2.5693,-2.5693,-2.5693,-2.5693,-2.5596,-2.5439,-2.4977,-2.4535,-2.4155,-2.2673,-2.2249,-2.298,-2.1977,-2.1074,-2.0279,-2.0041,-1.9392,-1.841,-1.8101,-1.7466,-1.6581,-1.6447,-1.6163,-1.5784,-1.5784,-1.5784,-1.5784,-1.5784,-1.5784,-1.5784,-1.5784,-1.5784,-1.5784,0.0,0.0,0.0,0.0,0.0,0.0,0.0,0.0,0.0,0.0,0.0,0.0,0.0,0.0,0.0,0.0,0.0,0.0,0.0,0.0,0.0,0.0,0.0,-3.1235,-3.2307,-3.1872,-3.2208,-3.3358,-3.2788,-3.2147,-3.148,-3.0739,-2.9942,-2.9087,-2.798,0.0,0.0,0.0,0.0,0.0,0.0,0.0,0.0,0.0,0.0,0.0,0.0,0.0,0.0,-2.704,-2.6854,-2.6506,-2.6746,0.0,0.0,0.0,0.0,0.0,-2.2909,-2.2931,-2.2705,-2.1431,-2.1142,-2.1278,-2.1611,-2.1396,-2.126,-2.1699,-2.1787,-2.1953,-2.251,-2.2861,-2.3286,-2.3799,-2.418,-2.459,-2.5098,-2.5752,-2.6074,-2.5723,-2.5693,-2.5693,-2.5693,-2.5625,-2.5586,-2.5586,-2.5528,-2.5275,-2.4791,-2.3984,-2.3255,-2.272,-2.0799,-2.0425,-2.1733,-2.0864,-1.9783,-1.8565,-1.8565,-1.811,-1.7239,-1.7066,-1.6831,-1.6541,-1.6312,-1.6028,-1.5784,-1.5784,-1.5784,-1.5784,-1.5784,-1.5784,-1.5784,-1.5784,-1.5784,-1.5784,0.0,0.0,0.0,0.0,0.0,0.0,0.0,0.0,0.0,0.0,0.0,0.0,0.0,0.0,0.0,0.0,0.0,0.0,0.0,0.0,0.0,0.0,-3.1729,-3.1437,-3.164,-3.2104,-3.2469,-3.2658,-3.2571,-3.2147,-3.1466,-3.0299,-2.9283,-2.8436,-2.823,-2.8433,0.0,0.0,0.0,0.0,-2.8612,0.0,0.0,0.0,0.0,0.0,0.0,0.0,0.0,-2.66,-2.6436,-2.6226,-2.6114,0.0,0.0,0.0,0.0,0.0,-2.2478,-2.2331,-2.2234,-2.1006,-2.0957,-2.1112,-2.0879,-2.0752,-2.0791,-2.12,-2.1298,-2.1648,-2.2789,-2.2803,-2.2988,-2.4131,-2.4375,-2.4707,-2.5469,-2.542,-2.5381,-2.5654,-2.5693,-2.5693,-2.5693,-2.5391,-2.5166,-2.5166,-2.4824,-2.4254,-2.3373,-2.3176,-2.2514,-2.1273,-2.0085,-1.9452,-1.9328,-1.8651,-1.802,-1.7512,-1.7512,-1.738,-1.7073,-1.7026,-1.6744,-1.6265,-1.6224,-1.6028,-1.5784,-1.5784,-1.5784,-1.5784,-1.5784,-1.5784,-1.5784,-1.5784,-1.5784,-1.5784,0.0,0.0,0.0,0.0,0.0,0.0,0.0,0.0,0.0,0.0,0.0,0.0,0.0,0.0,0.0,0.0,0.0,0.0,0.0,0.0,0.0,-3.3035,-3.2411,-3.1857,-3.1495,-3.1785,-3.1944,-3.1944,-3.1944,-3.1642,-3.1003,-3.0043,-2.9329,-2.8818,-2.847,-2.8527,-2.8875,0.0,0.0,0.0,0.0,0.0,0.0,0.0,0.0,0.0,0.0,0.0,0.0,0.0,-2.6361,-2.6166,-2.5945,0.0,0.0,0.0,0.0,0.0,-2.2199,-2.1837,-2.159,-2.0791,-2.1074,-2.1465,-2.1025,-2.0928,-2.0918,-2.0879,-2.0869,-2.1269,-2.2516,-2.2832,-2.3281,-2.456,-2.4971,-2.5185,-2.5352,-2.541,-2.5508,-2.5664,-2.5693,-2.5596,-2.54,-2.5195,-2.4971,-2.4736,-2.4057,-2.3317,-2.2668,-2.1617,-2.0649,-1.9777,-1.8793,-1.8169,-1.7971,-1.766,-1.7432,-1.7279,-1.7279,-1.7239,-1.7153,-1.6918,-1.6636,-1.6407,-1.6123,-1.5927,-1.5784,-1.5784,-1.5784,-1.5784,-1.5784,-1.5784,-1.5784,-1.5784,-1.5784,-1.5784,0.0,0.0,0.0,0.0,0.0,0.0,0.0,0.0,0.0,0.0,0.0,0.0,0.0,0.0,0.0,0.0,0.0,0.0,0.0,0.0,-3.3431,-3.3285,-3.3064,-3.2481,-3.1509,-3.1495,-3.1495,-3.1495,-3.164,-3.1496,-3.1032,-3.0354,-2.9857,-2.949,-2.8864,-2.864,-2.8687,-2.8562,-2.8875,0.0,0.0,0.0,0.0,0.0,0.0,0.0,0.0,0.0,0.0,0.0,0.0,0.0,0.0,0.0,0.0,-2.3891,-2.3169,-2.2537,-2.1728,-2.131,-2.0996,-2.0693,-2.1152,-2.1641,-2.1268,-2.119,-2.1122,-2.0967,-2.0918,-2.1251,-2.2314,-2.3037,-2.3824,-2.4756,-2.5381,-2.5567,-2.5273,-2.543,-2.5586,-2.5586,-2.544,-2.5293,-2.4951,-2.4824,-2.4536,-2.3955,-2.314,-2.2336,-2.1514,-2.0057,-1.9011,-1.8481,-1.7692,-1.7279,-1.7279,-1.7279,-1.7279,-1.7279,-1.7279,-1.7286,-1.7239,-1.677,-1.6588,-1.6494,-1.6021,-1.5784,-1.5784,-1.5784,-1.5784,-1.5784,-1.5784,-1.5784,-1.5784,-1.5784,-1.5784,-1.5784,0.0,0.0,0.0,0.0,0.0,0.0,0.0,0.0,0.0,0.0,0.0,0.0,0.0,0.0,0.0,0.0,0.0,0.0,0.0,0.0,-3.3209,-3.2614,-3.3674,-3.3412,-3.1524,-3.1495,-3.1495,-3.1495,-3.2104,-3.2425,-3.2367,-3.1681,-3.0966,-3.0181,-2.9672,-2.8929,-2.8134,-2.762,-2.772,0.0,0.0,0.0,0.0,0.0,0.0,0.0,0.0,0.0,0.0,0.0,0.0,0.0,0.0,0.0,-2.3891,-2.2424,-2.1945,-2.1728,-2.0905,-2.0664,-2.0644,-2.0615,-2.0928,-2.1239,-2.12,-2.119,-2.1307,-2.1719,-2.1787,-2.1934,-2.2422,-2.3506,-2.4355,-2.4443,-2.5128,-2.5674,-2.5645,-2.5361,-2.5117,-2.5117,-2.4756,-2.4492,-2.4463,-2.4111,-2.3486,-2.252,-2.2033,-2.0996,-1.9142,-1.892,-1.8404,-1.7419,-1.7326,-1.7279,-1.7279,-1.7279,-1.7279,-1.7279,-1.7279,-1.72,-1.7026,-1.673,-1.6447,-1.6224,-1.5927,-1.5784,-1.5784,-1.5784,-1.5784,-1.5784,-1.5784,-1.5784,-1.5784,-1.5784,-1.5784,-1.5784,0.0,0.0,0.0,0.0,0.0,0.0,0.0,0.0,0.0,0.0,0.0,0.0,0.0,0.0,0.0,0.0,0.0,0.0,0.0,0.0,-3.2513,-3.3093,-3.318,-3.2858,-3.215,-3.2104,-3.1915,-3.1495,-3.1741,-3.2075,-3.2481,-3.1799,-3.0889,-2.9801,-2.995,-2.9117,-2.7607,-2.7733,-2.7908,-2.8059,0.0,0.0,0.0,0.0,0.0,0.0,0.0,0.0,0.0,0.0,-2.5723,-2.5087,0.0,-2.3938,-2.3206,-2.2134,-2.1794,-2.1614,-2.0828,-2.0605,-2.0605,-2.0605,-2.0693,-2.0889,-2.1132,-2.1445,-2.1689,-2.1846,-2.1885,-2.21,-2.273,-2.3686,-2.4414,-2.4414,-2.4697,-2.4865,-2.4865,-2.4775,-2.4668,-2.4668,-2.3991,-2.341,-2.3101,-2.2428,-2.1724,-2.1056,-2.0317,-1.9567,-1.8834,-1.8195,-1.7692,-1.7326,-1.7279,-1.7279,-1.7279,-1.7279,-1.7279,-1.7279,-1.7279,-1.7239,-1.7153,-1.677,-1.6541,-1.64,-1.5974,-1.5784,-1.5784,-1.5784,-1.5784,-1.5784,-1.5784,-1.5784,-1.5784,-1.5784,-1.5784,-1.5784,0.0,0.0,0.0,0.0,0.0,0.0,0.0,0.0,0.0,0.0,0.0,0.0,0.0,0.0,0.0,0.0,0.0,0.0,0.0,-3.1409,-3.1917,-3.2817,-3.2629,-3.2481,-3.2481,-3.2481,-3.2162,-3.1495,-3.1495,-3.1828,-3.2481,-3.1799,-3.1002,-3.008,-3.0266,-2.9333,-2.7621,-2.7837,-2.7784,-2.7557,-2.7216,0.0,0.0,0.0,0.0,0.0,0.0,0.0,0.0,0.0,-2.5241,0.0,0.0,0.0,0.0,0.0,-2.1423,-2.1308,-2.075,-2.0605,-2.0605,-2.0605,-2.0713,-2.0889,-2.1338,-2.167,-2.1963,-2.2227,-2.2275,-2.2461,-2.2984,-2.3686,-2.4219,-2.4219,-2.4336,-2.4414,-2.4414,-2.4307,-2.4072,-2.3787,-2.3055,-2.2355,-2.1707,-2.1077,-2.0423,-1.9803,-1.9155,-1.865,-1.8334,-1.7645,-1.7279,-1.7279,-1.7279,-1.7279,-1.7279,-1.7279,-1.7279,-1.7279,-1.7279,-1.7279,-1.7279,-1.6817,-1.6588,-1.6581,-1.6015,-1.5784,-1.5784,-1.5784,-1.5784,-1.5784,-1.5784,-1.5784,-1.5784,-1.5784,-1.5784,-1.5784,0.0,0.0,0.0,0.0,0.0,0.0,0.0,0.0,0.0,0.0,0.0,0.0,0.0,0.0,0.0,0.0,0.0,0.0,0.0,-3.1163,-3.148,-3.1495,-3.215,-3.2481,-3.2481,-3.2481,-3.2162,-3.1495,-3.1495,-3.1828,-3.2481,-3.1799,-3.1421,-3.1278,-3.074,-2.9665,-2.826,-2.7719,-2.7095,-2.6499,-2.6499,-2.6499,0.0,0.0,0.0,0.0,0.0,0.0,0.0,0.0,-2.4564,-2.4084,0.0,0.0,0.0,-2.0828,-2.0605,-2.0605,-2.0605,-2.0605,-2.0605,-2.0605,-2.0898,-2.1307,-2.1787,-2.1894,-2.2129,-2.2925,-2.3091,-2.3091,-2.3091,-2.3496,-2.3779,-2.3779,-2.4131,-2.4358,-2.4358,-2.3997,-2.3409,-2.2419,-2.1933,-2.1284,-2.0277,-2.0187,-1.9786,-1.888,-1.8796,-1.8334,-1.7326,-1.7279,-1.7279,-1.7279,-1.7279,-1.7279,-1.7279,-1.7279,-1.7279,-1.7279,-1.7279,-1.7279,-1.7279,-1.6817,-1.6588,-1.6581,-1.6015,-1.5784,-1.5784,-1.5784,-1.5784,-1.5784,-1.5784,-1.5784,-1.5784,-1.5784,-1.5784,-1.5784,0.0,0.0,0.0,0.0,0.0,0.0,0.0,0.0,0.0,0.0,0.0,0.0,0.0,0.0,0.0,0.0,0.0,0.0,0.0,-3.0786,-3.1061,-3.1466,-3.1683,-3.1785,-3.1785,-3.1785,-3.1915,-3.2191,-3.1712,-3.1828,0.0,-3.1799,-3.1223,-3.074,-3.0558,-2.9465,-2.7719,-2.7583,-2.7095,-2.6499,-2.6499,-2.6499,0.0,0.0,0.0,0.0,0.0,0.0,0.0,0.0,0.0,0.0,0.0,0.0,0.0,-2.0673,-2.0605,-2.0605,-2.0605,-2.0605,-2.0605,-2.0605,-2.0898,-2.1307,-2.1787,-2.2119,-2.248,-2.2984,-2.3091,-2.3091,-2.3091,-2.3198,-2.3286,-2.3286,-2.284,-2.2503,-2.2503,-2.1807,-2.1175,-2.0858,-2.0127,-1.9559,-1.9239,-1.8557,-1.8056,-1.7785,-1.7738,-1.7598,-1.7326,-1.7279,-1.7279,-1.7279,-1.7279,-1.7279,-1.7279,-1.7279,-1.7279,-1.7279,-1.7279,-1.7279,-1.7279,-1.6817,-1.6588,-1.6581,-1.6015,-1.5784,-1.5784,-1.5784,-1.5784,-1.5784,-1.5784,-1.5784,-1.5784,-1.5784,-1.5784,-1.5784,0.0,0.0,0.0,0.0,0.0,0.0,0.0,0.0,0.0,0.0,0.0,0.0,0.0,0.0,0.0,0.0,0.0,0.0,0.0,0.0,-3.0772,-3.1134,-3.138,-3.1758,-3.228,-3.2295,-3.2483,0.0,0.0,0.0,-3.1743,-3.1337,-3.0919,-3.0532,-3.0532,-2.9726,-2.8325,-2.8019,-2.7517,-2.6871,-2.6624,-2.6499,-2.6499,0.0,0.0,0.0,0.0,0.0,0.0,0.0,0.0,0.0,-2.168,0.0,-2.0605,-2.0605,-2.0605,-2.0605,-2.0605,-2.0605,-2.0644,-2.0791,-2.1162,-2.165,-2.2246,-2.2578,-2.2789,-2.3042,-2.3091,-2.3091,-2.3091,-2.2775,-2.2555,-2.2555,-2.173,-2.1105,-2.1105,-2.0593,-2.0051,-1.9695,-1.9155,-1.865,-1.8241,-1.7645,-1.7279,-1.7279,-1.7279,-1.7279,-1.7279,-1.7279,-1.7279,-1.7279,-1.7279,-1.7279,-1.7279,-1.7279,-1.7279,-1.7279,-1.7239,-1.72,-1.7153,-1.677,-1.6588,-1.6581,-1.6015,-1.5784,-1.5784,-1.5784,-1.5784,-1.5784,-1.5784,-1.5784,-1.5784,-1.5784,-1.5784,-1.5784,0.0,0.0,0.0,0.0,0.0,0.0,0.0,0.0,0.0,0.0,0.0,0.0,0.0,0.0,0.0,0.0,0.0,0.0,0.0,0.0,0.0,0.0,0.0,0.0,0.0,0.0,0.0,0.0,0.0,-3.1221,-3.0685,-3.0641,-3.0598,-3.0598,-3.0598,-3.0221,-2.956,-2.8889,-2.8182,-2.7451,-2.685,-2.6555,-2.6499,-2.6499,0.0,0.0,0.0,0.0,0.0,0.0,0.0,0.0,-2.1126,-2.0605,-2.0605,-2.0605,-2.0605,-2.0605,-2.0605,-2.0605,-2.0713,-2.1083,-2.1592,-2.2107,-2.2819,-2.296,-2.3003,-2.3091,-2.3091,-2.3047,-2.3003,-2.228,-2.165,-2.1561,-2.0737,-2.0051,-2.0051,-2.0005,-1.9604,-1.8742,-1.865,-1.8288,-1.7372,-1.7279,-1.7279,-1.7279,-1.7279,-1.7279,-1.7279,-1.7279,-1.7279,-1.7279,-1.7279,-1.7279,-1.7279,-1.7279,-1.7279,-1.7279,-1.7113,-1.6979,-1.6979,-1.6683,-1.6541,-1.6494,-1.6015,-1.5784,-1.5784,-1.5784,-1.5784,-1.5784,-1.5784,-1.5784,-1.5784,-1.5784,-1.5784,-1.5784,0.0,0.0,0.0,0.0,0.0,0.0,0.0,0.0,0.0,0.0,0.0,0.0,0.0,0.0,0.0,0.0,0.0,0.0,0.0,0.0,0.0,0.0,0.0,0.0,0.0,0.0,0.0,0.0,0.0,-3.1438,-3.1308,-3.083,-3.0598,-3.0598,-3.0598,-3.0221,-2.9591,-2.9421,-2.8648,-2.7484,-2.7351,-2.6973,-2.6499,-2.6499,-2.6499,0.0,0.0,0.0,0.0,0.0,0.0,0.0,-2.1126,-2.0605,-2.0605,-2.0605,-2.0605,-2.0605,-2.0605,-2.0605,-2.0713,-2.1083,-2.1765,-2.2287,-2.208,-2.2015,-2.2192,-2.296,-2.3091,-2.2862,-2.2148,-2.1828,-2.1418,-2.0647,-1.9741,-1.9109,-1.9109,-1.8419,-1.7831,-1.7652,-1.7598,-1.7559,-1.7326,-1.7279,-1.7279,-1.7279,-1.7279,-1.7279,-1.7279,-1.7279,-1.7279,-1.7279,-1.7279,-1.7279,-1.7279,-1.7279,-1.7279,-1.7279,-1.7113,-1.6979,-1.6979,-1.6508,-1.617,-1.5974,-1.5825,-1.5784,-1.5784,-1.5784,-1.5784,-1.5784,-1.5784,-1.5784,-1.5784,-1.5784,-1.5784,-1.5784,0.0,0.0,0.0,0.0,0.0,0.0,0.0,0.0,0.0,0.0,0.0,0.0,0.0,0.0,0.0,0.0,0.0,0.0,0.0,0.0,-3.1003,-3.1961,0.0,0.0,0.0,0.0,0.0,0.0,0.0,-3.1366,-3.1061,-3.0757,-3.0598,-3.0598,-3.0598,-3.0417,-3.0068,-2.9747,-2.917,-2.8454,-2.7769,-2.7284,-2.6939,-2.6624,-2.6499,-2.6452,-2.6154,0.0,0.0,0.0,0.0,0.0,0.0,0.0,-2.0605,-2.0605,-2.0605,-2.0605,-2.0605,-2.0605,-2.0762,-2.1387,-2.1688,-2.1825,-2.1745,-2.1329,-2.1105,-2.1596,-2.173,-2.1552,-2.1051,-2.0602,-2.015,-1.9604,-1.8742,-1.8064,-1.8064,-1.7652,-1.7279,-1.7279,-1.7279,-1.7279,-1.7279,-1.7279,-1.7279,-1.7279,-1.7279,-1.7279,-1.7279,-1.7279,-1.7279,-1.7279,-1.7279,-1.7279,-1.7279,-1.7279,-1.7279,-1.7279,-1.6965,-1.669,-1.6407,-1.6272,-1.6028,-1.5784,-1.5784,-1.5784,-1.5784,-1.5784,-1.5784,-1.5784,-1.5784,-1.5784,-1.5784,-1.5784,-1.5784,-1.5784,0.0,0.0,0.0,0.0,0.0,0.0,0.0,0.0,0.0,0.0,0.0,0.0,0.0,0.0,0.0,0.0,0.0,0.0,0.0,-3.0714,-3.1221,-3.2263,0.0,0.0,0.0,0.0,0.0,0.0,-3.1409,-3.1206,-3.0901,-3.0714,-3.0598,-3.0598,-3.0598,-3.0598,-3.0568,-3.0007,-2.9716,-2.9498,-2.8182,-2.7604,-2.7417,-2.6748,-2.6499,-2.6465,-2.605,-2.591,-2.5606,-2.3793,0.0,0.0,0.0,0.0,-2.0605,-2.0605,-2.0605,-2.0605,-2.0605,-2.0664,-2.0918,-2.1689,-2.1513,-2.1165,-2.1372,-2.0692,-1.9914,-1.9733,-1.996,-2.0141,-2.0014,-1.933,-1.875,-1.8565,-1.7831,-1.7279,-1.7279,-1.7279,-1.7279,-1.7279,-1.7279,-1.7279,-1.7279,-1.7279,-1.7279,-1.7279,-1.7279,-1.7279,-1.7279,-1.7279,-1.7279,-1.7279,-1.7279,-1.7279,-1.7279,-1.7279,-1.7279,-1.7279,-1.6817,-1.6305,-1.5832,-1.6028,-1.6028,-1.5784,-1.5784,-1.5784,-1.5784,-1.5784,-1.5784,-1.5784,-1.5784,-1.5784,-1.5784,-1.5784,-1.5784,-1.5784,0.0,0.0,0.0,0.0,0.0,0.0,0.0,0.0,0.0,0.0,-3.0598,-3.0598,-3.0598,-3.0598,0.0,0.0,0.0,0.0,-3.0598,0.0,0.0,0.0,0.0,0.0,0.0,0.0,0.0,0.0,-3.0974,-3.1235,-3.2237,-3.1105,-3.0598,-3.0598,-3.0598,-3.0598,-3.0598,-3.0507,-3.0129,-2.9529,-2.8698,-2.8019,-2.7417,-2.6748,-2.6499,-2.6465,-2.605,-2.591,-2.5688,-2.4373,-2.3537,0.0,0.0,0.0,-2.0605,-2.0605,-2.0605,-2.0605,-2.0605,-2.085,-2.1269,-2.1768,-2.1513,-2.0991,-2.0515,-1.965,-1.8742,-1.7878,-1.901,-1.996,-1.9155,-1.888,-1.8511,-1.7645,-1.7372,-1.7279,-1.7279,-1.7279,-1.7279,-1.7279,-1.7279,-1.7279,-1.7279,-1.7279,-1.7279,-1.7279,-1.7279,-1.7279,-1.7279,-1.7279,-1.7279,-1.7279,-1.7279,-1.7279,-1.7279,-1.7279,-1.7279,-1.7279,-1.6817,-1.6305,-1.5784,-1.5832,-1.5832,-1.5784,-1.5784,-1.5784,-1.5784,-1.5784,-1.5784,-1.5784,-1.5784,-1.5784,-1.5784,-1.5784,-1.5784,-1.5784,0.0,0.0,0.0,0.0,0.0,0.0,0.0,0.0,0.0,0.0,0.0,-3.0598,-3.0598,-3.0598,0.0,0.0,0.0,0.0,-3.0598,-3.0843,0.0,0.0,0.0,0.0,0.0,0.0,0.0,-3.0988,-3.0743,-3.0903,-3.1424,-3.1206,-3.1293,-3.1627,-3.0932,-3.0598,-3.0598,-3.0598,-3.0447,-3.004,-2.8612,-2.8079,-2.7913,-2.6501,-2.621,-2.6465,-2.605,-2.591,-2.5723,-2.4528,-2.361,-2.2883,-2.2059,0.0,0.0,0.0,-2.0605,-2.0605,-2.0605,-2.0752,-2.0838,-2.0778,-2.034,-1.9783,-1.9259,-1.8508,-1.7831,-1.7372,-1.7963,-1.8465,-1.8056,-1.7971,-1.7831,-1.7372,-1.7279,-1.7279,-1.7279,-1.7279,-1.7279,-1.7279,-1.7279,-1.7279,-1.7279,-1.7279,-1.7279,-1.7279,-1.7279,-1.7279,-1.7279,-1.7279,-1.7279,-1.7279,-1.7279,-1.7279,-1.7279,-1.7279,-1.7192,-1.6911,-1.6676,-1.6305,-1.5784,-1.5784,-1.5784,-1.5784,-1.5784,-1.5784,-1.5784,-1.5784,-1.5784,-1.5784,-1.5784,-1.5784,-1.5784,-1.5784,-1.5784,-1.5784,0.0,0.0,0.0,0.0,0.0,0.0,0.0,0.0,0.0,0.0,0.0,0.0,-3.0598,0.0,0.0,0.0,0.0,0.0,-3.0598,0.0,0.0,0.0,0.0,0.0,0.0,0.0,-3.1047,-3.0598,-3.0598,-3.0772,-3.1106,-3.1206,-3.1729,-3.2469,-3.1322,-3.0757,-3.0598,-3.0598,-3.0598,-3.0434,-2.8612,-2.813,-2.8309,-2.6506,-2.6122,-2.6465,-2.605,-2.591,-2.5758,-2.4743,-2.3902,-2.311,-2.2211,-2.1363,0.0,0.0,0.0,-2.0439,-2.0439,-2.0517,-2.0508,-2.0031,-1.9362,-1.8768,-1.8382,-1.7751,-1.7208,-1.7208,-1.7208,-1.7208,-1.7208,-1.7274,-1.7279,-1.7279,-1.7279,-1.7279,-1.7279,-1.7279,-1.7279,-1.7279,-1.7279,-1.7279,-1.7279,-1.7279,-1.7279,-1.7279,-1.7279,-1.7279,-1.7279,-1.7279,-1.7279,-1.7279,-1.7279,-1.7279,-1.7279,-1.7279,-1.7052,-1.6588,-1.6588,-1.6305,-1.5784,-1.5784,-1.5784,-1.5784,-1.5784,-1.5784,-1.5784,-1.5784,-1.5784,-1.5784,-1.5784,-1.5784,-1.5784,-1.5784,-1.5784,-1.5784,0.0,0.0,0.0,0.0,0.0,0.0,0.0,0.0,0.0,0.0,0.0,0.0,0.0,0.0,0.0,0.0,0.0,0.0,0.0,0.0,0.0,0.0,0.0,0.0,0.0,-3.0656,-3.0641,-3.0598,-3.0598,-3.1206,-3.2396,-3.1192,-3.1293,-3.2452,-3.1756,-3.1134,-3.0598,-3.0598,-3.0598,-3.0463,-2.9038,-2.8465,-2.8363,-2.6968,-2.6461,-2.6465,-2.605,-2.591,-2.584,-2.5382,-2.4719,-2.3847,-2.2653,-2.1726,-2.0847,0.0,0.0,0.0,-1.9951,-2.0254,-2.0508,-2.0031,-1.92,-1.849,-1.8326,-1.7575,-1.6925,-1.6925,-1.6925,-1.6925,-1.6925,-1.7128,-1.7279,-1.7279,-1.7279,-1.7279,-1.7279,-1.7279,-1.7279,-1.7279,-1.7279,-1.7279,-1.7279,-1.7279,-1.7279,-1.7279,-1.7279,-1.7279,-1.7279,-1.7279,-1.7279,-1.7279,-1.7279,-1.7279,-1.7279,-1.7279,-1.7052,-1.6588,-1.6588,-1.6305,-1.5784,-1.5784,-1.5784,-1.5784,-1.5784,-1.5784,-1.5784,-1.5784,-1.5784,-1.5784,-1.5784,-1.5784,-1.5784,-1.5784,-1.5784,-1.5784,0.0,0.0,0.0,0.0,0.0,0.0,0.0,0.0,0.0,0.0,0.0,0.0,0.0,-3.0598,-3.0598,-3.0598,0.0,0.0,0.0,0.0,0.0,0.0,0.0,0.0,0.0,-3.0598,-3.0598,-3.0598,-3.016,-3.042,-3.1264,-3.0759,-3.079,-3.1264,-3.1018,-3.0816,-3.0598,-3.0598,-3.0598,-3.0434,-2.8681,-2.8184,-2.8322,-2.6583,-2.607,-2.627,-2.598,-2.584,-2.5688,-2.5382,-2.4755,-2.3956,-2.3251,-2.2129,-2.088,-1.966,-1.958,-1.9853,-1.959,-2.0067,-2.0216,-1.8664,-1.8415,-1.8179,-1.7046,-1.6662,-1.6587,-1.6587,-1.6587,-1.6587,-1.6587,-1.6851,-1.7091,-1.725,-1.7279,-1.7279,-1.7279,-1.7279,-1.7279,-1.7279,-1.7279,-1.7279,-1.7279,-1.7279,-1.7279,-1.7279,-1.7279,-1.7279,-1.7279,-1.7279,-1.7279,-1.7279,-1.7279,-1.7279,-1.7279,-1.7153,-1.6925,-1.6588,-1.6454,-1.6163,-1.5784,-1.5784,-1.5784,-1.5784,-1.5784,-1.5784,-1.5784,-1.5784,-1.5784,-1.5784,-1.5784,-1.5784,-1.5784,-1.5784,-1.5784,-1.5784,0.0,0.0,0.0,0.0,0.0,0.0,0.0,0.0,0.0,-3.0598,0.0,0.0,0.0,0.0,-3.0598,-3.0598,-3.0598,0.0,0.0,0.0,0.0,0.0,0.0,0.0,0.0,-3.0387,-3.0251,-3.0251,-2.9577,-2.9453,-2.9901,-2.9859,-2.9971,-3.0251,-3.0251,-3.0387,-3.0598,-3.0598,-3.0598,-3.0478,-2.896,-2.8406,-2.8322,-2.6822,-2.6249,-2.627,-2.598,-2.5793,-2.5641,-2.5382,-2.4933,-2.434,-2.3456,-2.1883,-2.0195,-1.914,-1.9258,-1.9609,-1.918,-1.9805,-2.0139,-1.8285,-1.828,-1.8334,-1.6715,-1.6528,-1.6592,-1.6301,-1.6213,-1.6213,-1.6213,-1.6396,-1.6674,-1.7099,-1.712,-1.7099,-1.7279,-1.7239,-1.7239,-1.7286,-1.7279,-1.7279,-1.7279,-1.7279,-1.7279,-1.7279,-1.7279,-1.7279,-1.7279,-1.7279,-1.7279,-1.7279,-1.7279,-1.7286,-1.72,-1.7073,-1.6838,-1.6447,-1.6272,-1.6076,-1.5784,-1.5784,-1.5784,-1.5784,-1.5784,-1.5784,-1.5784,-1.5784,-1.5784,-1.5784,-1.5784,-1.5784,-1.5784,-1.5784,-1.5784,-1.5784,0.0,0.0,0.0,0.0,0.0,0.0,0.0,0.0,-3.0598,-3.0598,0.0,0.0,0.0,0.0,0.0,-3.0598,-3.0598,-3.0598,-3.0598,-3.0598,0.0,0.0,0.0,0.0,-3.0598,-2.9931,-2.9591,-2.9591,-2.8826,-2.8492,-2.8492,-2.8492,-2.8857,-2.956,-2.956,-2.9931,-3.0539,-3.0598,-3.0598,-3.0538,-2.987,-2.9156,-2.8427,-2.7769,-2.7061,-2.643,-2.605,-2.591,-2.584,-2.543,-2.5312,-2.5014,-2.3258,-2.1018,-1.8911,-1.8236,-1.8613,-1.9189,0.0,0.0,0.0,-1.8923,-1.8942,-1.8905,-1.7546,-1.7207,-1.6969,-1.6106,-1.5942,-1.5899,-1.5899,-1.5913,-1.6118,-1.6785,-1.6743,-1.6763,-1.7232,-1.7106,-1.7066,-1.7286,-1.7279,-1.7279,-1.7279,-1.7279,-1.7279,-1.7279,-1.7279,-1.7279,-1.7279,-1.7279,-1.7279,-1.7279,-1.7279,-1.72,-1.6979,-1.6979,-1.6697,-1.6224,-1.6177,-1.6028,-1.5784,-1.5784,-1.5784,-1.5784,-1.5784,-1.5784,-1.5784,-1.5784,-1.5784,-1.5784,-1.5784,-1.5784,-1.5784,-1.5784,-1.5784,-1.5784,0.0,0.0,0.0,0.0,0.0,-3.0598,-3.0598,-3.0598,-3.0598,0.0,0.0,0.0,-3.0598,-3.0598,-3.0598,-3.0598,-3.0598,-3.0598,-3.0598,-3.0598,-3.0598,-3.0598,-3.0598,-3.0598,-3.0598,-2.9931,-2.9591,-2.9591,-2.839,-2.8019,-2.8492,-2.7986,-2.8149,-2.8794,-2.8794,-2.8938,-2.9201,-3.0185,-3.0598,-3.0538,-2.987,-2.9156,-2.8427,-2.7769,-2.7007,-2.627,-2.6166,-2.5945,-2.5688,-2.5535,-2.5418,-2.5014,-2.3258,-2.1364,-1.9639,-1.8921,-1.8989,-1.9121,-1.8389,0.0,0.0,0.0,0.0,0.0,-1.7944,-1.7785,-1.754,-1.6651,-1.6485,-1.6285,-1.5639,-1.5582,-1.5814,-1.6433,-1.6686,-1.6931,-1.725,-1.7239,-1.7239,-1.7279,-1.7279,-1.7279,-1.7279,-1.7279,-1.7279,-1.7279,-1.7279,-1.7279,-1.7279,-1.7279,-1.7279,-1.7279,-1.7153,-1.7066,-1.6979,-1.6602,-1.6366,-1.6224,-1.5981,-1.5879,-1.5784,-1.5784,-1.5784,-1.5784,-1.5784,-1.5784,-1.5784,-1.5784,-1.5784,-1.5784,-1.5784,-1.5784,-1.5784,-1.5784,-1.5784,-1.5784,0.0,0.0,0.0,0.0,0.0,-3.0598,-3.0598,-3.0598,-3.0598,0.0,0.0,0.0,-3.0598,-3.0598,-3.0598,-3.0598,-3.0598,-3.0598,-3.0598,-3.0598,-3.0598,-3.0598,-3.0312,-3.019,-3.019,-2.9219,-2.8712,-2.8712,-2.7617,-2.7297,-2.767,-2.7263,-2.7451,-2.8084,-2.8084,-2.8251,-2.8626,-2.9378,-2.9897,-3.016,-2.9992,-2.9499,-2.876,-2.8092,-2.7353,-2.6617,-2.6323,-2.5992,-2.5723,-2.5641,-2.5308,-2.4692,-2.32,-2.1991,-2.0908,-1.9414,-1.9386,-1.9553,-1.8527,-1.9072,-1.9692,-1.8777,0.0,0.0,-1.8385,-1.8241,-1.802,-1.7105,-1.6802,-1.6466,-1.5725,-1.5545,-1.564,-1.6126,-1.6492,-1.6813,-1.722,-1.7239,-1.7192,-1.7286,-1.7279,-1.7279,-1.7279,-1.7279,-1.7279,-1.7279,-1.7279,-1.7286,-1.72,-1.7153,-1.7153,-1.7153,-1.6972,-1.6831,-1.6831,-1.6407,-1.6123,-1.6028,-1.5879,-1.5784,-1.5784,-1.5784,-1.5784,-1.5784,-1.5784,-1.5784,-1.5784,-1.5784,-1.5784,-1.5784,-1.5784,-1.5784,-1.5784,-1.5784,-1.5784,-1.5784,0.0,0.0,-3.125,-3.0786,-3.0641,-3.0598,-3.0598,-3.0598,-3.0598,0.0,-3.0598,-3.0598,-3.0598,-3.0598,-3.0598,-3.0598,-3.0598,-3.0598,-3.0598,-3.0598,-3.0598,-3.0598,-2.9962,-2.9591,-2.9591,-2.8228,-2.7517,-2.7517,-2.685,-2.6499,-2.6499,-2.6499,-2.6816,-2.7384,-2.7384,-2.7729,-2.8268,-2.8368,-2.8765,-2.9432,-3.0045,-2.983,-2.9121,-2.8605,-2.7965,-2.7318,-2.6666,-2.6233,-2.5949,-2.5665,-2.5114,-2.4332,-2.3233,-2.2821,-2.2286,-2.0056,-1.9972,-2.0318,-1.9127,-1.9333,-1.9824,-1.9453,-1.9639,0.0,-1.8982,-1.8828,-1.8563,-1.7614,-1.7202,-1.6802,-1.6094,-1.5747,-1.5617,-1.5862,-1.614,-1.6543,-1.7186,-1.7131,-1.7113,-1.7279,-1.7279,-1.7279,-1.7279,-1.7279,-1.7286,-1.7286,-1.7239,-1.7153,-1.6979,-1.6979,-1.6979,-1.6979,-1.6683,-1.6541,-1.6541,-1.6312,-1.6028,-1.5784,-1.5784,-1.5784,-1.5784,-1.5784,-1.5784,-1.5784,-1.5784,-1.5784,-1.5784,-1.5784,-1.5784,-1.5784,-1.5784,-1.5784,-1.5784,-1.5784,-1.5784,-1.5784,0.0,-3.1032,-3.0872,-3.1264,-3.0916,-3.0598,-3.0598,-3.0598,-3.0598,-3.0598,-3.0598,-3.0598,-3.0598,-3.0598,-3.0598,-3.0598,-3.0598,0.0,0.0,-3.0598,-3.0598,-3.0598,-2.9962,-2.9591,-2.9591,-2.8228,-2.7517,-2.7517,-2.685,-2.6499,-2.6499,-2.6499,-2.6555,-2.6679,-2.6679,-2.6783,-2.6915,-2.7473,-2.7828,-2.8071,-2.9108,-2.9087,-2.851,-2.8843,-2.852,-2.7934,-2.7784,-2.722,-2.6417,-2.5646,-2.5068,-2.4677,-2.4261,-2.3474,-2.2593,-2.2117,-2.1496,-2.0845,-2.0293,-2.0025,-1.9893,-1.9814,-1.9853,0.0,-2.0159,-2.0198,-1.9973,-1.9056,-1.882,-1.8345,-1.6835,-1.6507,-1.6337,-1.594,-1.5965,-1.6228,-1.6903,-1.7125,-1.7239,-1.7279,-1.7279,-1.7279,-1.7279,-1.7279,-1.7239,-1.7066,-1.6871,-1.6723,-1.6683,-1.6683,-1.6683,-1.6683,-1.6407,-1.6265,-1.6265,-1.6021,-1.5832,-1.5784,-1.5784,-1.5784,-1.5784,-1.5784,-1.5784,-1.5784,-1.5784,-1.5784,-1.5784,-1.5784,-1.5784,-1.5784,-1.5784,-1.5784,-1.5784,-1.5784,-1.5784,-1.5784,-3.0988,-3.083,-3.0714,-3.0988,-3.0816,-3.0598,-3.0598,-3.0598,-3.0714,-3.1003,-3.1047,-3.0916,-3.0641,-3.0598,-3.0598,-3.0598,-3.0598,0.0,-3.0598,-3.0598,-3.0447,-3.0129,-2.9421,-2.8903,-2.8551,-2.7517,-2.7007,-2.7007,-2.6658,-2.6499,-2.6499,-2.6499,-2.6499,-2.6499,-2.6499,-2.6493,-2.6483,-2.6537,-2.6736,-2.717,-2.8635,-2.8995,-2.8725,-2.8916,-2.8794,-2.8473,-2.821,-2.7679,-2.6919,-2.5695,-2.5382,-2.5285,-2.4432,-2.4075,-2.3815,-2.2959,-2.2521,-2.2063,-2.1083,-2.0651,-2.0477,-2.029,-2.0078,0.0,0.0,-2.0439,-2.0188,-1.9891,-1.9546,-1.9012,-1.8071,-1.726,-1.6598,-1.6327,-1.6052,-1.6023,-1.6338,-1.6791,-1.7091,-1.7091,-1.723,-1.7279,-1.7279,-1.7279,-1.72,-1.7026,-1.673,-1.6541,-1.6407,-1.6407,-1.6407,-1.6407,-1.6123,-1.6076,-1.6224,-1.5927,-1.5784,-1.5784,-1.5784,-1.5784,-1.5784,-1.5784,-1.5784,-1.5784,-1.5784,-1.5784,-1.5784,-1.5784,-1.5784,-1.5784,-1.5784,-1.5784,-1.5784,-1.5784,-1.5784,-1.5784,-3.0598,-3.0598,-3.0598,-3.0598,-3.0598,-3.0598,-3.0598,-3.0598,-3.083,-3.1438,-3.1495,-3.1366,-3.0988,-3.099,-3.1033,-3.115,-3.0932,-3.0845,-3.0975,-3.0622,-3.016,-2.9623,-2.8762,-2.8051,-2.7517,-2.685,-2.6499,-2.6499,-2.6499,-2.6499,-2.6499,-2.6499,-2.6499,-2.6499,-2.6499,-2.6499,-2.6461,-2.5871,-2.6021,-2.676,-2.8184,-2.8692,-2.8608,-2.8773,-2.8787,-2.8612,-2.8238,-2.7891,-2.7434,-2.5961,-2.5781,-2.5937,-2.4528,-2.4638,-2.5026,-2.3617,-2.3387,-2.3335,-2.203,-2.1528,-2.1264,-2.0913,-2.0477,-2.0234,0.0,0.0,0.0,-2.0391,-1.9953,-1.9454,-1.9171,-1.8011,-1.7025,-1.6968,-1.6365,-1.5957,-1.6059,-1.6441,-1.6741,-1.68,-1.704,-1.7238,-1.7238,-1.7191,-1.708,-1.6925,-1.6633,-1.6337,-1.6123,-1.6123,-1.6123,-1.6123,-1.5927,-1.5879,-1.6123,-1.5927,-1.5784,-1.5784,-1.5784,-1.5784,-1.5784,-1.5784,-1.5784,-1.5784,-1.5784,-1.5784,-1.5784,-1.5784,-1.5784,-1.5784,-1.5784,-1.5784,-1.5784,-1.5784,-1.5784,-1.5784,-3.0598,-3.0598,-3.0598,-3.0598,-3.0598,-3.0598,-3.0598,-3.0598,-3.083,-3.1438,-3.1495,-3.1683,-3.2237,-3.2263,-3.2527,-3.3126,-3.2077,-3.1656,-3.2266,-3.0666,-2.9685,-2.9591,-2.8325,-2.7571,-2.7517,-2.685,-2.6499,-2.6499,-2.6499,-2.6499,-2.6499,-2.6499,-2.6499,-2.6499,-2.6499,-2.6499,-2.6461,-2.5871,-2.6214,-2.7241,-2.7425,-2.7208,-2.6943,-2.8138,-2.8325,-2.794,-2.7998,-2.8107,-2.7986,-2.6517,-2.6166,-2.6214,-2.5371,-2.5216,-2.5252,-2.505,-2.4542,-2.3992,-2.3811,-2.3026,-2.2144,-2.1772,-2.1359,-2.0947,-2.0683,0.0,-2.0527,-2.0566,0.0,-2.0196,-1.9412,0.0,0.0,-1.7897,-1.6838,-1.6219,-1.655,-1.6284,-1.6118,-1.6433,-1.6756,-1.6954,-1.6954,-1.6733,-1.6625,-1.6662,-1.6104,-1.5791,-1.5818,-1.5832,-1.5832,-1.5832,-1.5832,-1.5832,-1.5832,-1.5832,-1.5784,-1.5784,-1.5784,-1.5784,-1.5784,-1.5784,-1.5784,-1.5784,-1.5784,-1.5784,-1.5784,-1.5784,-1.5784,-1.5784,-1.5784,-1.5784,-1.5784,-1.5784,-1.5784,-1.5784,-3.0447,-3.0598,-3.0598,-3.0598,-3.0872,-3.0988,-3.0656,-3.1556,-3.2109,-3.1584,-3.2466,-3.3166,-3.3079,-3.3064,-3.3198,-3.3474,-3.2575,-3.1785,-3.1376,-3.0136,-2.9099,-2.8403,-2.7802,-2.7317,-2.6939,-2.6658,-2.6499,-2.6499,-2.6499,-2.6499,0.0,0.0,-2.6499,-2.6499,-2.6499,-2.6675,-2.6914,-2.5975,-2.6063,-2.6839,-2.6839,-2.6443,-2.6055,-2.8213,-2.8831,-2.853,-2.8507,-2.8502,-2.8382,-2.701,-2.6624,-2.6564,-2.5937,-2.5552,-2.5372,-2.5673,-2.5314,-2.4707,-2.4228,-2.3756,-2.3199,-2.238,-2.1847,-2.1428,-2.1056,-2.0752,-2.0674,-2.0898,0.0,0.0,0.0,0.0,0.0,0.0,-1.7869,-1.7097,-1.6756,-1.6503,-1.6323,-1.611,-1.6426,-1.6617,-1.6617,-1.6528,-1.6465,-1.6302,-1.6092,-1.594,-1.5825,-1.5784,-1.5784,-1.5784,-1.5784,-1.5784,-1.5784,-1.5784,-1.5784,-1.5784,-1.5784,-1.5784,-1.5784,-1.5784,-1.5784,-1.5784,-1.5784,-1.5784,-1.5784,-1.5784,-1.5784,-1.5784,-1.5784,-1.5784,-1.5784,-1.5784,-1.5784,-1.5784,-2.9825,-3.0023,-3.0023,-3.0023,-3.0394,-3.0563,-3.0292,-3.1625,-3.2378,-3.1518,-3.2811,-3.3709,-3.3377,-3.3343,-3.3471,-3.3793,-3.2982,-3.2083,-3.1227,-2.997,-2.8837,-2.7968,-2.7486,-2.7083,-2.6713,-2.6575,-2.6499,-2.6499,-2.6499,-2.6499,0.0,0.0,-2.6499,-2.6499,-2.6499,-2.6766,-2.716,-2.6149,-2.6236,-2.6976,-2.6826,-2.6561,-2.6436,-2.815,-2.886,-2.8934,-2.8776,-2.8724,-2.8552,-2.749,-2.7114,-2.7018,-2.6502,-2.6057,-2.5829,-2.6214,-2.6057,-2.5577,-2.4846,-2.4576,-2.426,-2.3155,-2.2569,-2.213,-2.15,-2.1233,-2.1065,-2.1045,-2.0889,0.0,0.0,0.0,-1.9526,-1.9638,0.0,-1.8006,-1.7496,-1.7229,-1.6719,-1.5873,-1.606,-1.6323,-1.6404,-1.6452,-1.6318,-1.5994,-1.6026,-1.5959,-1.5705,-1.5712,-1.5698,-1.5778,-1.5784,-1.5784,-1.5784,-1.5784,-1.5784,-1.5784,-1.5784,-1.5784,-1.5784,-1.5784,-1.5784,-1.5784,-1.5784,-1.5784,-1.5784,-1.5784,-1.5784,-1.5784,-1.5784,-1.5784,-1.5784,-1.5784,-1.5784,-1.5784,-2.8556,-2.8556,-2.8556,-2.8556,-2.857,-2.8774,-2.9265,-3.0053,-3.0708,-3.1058,-3.1854,-3.25,-3.2904,-3.2915,-3.3376,-3.457,-3.3517,-3.279,-3.281,-3.0483,-2.9086,-2.9073,-2.7423,-2.6773,-2.7278,-2.6763,-2.6499,-2.6499,-2.6499,-2.6499,0.0,0.0,0.0,0.0,-2.6499,-2.6709,-2.6984,-2.6352,-2.6927,-2.8209,-2.768,-2.796,-2.856,-2.7648,-2.7787,-2.851,-2.851,-2.851,-2.8426,-2.7846,-2.7654,-2.757,-2.7042,-2.6861,-2.6849,-2.6861,-2.6861,-2.6729,-2.6177,-2.581,-2.5306,-2.4311,-2.3806,-2.3242,-2.2032,-2.2051,-2.2012,-2.0869,-2.0918,-2.1084,-2.0703,-2.0196,-2.003,-2.0498,-1.9437,0.0,0.0,-1.8487,-1.7318,-1.5604,-1.5688,-1.6045,-1.6382,-1.6382,-1.6212,-1.5768,-1.5693,-1.5646,-1.5444,-1.5411,-1.5538,-1.5771,-1.5784,-1.5784,-1.5784,-1.5784,-1.5784,-1.5784,-1.5784,-1.5784,-1.5784,-1.5784,-1.5784,-1.5784,-1.5784,-1.5784,-1.5784,-1.5784,-1.5784,-1.5784,-1.5784,-1.5784,-1.5784,-1.5784,-1.5784,-1.5784,-2.7196,-2.7196,-2.7451,-2.833,-2.8864,-2.9339,-2.9869,-3.087,-3.1596,-3.1685,-3.2664,-3.3543,-3.4043,-3.4086,-3.4262,-3.4668,-3.3806,-3.2921,-3.218,-3.0519,-2.9401,-2.897,-2.8079,-2.7469,-2.7281,-2.714,-2.6864,-2.6499,-2.6499,-2.6499,0.0,0.0,0.0,0.0,-2.6499,-2.6874,-2.7494,-2.6935,-2.7112,-2.7741,-2.742,-2.7905,-2.8767,-2.827,-2.8237,-2.851,-2.851,-2.851,-2.8486,-2.8306,-2.7978,-2.7714,-2.7882,-2.745,-2.697,-2.7318,-2.7174,-2.6777,-2.625,-2.6005,-2.5638,-2.4401,-2.4027,-2.3713,-2.2804,-2.2939,-2.2913,-2.1668,-2.1761,-2.1797,-2.08,-2.0488,-2.0429,-2.0576,-2.0207,-1.9771,0.0,-1.8567,-1.7553,-1.6386,-1.5845,-1.5593,-1.5738,-1.5813,-1.5712,-1.54,-1.5413,-1.5349,-1.5149,-1.5291,-1.5438,-1.5538,-1.5732,-1.5784,-1.5784,-1.5784,-1.5784,-1.5784,-1.5784,-1.5784,-1.5784,-1.5784,-1.5784,-1.5784,-1.5784,-1.5784,-1.5784,-1.5784,-1.5784,-1.5784,-1.5784,-1.5784,-1.5784,-1.5784,-1.5784,-1.5784,-2.6826,-2.6788,-2.6989,-2.7676,-2.8291,-2.8887,-2.9434,-3.0743,-3.1643,-3.1534,-3.2636,-3.3526,-3.3793,-3.3819,-3.3911,-3.4123,-3.3658,-3.2838,-3.1679,-3.0797,-3.0118,-2.9515,-2.88,-2.8323,-2.8172,-2.7595,-2.714,-2.6788,-2.6587,-2.6499,0.0,0.0,0.0,0.0,-2.6499,-2.6939,-2.7656,-2.731,-2.7434,-2.7832,-2.773,-2.8091,-2.8685,-2.855,-2.851,-2.851,-2.851,-2.851,-2.851,-2.851,-2.8282,-2.8026,-2.8402,-2.8041,-2.7486,-2.763,-2.7438,-2.7018,-2.6298,-2.6093,-2.5852,-2.4801,-2.4528,-2.4348,-2.3573,-2.3757,-2.3786,-2.2685,-2.2513,-2.2311,-2.1628,-2.1006,-2.0654,-2.0781,0.0,-2.0411,0.0,-1.9006,-1.8238,-1.7674,-1.6591,-1.5748,-1.5423,-1.5596,-1.5555,-1.5177,-1.5234,-1.5188,-1.4987,-1.5129,-1.5291,-1.5391,-1.5678,-1.5784,-1.5784,-1.5784,-1.5784,-1.5784,-1.5784,-1.5784,-1.5784,-1.5784,-1.5784,-1.5784,-1.5784,-1.5784,-1.5784,-1.5784,-1.5784,-1.5784,-1.5784,-1.5784,-1.5784,-1.5784,-1.5784,-1.5784,-2.7469,-2.7369,-2.7241,-2.6713,-2.7027,-2.7507,-2.8059,-2.9687,-3.0802,-3.0649,-3.1766,-3.2467,-3.2273,-3.2252,-3.2478,-3.3074,-3.3124,-3.2616,-3.1537,-3.1449,-3.121,-3.0721,-2.9602,-2.9289,-2.9779,-2.8197,-2.7344,-2.7281,-2.6763,-2.6499,0.0,0.0,0.0,0.0,-2.6499,-2.6856,-2.7483,-2.7483,-2.7881,-2.851,-2.851,-2.851,-2.851,-2.851,-2.851,-2.851,-2.851,-2.851,-2.851,-2.851,-2.851,-2.851,-2.851,-2.8498,-2.8378,-2.7834,-2.7666,-2.7414,-2.6382,-2.6093,-2.5973,-2.5444,-2.5312,-2.5087,-2.4337,-2.451,-2.4641,-2.3879,-2.3062,-2.2615,-2.3038,-2.1758,-2.0732,-2.1093,0.0,-2.0605,-2.0605,-1.9893,-1.9341,-1.9301,-1.7836,-1.646,-1.5548,-1.5709,-1.5632,-1.5111,-1.5142,-1.5102,-1.4856,-1.4974,-1.5135,-1.5364,-1.5671,-1.5784,-1.5784,-1.5784,-1.5784,-1.5784,-1.5784,-1.5784,-1.5784,-1.5784,-1.5784,-1.5784,-1.5784,-1.5784,-1.5784,-1.5784,-1.5784,-1.5784,-1.5784,-1.5784,-1.5784,-1.5784,-1.5784,-1.5784,-2.8536,-2.8511,-2.8461,-2.8323,-2.8072,-2.8084,-2.8599,-2.9492,-3.034,-3.1113,-3.1814,-3.2465,-3.2835,-3.2855,-3.2918,-3.3111,-3.3124,-3.2998,-3.2667,-3.224,-3.1938,-3.1813,-3.1135,-3.0457,-2.9804,-2.895,-2.8109,-2.7281,-2.6763,-2.6499,-2.6499,0.0,0.0,0.0,-2.6339,-2.6726,-2.7483,-2.7322,-2.7754,-2.851,-2.851,-2.851,-2.851,-2.851,-2.851,-2.851,-2.851,-2.851,-2.851,-2.851,-2.851,-2.851,-2.851,-2.8246,-2.7897,-2.7726,-2.7402,-2.6946,-2.6286,-2.6093,-2.5973,-2.5444,-2.5312,-2.5241,-2.504,-2.5384,-2.5414,-2.4237,-2.3941,-2.3542,-2.2376,-2.1558,-2.0986,-2.0771,-2.0674,-2.0605,-2.0605,-2.0401,-2.001,-1.9381,-1.8895,-1.8046,-1.6501,-1.5732,-1.5175,-1.4831,-1.4811,-1.4698,-1.4329,-1.4909,-1.5176,-1.5115,-1.5565,-1.5784,-1.5784,-1.5784,-1.5784,-1.5784,-1.5784,-1.5784,-1.5784,-1.5784,-1.5784,-1.5784,-1.5784,-1.5784,-1.5784,-1.5784,-1.5784,-1.5784,-1.5784,-1.5784,-1.5784,-1.5784,-1.5784,-1.5784,-2.9038,-2.9101,-2.939,-2.9577,-2.9402,-2.9227,-2.9289,-2.9792,-3.0444,-3.1286,-3.1863,-3.234,-3.2667,-3.2918,-3.3124,-3.3124,-3.3124,-3.2968,-3.2717,-3.2629,-3.2478,-3.2227,-3.1913,-3.1474,-3.0859,-2.9842,-2.8875,-2.7996,-2.7241,-2.6738,-2.6499,0.0,0.0,0.0,-2.6305,-2.6532,-2.7164,-2.7331,-2.7818,-2.851,-2.851,-2.851,0.0,-2.851,-2.851,-2.851,-2.851,-2.851,-2.851,-2.851,-2.851,-2.851,-2.851,-2.8306,-2.7981,-2.7474,-2.7138,-2.6729,-2.5961,-2.5745,-2.5685,-2.5384,-2.5312,-2.5312,-2.5312,-2.554,-2.5505,-2.4647,-2.4093,-2.3567,-2.2793,-2.1729,-2.0859,-2.0644,-2.0605,-2.0605,-2.0605,-2.0605,-2.0411,-1.9932,-1.9539,-1.8895,-1.7917,-1.6509,-1.5492,-1.5041,-1.4734,-1.4531,-1.437,-1.4862,-1.5098,-1.5008,-1.5524,-1.5784,-1.5784,-1.5784,-1.5718,-1.5645,-1.5645,-1.5645,-1.5645,-1.5645,-1.5712,-1.5784,-1.5784,-1.5784,-1.5784,-1.5784,-1.5784,-1.5784,-1.5784,-1.5784,-1.5784,-1.5784,-1.5784,-1.5784,-2.9553,-2.9716,-3.0244,-3.0645,-3.0721,-3.0583,-3.0168,-3.0457,-3.0909,-3.1424,-3.1976,-3.2328,-3.2328,-3.278,-3.3124,-3.3124,-3.3124,-3.2867,-3.2353,-3.2805,-3.2855,-3.2353,-3.2328,-3.229,-3.2215,-3.0696,-2.9578,-2.8888,-2.7821,-2.704,-2.6499,0.0,0.0,-2.6499,-2.627,-2.636,-2.6785,-2.741,-2.8029,-2.851,-2.851,-2.851,-2.851,-2.851,-2.851,-2.851,-2.851,-2.851,-2.851,-2.851,-2.851,-2.851,-2.851,-2.8462,-2.8222,-2.727,-2.6958,-2.6669,-2.5685,-2.5408,-2.5396,-2.5324,-2.5312,-2.5312,-2.5312,-2.5312,-2.5218,-2.4867,-2.3884,-2.3188,-2.3491,-2.1939,-2.0605,-2.0605,-2.0605,-2.0605,-2.0605,-2.0605,-2.0605,-2.0605,-1.9932,0.0,-1.9301,-1.7642,-1.6278,-1.5541,-1.495,-1.4608,-1.4615,-1.4865,-1.4968,-1.5008,-1.5491,-1.5744,-1.5784,-1.5792,-1.5645,-1.5398,-1.5357,-1.5337,-1.5337,-1.5337,-1.5498,-1.5772,-1.5772,-1.5792,-1.5784,-1.5784,-1.5784,-1.5784,-1.5784,-1.5784,-1.5784,-1.5784,-1.5784,-1.5784,-3.111,-3.1399,-3.1675,-3.1323,-3.1248,-3.1373,-3.1738,-3.1486,-3.1449,-3.2001,-3.2566,-3.2918,-3.2918,-3.3061,-3.3124,-3.3124,-3.3124,-3.3074,-3.293,-3.3061,-3.3031,-3.293,-3.2918,-3.2704,-3.2227,-3.1072,-2.9967,-2.8888,-2.7821,-2.704,-2.6499,-2.6499,-2.6499,-2.6487,-2.6119,-2.6285,-2.6902,-2.7452,-2.8029,-2.851,-2.851,-2.851,-2.851,-2.851,-2.851,-2.851,-2.851,-2.851,-2.851,-2.851,-2.851,-2.851,-2.851,-2.821,-2.7786,-2.7633,-2.7234,-2.6753,-2.6142,-2.5961,-2.5853,-2.542,-2.5312,-2.5312,-2.5312,-2.5312,-2.5111,-2.438,-2.3832,-2.3226,-2.2331,-2.1287,-2.0605,-2.0605,-2.0605,-2.0605,-2.0605,-2.0605,-2.0605,-2.0605,-2.0489,-2.0089,-1.9381,-1.8175,-1.7041,-1.5966,-1.5842,-1.5311,-1.425,-1.4674,-1.4936,-1.5001,-1.5297,-1.5585,-1.5778,-1.5591,-1.5444,-1.5391,-1.5202,-1.5082,-1.5082,-1.5082,-1.5197,-1.5471,-1.5471,-1.5611,-1.5784,-1.5784,-1.5784,-1.5784,-1.5784,-1.5784,-1.5784,-1.5784,-1.5784,-1.5784,-3.2202,-3.2001,-3.1788,-3.1813,-3.1813,-3.1901,-3.2177,-3.224,-3.2252,-3.2215,-3.2453,-3.2629,-3.2629,-3.2893,-3.3124,-3.3124,-3.3124,-3.3124,-3.3124,-3.3124,-3.3124,-3.3124,-3.3124,-3.2943,-3.2667,-3.1863,-3.0771,-2.9377,-2.8549,-2.7534,-2.6339,-2.6339,-2.6292,-2.6188,-2.6158,-2.6445,-2.6934,-2.7462,-2.8029,-2.851,-2.851,-2.851,-2.851,-2.851,-2.851,-2.851,-2.851,-2.851,-2.851,-2.851,-2.851,-2.851,-2.851,-2.833,-2.8077,-2.7762,-2.7498,-2.7186,-2.6683,-2.6322,-2.6033,-2.5781,-2.5516,-2.5312,-2.5312,-2.5312,-2.5087,-2.4264,-2.3679,-2.2843,-2.1425,-2.1016,-2.084,-2.0644,-2.0605,-2.0605,-2.0605,-2.0605,-2.0605,-2.0605,-2.0605,-2.045,-2.001,-1.9411,-1.8247,-1.6337,-1.6,-1.5428,-1.4321,-1.4534,-1.4794,-1.4995,-1.5244,-1.5464,-1.5605,-1.5464,-1.5244,-1.4937,-1.4796,-1.4736,-1.4736,-1.4736,-1.4977,-1.5398,-1.5398,-1.5565,-1.5784,-1.5784,-1.5784,-1.5784,-1.5784,-1.5784,-1.5784,-1.5784,-1.5784,-1.5784,-3.2742,-3.2277,-3.1851,-3.2152,-3.2315,-3.239,-3.239,-3.278,-3.2918,-3.2453,-3.239,-3.239,-3.239,-3.2805,-3.3124,-3.3124,-3.3124,-3.3124,-3.3124,-3.3124,-3.3124,-3.3124,-3.3124,-3.3124,-3.3124,-3.2503,-3.1524,-3.0131,-2.9327,-2.81,-2.6536,-2.6313,-2.6124,-2.6024,-2.6298,-2.6663,-2.709,-2.751,-2.8029,-2.851,-2.851,-2.851,-2.8471,-2.8299,-2.8219,-2.8179,-2.8007,-2.8047,-2.8219,-2.8219,-2.8351,-2.851,-2.851,-2.851,-2.8426,-2.7978,-2.7885,-2.7738,-2.721,-2.6741,-2.6382,-2.6154,-2.5781,-2.5444,-2.5336,-2.5312,-2.5052,-2.4047,-2.3132,-2.2096,-2.0828,-2.0859,-2.0977,-2.0664,-2.0605,-2.0605,-2.0605,-2.0605,-2.0605,-2.0605,-2.0605,-2.0566,-2.0478,-2.0362,-1.9344,-1.6968,-1.6283,-1.5609,-1.4733,-1.4543,-1.4589,-1.4995,-1.5124,-1.5237,-1.5304,-1.5244,-1.4977,-1.4522,-1.4456,-1.4429,-1.4429,-1.4429,-1.475,-1.5304,-1.5304,-1.5504,-1.5784,-1.5784,-1.5784,-1.5784,-1.5784,-1.5784,-1.5784,-1.5784,-1.5784,-1.5784,-3.2378,-3.2629,-3.2767,-3.2303,-3.2641,-3.3006,-3.3006,-3.3043,-3.3056,-3.3006,-3.3006,-3.3006,-3.3006,-3.3086,-3.3124,-3.3124,-3.3124,-3.3124,-3.3124,-3.3124,-3.3124,-3.3124,-3.3124,-3.3124,-3.3124,-3.2503,-3.1888,-3.1235,-2.9691,-2.8475,-2.7617,-2.6661,-2.6239,-2.6335,-2.6384,-2.6868,-2.7618,-2.7666,-2.8029,-2.851,-2.851,-2.851,-2.8431,-2.7644,-2.7307,-2.7226,-2.637,-2.6588,-2.7307,-2.7307,-2.7846,-2.851,-2.851,-2.851,-2.8498,-2.845,-2.8438,-2.8318,-2.775,-2.757,-2.7332,-2.6346,-2.6057,-2.5901,-2.542,-2.5312,-2.4862,-2.339,-2.1869,-2.0789,-2.0644,-2.0635,-2.0654,-2.0615,-2.0605,-2.0605,-2.0605,-2.0605,-2.0605,-2.0605,-2.0605,-2.0449,-2.0019,-2.0188,-1.9693,-1.8211,-1.7344,-1.6529,-1.5718,-1.471,-1.4389,-1.4988,-1.473,-1.473,-1.5048,-1.4736,-1.4576,-1.4516,-1.4255,-1.4128,-1.4128,-1.4128,-1.4449,-1.5048,-1.5048,-1.5317,-1.5784,-1.5784,-1.5784,-1.5784,-1.5784,-1.5784,-1.5784,-1.5784,-1.5784,-1.5784,-3.278,-3.2641,-3.2591,-3.2717,-3.2641,-3.2792,-3.347,-3.3571,-3.3684,-3.4022,-3.3483,-3.3206,-3.3533,-3.3269,-3.3124,-3.3124,-3.3124,-3.3124,-3.3124,-3.3124,-3.3124,-3.3124,-3.3124,-3.3124,-3.3124,-3.2855,-3.229,-3.1386,-3.0419,-2.9363,-2.8325,-2.7421,-2.7054,-2.7229,-2.7857,-2.8337,-2.8691,-2.9003,-2.9076,-2.8939,-2.8386,-2.7994,-2.7644,-2.6712,-2.637,-2.6287,-2.5944,-2.6027,-2.637,-2.637,-2.7296,-2.851,-2.851,-2.851,-2.8391,-2.7886,-2.7725,-2.7545,-2.6759,-2.6737,-2.6738,-2.6001,-2.5965,-2.584,-2.4825,-2.4564,-2.4264,-2.3217,-2.2096,-2.1165,-2.0683,-2.0605,-2.0693,-2.0918,-2.0742,-2.0693,-2.0928,-2.0732,-2.0605,-2.0605,-2.0332,-2.0107,-1.9932,-1.9888,-1.9611,-1.8945,-1.7726,-1.6615,-1.5772,-1.4851,-1.4456,-1.4689,-1.4756,-1.4756,-1.4696,-1.4583,-1.4436,-1.4262,-1.4142,-1.4088,-1.4088,-1.4088,-1.4409,-1.5028,-1.5331,-1.5618,-1.5784,-1.5784,-1.5784,-1.5784,-1.5784,-1.5784,-1.5784,-1.5784,-1.5784,-1.5784,-3.3558,-3.3232,-3.3081,-3.3495,-3.3219,-3.3219,-3.4022,-3.4135,-3.4336,-3.4856,-3.401,-3.347,-3.3859,-3.3407,-3.3124,-3.3124,-3.3124,-3.3124,-3.3124,-3.3124,-3.3124,-3.3124,-3.3124,-3.3124,-3.3124,-3.3124,-3.2692,-3.1888,-3.1185,-3.0326,-2.9383,-2.837,-2.7861,-2.7763,-2.8537,-2.8775,-2.8677,-2.9051,-2.8993,-2.8612,-2.7969,-2.7462,-2.6896,-2.5953,-2.5529,-2.5368,-2.5115,-2.52,-2.5411,-2.5411,-2.6453,-2.7713,-2.7713,-2.7713,-2.7592,-2.6969,-2.6794,-2.6629,-2.5986,-2.6002,-2.6086,-2.5402,-2.5432,-2.5282,-2.405,-2.3793,-2.3573,-2.2798,-2.2021,-2.128,-2.0712,-2.0605,-2.0752,-2.1122,-2.0859,-2.0723,-2.1132,-2.085,-2.0605,-2.0605,-2.0293,-2.0021,-1.9819,-1.9735,-1.9449,-1.8954,-1.7757,-1.6751,-1.6129,-1.5276,-1.4681,-1.4516,-1.4643,-1.4603,-1.4396,-1.4396,-1.4289,-1.4088,-1.4088,-1.4088,-1.4095,-1.4269,-1.462,-1.5042,-1.5578,-1.5784,-1.5784,-1.5784,-1.5784,-1.5784,-1.5784,-1.5784,-1.5784,-1.5784,-1.5784,-1.5784,-3.4655,-3.4655,-3.4655,-3.47,-3.4655,-3.4655,-3.4668,-3.4668,-3.4868,-3.542,-3.4575,-3.3884,-3.3897,-3.3407,-3.3124,-3.3124,-3.3124,-3.3124,-3.3124,-3.3124,-3.3124,-3.3124,-3.3124,-3.3124,-3.3124,-3.3124,-3.3111,-3.3056,-3.1926,-3.1292,-3.1034,-2.9555,-2.8509,-2.7813,-2.7824,-2.7577,-2.7106,-2.7117,-2.7117,-2.7106,-2.7106,-2.6868,-2.6411,-2.5457,-2.4871,-2.4413,-2.3474,-2.3734,-2.4541,-2.4541,-2.5115,-2.5819,-2.5819,-2.5819,-2.5819,-2.583,-2.583,-2.5819,-2.5777,-2.5819,-2.559,-2.465,-2.441,-2.4187,-2.3213,-2.3032,-2.2809,-2.1983,-2.1165,-2.0605,-2.0605,-2.0605,-2.0752,-2.1122,-2.0859,-2.0723,-2.1132,-2.085,-2.0605,-2.0605,-2.0595,-2.0313,-1.9668,-1.9773,-1.9362,-1.8098,-1.7466,-1.708,-1.7072,-1.6023,-1.5134,-1.4509,-1.4249,-1.4095,-1.4088,-1.4088,-1.4088,-1.4088,-1.4088,-1.4088,-1.4108,-1.4733,-1.5001,-1.5042,-1.5578,-1.5784,-1.5784,-1.5784,-1.5784,-1.5784,-1.5784,-1.5784,-1.5784,-1.5784,-1.5784,-1.5784,-3.468,-3.468,-3.468,-3.468,-3.468,-3.4806,-3.5182,-3.5245,-3.5307,-3.547,-3.4868,-3.4462,-3.4462,-3.3633,-3.3124,-3.3124,-3.3124,-3.3124,-3.3124,-3.3124,-3.3124,-3.3124,-3.3124,-3.3124,-3.3124,-3.3124,-3.2754,-3.2077,-3.2008,-3.161,-3.0902,-3.0086,-2.9437,-2.8866,-2.8578,-2.8352,-2.8176,-2.8176,-2.7991,-2.7606,-2.6974,-2.6483,-2.5907,-2.4684,-2.4138,-2.3934,-2.333,-2.3309,-2.356,-2.356,-2.3734,-2.3983,-2.3983,-2.4819,-2.5694,-2.5073,-2.4904,-2.4787,-2.4145,-2.4445,-2.4767,-2.4084,-2.417,-2.4089,-2.2882,-2.1955,-2.128,-2.1011,-2.0789,-2.0605,-2.0605,-2.081,-2.1064,-2.1171,-2.1073,-2.1034,-2.1171,-2.085,-2.0488,-2.0156,-1.9873,-1.9564,-1.9216,-1.9107,-1.8702,-1.7851,-1.7923,-1.7438,-1.6202,-1.5483,-1.484,-1.4235,-1.4329,-1.4282,-1.4088,-1.4088,-1.4088,-1.4088,-1.4088,-1.4195,-1.4396,-1.4834,-1.5115,-1.5284,-1.5665,-1.5784,-1.5784,-1.5784,-1.5784,-1.5784,-1.5784,-1.5784,-1.5784,-1.5784,-1.5784,-1.5784,-3.5341,-3.5341,-3.5341,-3.5341,-3.5341,-3.5454,-3.5793,-3.5855,-3.5855,-3.5855,-3.5332,-3.4994,-3.4994,-3.4223,-3.3696,-3.3696,-3.3319,-3.3212,-3.337,-3.2878,-3.2537,-3.2537,-3.2537,-3.2351,-3.2033,-3.2351,-3.2077,-3.108,-3.122,-3.0896,-3.0135,-2.9815,-2.9285,-2.8562,-2.8261,-2.7945,-2.7579,-2.7579,-2.7364,-2.7009,-2.6468,-2.5969,-2.5452,-2.4595,-2.417,-2.3984,-2.3666,-2.3471,-2.3379,-2.3379,-2.3227,-2.3091,-2.3091,-2.3897,-2.4691,-2.4112,-2.3983,-2.3864,-2.3266,-2.3517,-2.3839,-2.3352,-2.3484,-2.3387,-2.2219,-2.1362,-2.0762,-2.0635,-2.0605,-2.0654,-2.0781,-2.1045,-2.1298,-2.1629,-2.1582,-2.1475,-2.1475,-2.1094,-2.0654,-2.0215,-1.9856,-1.9588,-1.9363,-1.9146,-1.8545,-1.7423,-1.7796,-1.7254,-1.5331,-1.5273,-1.4966,-1.4262,-1.4315,-1.4269,-1.4088,-1.4088,-1.4088,-1.4088,-1.4202,-1.4342,-1.4492,-1.4943,-1.5224,-1.5411,-1.5705,-1.5784,-1.5784,-1.5784,-1.5784,-1.5784,-1.5784,-1.5784,-1.5784,-1.5784,-1.5784,-1.5784,-3.6405,-3.6405,-3.6405,-3.6405,-3.6405,-3.6405,-3.6405,-3.6405,-3.6392,-3.6355,-3.5868,-3.5449,-3.5403,-3.4915,-3.4615,-3.4599,-3.369,-3.3264,-3.3689,-3.2378,-3.1588,-3.1552,-3.154,-3.1116,-3.0215,-3.108,-3.108,-3.0158,-2.9863,-2.9453,-2.9004,-2.8912,-2.8308,-2.7189,-2.7142,-2.66,-2.5693,-2.5693,-2.5693,-2.5693,-2.5693,-2.5488,-2.5165,-2.5125,-2.4814,-2.4453,-2.4424,-2.417,-2.3838,-2.3838,-2.3545,-2.314,-2.314,-2.312,-2.3091,-2.3091,-2.3091,-2.3091,-2.3091,-2.3091,-2.3003,-2.2656,-2.2539,-2.2285,-2.1395,-2.119,-2.1103,-2.0693,-2.0625,-2.0781,-2.1112,-2.1239,-2.1541,-2.2344,-2.2168,-2.1904,-2.1846,-2.1494,-2.1055,-2.0615,-2.0372,-2.0138,-1.9904,-1.9668,-1.8758,-1.6854,-1.7233,-1.6671,-1.465,-1.5289,-1.5361,-1.4522,-1.4242,-1.4088,-1.4088,-1.4088,-1.4095,-1.4122,-1.4409,-1.4563,-1.4603,-1.515,-1.5404,-1.5444,-1.5712,-1.5784,-1.5784,-1.5784,-1.5784,-1.5784,-1.5784,-1.5784,-1.5784,-1.5784,-1.5784,-1.5784,-3.6405,-3.6405,-3.6405,-3.6405,-3.6405,-3.6405,-3.6405,-3.6405,-3.6207,-3.5793,-3.5583,-3.5205,-3.4431,-3.3839,-3.3513,-3.3558,-3.3288,-3.2805,-3.209,-3.1704,-3.1367,-3.102,-3.1009,-3.0732,-3.0227,-3.0441,-3.0339,-2.9909,-2.9039,-2.8773,-2.9004,-2.8272,-2.7673,-2.7189,-2.6418,-2.5917,-2.5693,-2.5693,-2.5693,-2.5693,-2.5693,-2.5625,-2.5537,-2.5195,-2.5047,-2.4873,-2.4531,-2.4355,-2.4268,-2.4268,-2.3984,-2.3633,-2.3633,-2.3408,-2.3091,-2.3091,-2.3091,-2.3091,-2.3091,-2.3091,-2.3071,-2.2974,-2.2711,-2.2285,-2.1395,-2.119,-2.1103,-2.0693,-2.084,-2.1103,-2.1171,-2.1726,-2.2168,-2.206,-2.2217,-2.2139,-2.1444,-2.1259,-2.0908,-2.0156,-1.9888,-1.9659,-1.9478,-1.9257,-1.8472,-1.6838,-1.7004,-1.652,-1.4983,-1.4811,-1.4726,-1.4522,-1.4242,-1.4088,-1.4088,-1.4088,-1.4202,-1.4422,-1.4716,-1.4977,-1.519,-1.5331,-1.5518,-1.5732,-1.5751,-1.5784,-1.5784,-1.5784,-1.5784,-1.5784,-1.5784,-1.5784,-1.5784,-1.5784,-1.5784,-1.5784,-3.6405,-3.6013,-3.5667,-3.5667,-3.5271,-3.5126,-3.5619,-3.5667,-3.5556,-3.5225,-3.5188,-3.4797,-3.3764,-3.336,-3.2971,-3.2493,-3.2393,-3.2229,-3.191,-3.1236,-3.0748,-3.048,-3.0292,-2.9858,-2.9171,-2.9368,-2.9108,-2.8272,-2.7731,-2.7494,-2.7484,-2.6982,-2.6658,-2.6504,-2.5965,-2.5693,-2.5693,-2.5693,-2.5693,-2.5693,-2.5693,-2.5693,-2.5664,-2.5469,-2.5371,-2.5342,-2.5107,-2.4883,-2.4717,-2.4717,-2.4424,-2.4072,-2.4072,-2.3779,-2.3437,-2.3437,-2.3247,-2.3091,-2.3091,-2.3091,-2.3091,-2.3091,-2.2925,-2.2584,-2.1931,-2.1775,-2.1699,-2.13,-2.1367,-2.1592,-2.1736,-2.2197,-2.25,-2.2461,-2.2646,-2.2526,-2.1873,-2.166,-2.1239,-2.0469,-1.9985,-1.9649,-1.9465,-1.8903,-1.8099,-1.6988,-1.6788,-1.6249,-1.504,-1.481,-1.4723,-1.4723,-1.4309,-1.4088,-1.4088,-1.4215,-1.4362,-1.4522,-1.4957,-1.5244,-1.5398,-1.5531,-1.5678,-1.5784,-1.5784,-1.5784,-1.5784,-1.5784,-1.5784,-1.5784,-1.5784,-1.5784,-1.5784,-1.5784,-1.5784,-1.5784,-3.6405,-3.5523,-3.4775,-3.4775,-3.3895,-3.3499,-3.4434,-3.4581,-3.4581,-3.4581,-3.4581,-3.4141,-3.3101,-3.2951,-3.2549,-3.1432,-3.1318,-3.1506,-3.1995,-3.0811,-3.0067,-3.0002,-2.9553,-2.887,-2.7979,-2.828,-2.7826,-2.6448,-2.6448,-2.6207,-2.5693,-2.5693,-2.5693,-2.5693,-2.5693,-2.5693,-2.5693,-2.5693,-2.5693,-2.5693,-2.5693,-2.5693,-2.5693,-2.5693,-2.5693,-2.5693,-2.5693,-2.5488,-2.5166,-2.5166,-2.4873,-2.4521,-2.4521,-2.4228,-2.3867,-2.3809,-2.3525,-2.3179,-2.311,-2.3091,-2.3091,-2.3091,-2.3091,-2.2984,-2.2607,-2.251,-2.2393,-2.1973,-2.1934,-2.209,-2.2441,-2.2568,-2.2705,-2.2955,-2.3052,-2.2925,-2.248,-2.2109,-2.1637,-2.0978,-2.0316,-1.9824,-1.9606,-1.8616,-1.7719,-1.7111,-1.652,-1.5803,-1.4979,-1.4901,-1.4914,-1.5008,-1.4436,-1.4175,-1.4222,-1.4509,-1.4649,-1.4656,-1.5204,-1.5464,-1.5471,-1.5718,-1.5784,-1.5784,-1.5784,-1.5784,-1.5784,-1.5784,-1.5784,-1.5784,-1.5784,-1.5784,-1.5784,-1.5784,-1.5784,-1.5784,-3.6405,-3.5523,-3.4775,-3.4775,-3.3895,-3.325,-3.34,-3.3449,-3.3449,-3.3449,-3.3449,-3.3039,-3.1982,-3.183,-3.1432,-3.0339,-3.0265,-3.0264,-3.039,-3.013,-2.9859,-2.9462,-2.9135,-2.8716,-2.8185,-2.7617,-2.6946,-2.6149,-2.6149,-2.6004,-2.5693,-2.5693,-2.5693,-2.5693,-2.5693,-2.5693,-2.5693,-2.5693,-2.5693,-2.5693,-2.5693,-2.5693,-2.5693,-2.5693,-2.5693,-2.5693,-2.5693,-2.5645,-2.5635,-2.5635,-2.5342,-2.4971,-2.4971,-2.4668,-2.4248,-2.3896,-2.374,-2.3603,-2.3198,-2.3091,-2.3091,-2.3091,-2.3091,-2.2984,-2.2607,-2.251,-2.2393,-2.1973,-2.2168,-2.2432,-2.25,-2.276,-2.2906,-2.2656,-2.2867,-2.2818,-2.209,-2.1924,-2.1637,-2.0978,-2.0316,-1.9824,-1.9606,-1.8616,-1.7659,-1.6811,-1.6005,-1.5241,-1.462,-1.4355,-1.4449,-1.4995,-1.4629,-1.4576,-1.4867,-1.5117,-1.5264,-1.5264,-1.5598,-1.5758,-1.5718,-1.5758,-1.5784,-1.5784,-1.5784,-1.5784,-1.5784,-1.5784,-1.5784,-1.5784,-1.5784,-1.5784,-1.5784,-1.5784,-1.5784,-1.5784,-3.4738,-3.3822,-3.3078,-3.3078,-3.2185,-3.1648,-3.2235,-3.2336,-3.2336,-3.2336,-3.2336,-3.1942,-3.0836,-3.0744,-3.0547,-3.0047,-2.9994,-2.9994,-2.9994,-2.9994,-2.9901,-2.9684,-2.9343,-2.885,-2.8197,-2.7723,-2.7142,-2.6496,-2.6685,-2.6537,-2.6094,-2.6318,-2.6299,-2.6084,-2.6084,-2.5957,-2.5693,-2.5693,-2.5693,-2.5693,-2.5693,-2.5693,-2.5693,-2.5693,-2.5693,-2.5693,-2.5693,-2.5693,-2.5693,-2.5693,-2.5596,-2.543,-2.543,-2.5127,-2.4687,-2.4258,-2.3799,-2.3398,-2.3149,-2.3091,-2.3091,-2.3091,-2.3091,-2.3042,-2.2847,-2.2808,-2.275,-2.2555,-2.2672,-2.2808,-2.2808,-2.2964,-2.3033,-2.2838,-2.2887,-2.279,-2.2456,-2.1906,-2.1374,-2.0967,-2.0219,-1.9469,-1.8816,-1.7876,-1.7016,-1.6259,-1.5396,-1.4792,-1.4509,-1.4396,-1.4442,-1.4716,-1.4743,-1.4823,-1.5008,-1.5251,-1.5398,-1.5398,-1.5691,-1.5784,-1.5784,-1.5784,-1.5784,-1.5784,-1.5784,-1.5784,-1.5784,-1.5784,-1.5784,-1.5784,-1.5784,-1.5784,-1.5784,-1.5784,-1.5784,-1.5784,-3.3426,-3.2515,-3.1706,-3.1597,-3.0692,-3.0297,-3.1084,-3.1238,-3.1238,-3.1238,-3.1238,-3.0929,-3.0099,-2.9994,-2.9994,-2.9994,-2.9994,-2.9994,-2.9994,-2.9994,-2.9994,-2.9994,-2.9497,-2.8942,-2.8188,-2.7924,-2.7451,-2.6863,-2.714,-2.7038,-2.6543,-2.6865,-2.6846,-2.6533,-2.6533,-2.6348,-2.5986,-2.5986,-2.5986,-2.5976,-2.5879,-2.584,-2.583,-2.5732,-2.5693,-2.5693,-2.5693,-2.5693,-2.5693,-2.5693,-2.5693,-2.5693,-2.5693,-2.5508,-2.5137,-2.4697,-2.3965,-2.3227,-2.312,-2.3091,-2.3091,-2.3091,-2.3091,-2.3091,-2.3091,-2.3091,-2.3091,-2.3091,-2.3091,-2.3091,-2.3091,-2.3091,-2.3062,-2.2964,-2.2867,-2.2765,-2.2669,-2.1826,-2.1057,-2.0638,-1.9837,-1.8895,-1.7796,-1.6903,-1.619,-1.5738,-1.4919,-1.4422,-1.4422,-1.4482,-1.4583,-1.4723,-1.4943,-1.5142,-1.5209,-1.5384,-1.5498,-1.5504,-1.5718,-1.5784,-1.5784,-1.5784,-1.5784,-1.5784,-1.5784,-1.5784,-1.5784,-1.5784,-1.5784,-1.5784,-1.5784,-1.5784,-1.5784,-1.5784,-1.5784,-1.5784,-3.3953,-3.2978,-3.211,-3.1662,-3.0692,-3.0047,-3.0099,-3.0141,-3.0141,-3.0141,-3.0141,-3.0099,-2.9994,-2.9994,-2.9994,-2.9994,-2.9994,-2.9994,-2.9994,-2.9994,-2.9994,-2.9994,-2.9428,-2.8818,-2.8117,-2.7816,-2.7454,-2.6973,-2.6992,-2.7002,-2.6973,-2.7002,-2.6992,-2.6973,-2.6973,-2.6953,-2.6924,-2.6924,-2.6924,-2.6885,-2.6494,-2.6338,-2.6299,-2.5889,-2.5693,-2.5693,-2.5693,-2.5693,-2.5693,-2.5693,-2.5693,-2.5693,-2.5693,-2.5664,-2.5596,-2.5146,-2.4414,-2.3652,-2.3208,-2.3091,-2.3091,-2.3091,-2.3091,-2.3091,-2.3091,-2.3091,-2.3091,-2.3091,-2.3091,-2.3091,-2.3091,-2.3091,-2.2974,-2.2617,-2.2674,-2.2669,-2.2284,-2.1644,-2.0838,-1.9818,-1.8945,-1.798,-1.6895,-1.6008,-1.5484,-1.5423,-1.4608,-1.4122,-1.4122,-1.4376,-1.477,-1.5317,-1.5351,-1.5491,-1.5718,-1.5738,-1.5751,-1.5751,-1.5771,-1.5784,-1.5784,-1.5784,-1.5784,-1.5784,-1.5784,-1.5784,-1.5784,-1.5784,-1.5784,-1.5784,-1.5784,-1.5784,-1.5784,-1.5784,-1.5784,-1.5784,-3.2459,-3.2052,-3.1677,-3.1497,-3.0914,-3.0419,-3.0419,-3.018,-2.9994,-2.9994,-2.9994,-2.9994,-2.9994,-2.9994,-2.9994,-2.9994,-2.9994,-2.9994,-2.9994,-2.9994,-2.9994,-2.9994,-2.9396,-2.8999,-2.8723,-2.8311,-2.7842,-2.7412,-2.7676,-2.7676,-2.7422,-2.7685,-2.7666,-2.7412,-2.7412,-2.7266,-2.7012,-2.7012,-2.7012,-2.7002,-2.6836,-2.6777,-2.6728,-2.6299,-2.6143,-2.6103,-2.5781,-2.5693,-2.5693,-2.5693,-2.5693,-2.5693,-2.5693,-2.5693,-2.5547,-2.4873,-2.4248,-2.3691,-2.3218,-2.3091,-2.3091,-2.3091,-2.3091,-2.3091,-2.3091,-2.3091,-2.3091,-2.3091,-2.3091,-2.3091,-2.3091,-2.3091,-2.3042,-2.2886,-2.2819,-2.2702,-2.2364,-2.1792,-2.0872,-1.9504,-1.884,-1.7804,-1.6064,-1.5594,-1.5231,-1.4886,-1.4521,-1.4436,-1.4666,-1.4903,-1.5164,-1.5391,-1.5571,-1.5718,-1.5784,-1.5784,-1.5784,-1.5784,-1.5784,-1.5784,-1.5784,-1.5784,-1.5784,-1.5784,-1.5784,-1.5784,-1.5784,-1.5784,-1.5784,-1.5784,-1.5784,-1.5784,-1.5784,-1.5784,-1.5784,-1.5784,-3.1671,-3.1588,-3.1536,-3.1402,-3.1112,-3.0853,-3.0708,-3.0419,-3.016,-3.0015,-2.9994,-2.9994,-2.9994,-2.9994,-2.9994,-2.9994,-2.9994,-2.9994,-2.9994,-2.9994,-2.9994,-2.9994,-2.9396,-2.9079,-2.9079,-2.8558,-2.8144,-2.7861,-2.8144,-2.8144,-2.7871,-2.8154,-2.8135,-2.7861,-2.7861,-2.7695,-2.7412,-2.7412,-2.7412,-2.7402,-2.7275,-2.7217,-2.7168,-2.6748,-2.6504,-2.6348,-2.6055,-2.581,-2.5693,-2.5693,-2.5693,-2.5693,-2.5693,-2.5693,-2.5538,-2.4844,-2.4316,-2.3887,-2.3467,-2.3198,-2.3091,-2.3091,-2.3091,-2.3091,-2.3091,-2.3091,-2.3091,-2.3091,-2.3091,-2.3091,-2.3091,-2.3091,-2.3091,-2.3091,-2.2925,-2.2715,-2.2441,-2.1627,-2.0513,-1.9073,-1.8291,-1.7167,-1.5426,-1.5276,-1.5119,-1.4687,-1.4663,-1.479,-1.5129,-1.5291,-1.5438,-1.5531,-1.5678,-1.5784,-1.5784,-1.5784,-1.5784,-1.5784,-1.5784,-1.5784,-1.5784,-1.5784,-1.5784,-1.5784,-1.5784,-1.5784,-1.5784,-1.5784,-1.5784,-1.5784,-1.5784,-1.5784,-1.5784,-1.5784,-1.5784,-1.5784,-3.2081,-3.1988,-3.1909,-3.1464,-3.1381,-3.1226,-3.076,-3.0688,-3.0522,-3.0056,-2.9994,-2.9994,-2.9994,-2.9994,-2.9994,-2.9994,-2.9994,-2.9994,-2.9994,-2.9994,-2.9994,-2.9994,-2.9396,-2.9079,-2.9079,-2.8558,-2.8291,-2.8291,-2.8291,-2.8291,-2.8291,-2.8291,-2.8291,-2.8291,-2.8291,-2.8291,-2.8291,-2.8291,-2.8291,-2.8262,-2.7894,-2.7718,-2.7679,-2.7187,-2.6758,-2.6396,-2.6387,-2.6113,-2.5693,-2.5693,-2.5693,-2.5693,-2.5693,-2.5693,-2.5596,-2.5205,-2.4756,-2.4326,-2.3906,-2.3467,-2.3091,-2.3091,-2.3091,-2.3091,-2.3091,-2.3091,-2.3091,-2.3091,-2.3091,-2.3091,-2.3091,-2.3091,-2.3091,-2.3091,-2.2925,-2.2715,-2.2441,-2.0995,-1.9596,-1.8442,-1.7122,-1.5961,-1.5098,-1.5008,-1.5008,-1.5015,-1.5015,-1.5142,-1.5384,-1.5398,-1.5531,-1.5771,-1.5784,-1.5784,-1.5784,-1.5784,-1.5784,-1.5784,-1.5784,-1.5784,-1.5784,-1.5784,-1.5784,-1.5784,-1.5784,-1.5784,-1.5784,-1.5784,-1.5784,-1.5784,-1.5784,-1.5784,-1.5784,-1.5784,-1.5784,-1.5784,-3.2494,-3.2463,-3.2421,-3.2344,-3.2064,-3.1692,-3.1236,-3.0895,-3.0522,-3.0056,-2.9994,-2.9994,-2.9994,-2.9994,-2.9994,-2.9994,-2.9994,-2.9994,-2.9994,-2.9994,-2.9994,-2.9994,-2.9396,-2.9079,-2.9079,-2.8558,-2.8291,-2.8291,-2.8291,-2.8291,-2.8291,-2.8291,-2.8291,-2.8291,-2.8291,-2.8291,-2.8291,-2.8291,-2.8291,-2.8281,-2.8154,-2.8105,-2.8057,-2.7637,-2.7393,-2.7207,-2.6602,-2.6309,-2.6143,-2.5791,-2.5693,-2.5693,-2.5693,-2.5693,-2.5596,-2.5205,-2.4756,-2.4326,-2.3906,-2.3467,-2.3091,-2.3091,-2.3091,-2.3091,-2.3091,-2.3091,-2.3091,-2.3091,-2.3091,-2.3091,-2.3091,-2.3091,-2.3091,-2.3091,-2.3047,-2.2643,-2.1552,-2.0998,-1.9877,-1.7613,-1.6959,-1.6287,-1.5118,-1.5008,-1.5095,-1.5251,-1.5458,-1.5611,-1.5698,-1.5698,-1.5738,-1.5778,-1.5784,-1.5784,-1.5784,-1.5784,-1.5784,-1.5784,-1.5784,-1.5784,-1.5784,-1.5784,-1.5784,-1.5784,-1.5784,-1.5784,-1.5784,-1.5784,-1.5784,-1.5784,-1.5784,-1.5784,-1.5784,-1.5784,-1.5784,-1.5784,-3.2199,-3.2199,-3.225,-3.2426,-3.2075,-3.1681,-3.1422,-3.0977,-3.0522,-3.0056,-2.9994,-2.9994,-2.9994,-2.9994,-2.9994,-2.9994,-2.9994,-2.9994,-2.9994,-2.9994,-2.9994,-2.9994,-2.9396,-2.9079,-2.9079,-2.8558,-2.8291,-2.8291,-2.8291,-2.8291,-2.8291,-2.8291,-2.8291,-2.8291,-2.8291,-2.8291,-2.8291,-2.8291,-2.8291,-2.8291,-2.8291,-2.8291,-2.8262,-2.8008,-2.7865,-2.765,-2.708,-2.668,-2.6348,-2.6084,-2.583,-2.5693,-2.5693,-2.5693,-2.5635,-2.541,-2.5019,-2.458,-2.415,-2.3721,-2.3315,-2.314,-2.3091,-2.3091,-2.3091,-2.3091,-2.3091,-2.3091,-2.3091,-2.3091,-2.3091,-2.3091,-2.3091,-2.3091,-2.3091,-2.2589,-2.1186,-2.0683,-1.955,-1.7316,-1.6696,-1.6171,-1.537,-1.5304,-1.5378,-1.5558,-1.5732,-1.5784,-1.5784,-1.5784,-1.5784,-1.5784,-1.5784,-1.5784,-1.5784,-1.5784,-1.5784,-1.5784,-1.5784,-1.5784,-1.5784,-1.5784,-1.5784,-1.5784,-1.5784,-1.5784,-1.5784,-1.5784,-1.5784,-1.5784,-1.5784,-1.5784,-1.5784,-1.5784,-1.5784,-1.5784,-3.1381,-3.1381,-3.1505,-3.1909,-3.165,-3.136,-3.1319,-3.0957,-3.0522,-3.0056,-3.0036,-3.0056,-3.0056,-3.0056,-3.0056,-3.0056,-3.0015,-2.9994,-2.9994,-2.9994,-2.9994,-2.9994,-2.9396,-2.9079,-2.9079,-2.8558,-2.8291,-2.8291,-2.8291,-2.8291,-2.8291,-2.8291,-2.8291,-2.8291,-2.8291,-2.8291,-2.8291,-2.8291,-2.8291,-2.8291,-2.8291,-2.8291,-2.8291,-2.8291,-2.8057,-2.7767,-2.7728,-2.7168,-2.6494,-2.6416,-2.6103,-2.5693,-2.5693,-2.5693,-2.5693,-2.5693,-2.542,-2.5018,-2.4531,-2.4111,-2.3682,-2.3198,-2.3091,-2.3091,-2.3091,-2.3091,-2.3091,-2.3091,-2.3091,-2.3091,-2.3091,-2.3091,-2.3091,-2.3101,-2.3003,-2.2457,-2.1042,-1.9988,-1.881,-1.7326,-1.6346,-1.5784,-1.5784,-1.5784,-1.5784,-1.5784,-1.5784,-1.5784,-1.5784,-1.5784,-1.5784,-1.5784,-1.5784,-1.5784,-1.5784,-1.5784,-1.5784,-1.5784,-1.5784,-1.5784,-1.5784,-1.5784,-1.5784,-1.5784,-1.5784,-1.5784,-1.5784,-1.5784,-1.5784,-1.5784,-1.5784,-1.5784,-1.5784,-1.5784,-1.5784,-1.5784,-3.1381,-3.1381,-3.1412,-3.1505,-3.1443,-3.1257,-3.0895,-3.075,-3.0522,-3.0056,-3.0315,-3.0532,-3.0532,-3.0532,-3.0532,-3.0532,-3.0201,-2.9994,-2.9994,-2.9994,-2.9994,-2.9994,-2.9396,-2.9079,-2.9079,-2.8558,-2.8291,-2.8291,-2.8291,-2.8291,-2.8291,-2.8291,-2.8291,-2.8291,-2.8291,-2.8291,-2.8291,-2.8291,-2.8291,-2.8291,-2.8291,-2.8291,-2.8291,-2.8291,-2.8232,-2.8115,-2.7783,-2.7601,-2.7285,-2.6611,-2.6103,-2.5693,-2.5693,-2.5693,-2.5693,-2.5693,-2.542,-2.5018,-2.4531,-2.4111,-2.3682,-2.3198,-2.3091,-2.3091,-2.3091,-2.3091,-2.3091,-2.3091,-2.3091,-2.3091,-2.3091,-2.3091,-2.3047,-2.2882,-2.2378,-2.1418,-1.9724,-1.881,-1.7755,-1.6292,-1.592,-1.5784,-1.5784,-1.5784,-1.5784,-1.5784,-1.5784,-1.5784,-1.5784,-1.5784,-1.5784,-1.5784,-1.5784,-1.5784,-1.5784,-1.5784,-1.5784,-1.5784,-1.5784,-1.5784,-1.5784,-1.5784,-1.5784,-1.5784,-1.5784,-1.5784,-1.5784,-1.5784,-1.5784,-1.5784,-1.5784,-1.5784,-1.5784,-1.5784,-1.5784,-1.5784,-3.0719,-3.0895,-3.1122,-3.134,-3.1381,-3.1371,-3.134,-3.1153,-3.0936,-3.0688,-3.0864,-3.1008,-3.1008,-3.1008,-3.0926,-3.0708,-3.0263,-2.9994,-2.9994,-2.9994,-2.9942,-2.9827,-2.9343,-2.9026,-2.893,-2.8504,-2.8291,-2.8291,-2.8291,-2.8291,-2.8291,-2.8291,-2.8291,-2.8291,-2.8291,-2.8291,-2.8291,-2.8291,-2.8291,-2.8291,-2.8291,-2.8291,-2.8291,-2.8291,-2.8291,-2.8262,-2.8047,-2.7705,-2.7256,-2.6611,-2.6103,-2.5693,-2.5693,-2.5693,-2.5693,-2.5693,-2.5566,-2.5293,-2.4844,-2.4414,-2.3984,-2.3555,-2.3247,-2.3091,-2.3091,-2.3091,-2.3091,-2.3091,-2.3091,-2.3091,-2.3091,-2.3013,-2.2925,-2.2803,-2.1971,-2.0818,-1.9314,-1.8357,-1.7358,-1.5967,-1.5784,-1.5784,-1.5784,-1.5784,-1.5784,-1.5784,-1.5784,-1.5784,-1.5784,-1.5784,-1.5784,-1.5784,-1.5784,-1.5784,-1.5784,-1.5784,-1.5784,-1.5784,-1.5784,-1.5784,-1.5784,-1.5784,-1.5784,-1.5784,-1.5784,-1.5784,-1.5784,-1.5784,-1.5784,-1.5784,-1.5784,-1.5784,-1.5784,-1.5784,-1.5784,-1.5784,-3.0118,-3.0419,-3.0833,-3.1298,-3.1381,-3.1505,-3.1868,-3.1609,-3.1381,-3.1381,-3.1443,-3.1495,-3.1495,-3.1422,-3.1184,-3.0729,-3.0263,-3.0025,-3.0108,-3.0036,-2.992,-2.9719,-2.9331,-2.9013,-2.8846,-2.85,-2.8291,-2.8291,-2.8291,-2.8291,-2.8291,-2.8291,-2.8291,-2.8291,-2.8291,-2.8291,-2.8291,-2.8291,-2.8291,-2.8291,-2.8291,-2.8291,-2.8291,-2.8291,-2.8291,-2.8291,-2.8291,-2.7793,-2.706,-2.6641,-2.6211,-2.5791,-2.5713,-2.5693,-2.5693,-2.5693,-2.5693,-2.5586,-2.5195,-2.4746,-2.4316,-2.3896,-2.3467,-2.3091,-2.3091,-2.3091,-2.3091,-2.3091,-2.296,-2.2872,-2.2872,-2.2564,-2.2344,-2.2485,-2.1373,-2.0133,-1.9185,-1.8141,-1.7044,-1.592,-1.5784,-1.5784,-1.5784,-1.5784,-1.5784,-1.5784,-1.5784,-1.5784,-1.5784,-1.5784,-1.5784,-1.5784,-1.5784,-1.5784,-1.5784,-1.5784,-1.5784,-1.5784,-1.5784,-1.5784,-1.5784,-1.5784,-1.5784,-1.5784,-1.5784,-1.5784,-1.5784,-1.5784,-1.5784,-1.5784,-1.5784,-1.5784,-1.5784,-1.5784,-1.5784,-1.5784,-3.0594,-3.0646,-3.0833,-3.1298,-3.1381,-3.1391,-3.1454,-3.1412,-3.1381,-3.1381,-3.1712,-3.1895,-3.1895,-3.1609,-3.1184,-3.0729,-3.0263,-3.016,-3.0563,-3.0222,-3.0012,-3.0146,-2.9449,-2.9163,-2.9292,-2.8648,-2.8291,-2.8291,-2.8291,-2.8291,-2.8291,-2.8291,-2.8291,-2.8291,-2.8291,-2.8291,-2.8291,-2.8291,-2.8291,-2.8291,-2.8291,-2.8291,-2.8291,-2.8291,-2.8291,-2.8291,-2.8291,-2.7988,-2.7562,-2.708,-2.665,-2.623,-2.581,-2.5693,-2.5693,-2.5693,-2.5693,-2.5586,-2.5195,-2.4746,-2.4316,-2.3896,-2.3467,-2.3091,-2.3091,-2.3091,-2.3091,-2.3091,-2.2457,-2.1882,-2.1882,-2.1024,-2.0484,-2.1132,-1.9642,-1.8495,-1.8788,-1.7419,-1.6258,-1.5825,-1.5784,-1.5784,-1.5784,-1.5784,-1.5784,-1.5784,-1.5784,-1.5784,-1.5784,-1.5784,-1.5784,-1.5784,-1.5784,-1.5784,-1.5784,-1.5784,-1.5784,-1.5784,-1.5784,-1.5784,-1.5784,-1.5784,-1.5784,-1.5784,-1.5784,-1.5784,-1.5784,-1.5784,-1.5784,-1.5784,-1.5784,-1.5784,-1.5784,-1.5784,-1.5784,-1.5784,-3.1071,-3.1278,-3.1505,-3.1712,-3.1961,-3.2137,-3.2137,-3.2137,-3.2137,-3.2137,-3.2302,-3.237,-3.237,-3.2023,-3.1661,-3.1464,-3.1029,-3.0853,-3.106,-3.0702,-3.0342,-2.9978,-2.9517,-2.9118,-2.88,-2.8452,-2.8291,-2.8291,-2.8291,-2.8291,-2.8291,-2.8291,-2.8291,-2.8291,-2.8291,-2.8291,-2.8291,-2.8291,-2.8291,-2.8291,-2.8291,-2.8291,-2.8291,-2.8291,-2.8291,-2.8291,-2.8291,-2.8027,-2.765,-2.7168,-2.6738,-2.6309,-2.583,-2.5693,-2.5693,-2.5693,-2.5693,-2.5645,-2.5498,-2.5117,-2.4678,-2.4248,-2.3818,-2.3437,-2.3149,-2.3091,-2.296,-2.2422,-2.1971,-2.1516,-2.0962,-2.0339,-1.994,-2.0121,-1.8834,-1.787,-1.7963,-1.681,-1.5927,-1.5832,-1.5784,-1.5784,-1.5784,-1.5784,-1.5784,-1.5784,-1.5784,-1.5784,-1.5784,-1.5784,-1.5784,-1.5784,-1.5784,-1.5784,-1.5784,-1.5784,-1.5784,-1.5784,-1.5784,-1.5784,-1.5784,-1.5784,-1.5784,-1.5784,-1.5784,-1.5784,-1.5784,-1.5784,-1.5784,-1.5784,-1.5784,-1.5784,-1.5784,-1.5784,-1.5784,-1.5784]},{"header":{"parameterUnit":"m.s-1","parameterCategory":1,"la1":30.6,"la2":28.766,"lo1":-90.7593,"lo2":-88.6598,"dy":0.0162,"dx":0.0183,"nx":116,"ny":114,"refTime":"2024-05-19T06:00:00:Z","depth":0,"parameterNumber":3,"parameterNumberName":"V-component_of_WINDS"},"data":[0.0,0.0,0.0,0.0,0.0,0.0,0.0,0.0,0.0,0.0,0.0,0.0,0.0,0.0,0.0,0.0,0.0,0.0,0.0,0.0,0.0,0.0,0.0,0.0,0.0,0.0,0.0,0.0,0.0,0.0,0.0,0.0,0.0,0.0,0.0,0.0,0.0,0.0,0.0,0.0,0.0,0.0,0.0,0.0,0.0,0.0,0.0,0.0,0.0,0.0,0.0,0.0,0.0,0.0,0.0,0.0,0.0,0.0,0.0,0.0,0.0,0.0,0.0,0.0,0.0,0.0,0.0,0.0,0.0,0.0,0.0,0.0,0.0,0.0,0.0,0.0,0.0,0.0,0.0,0.0,0.0,0.0,0.0,0.0,0.0,0.0,0.0,0.0,0.0,0.0,0.0,0.0,0.0,0.0,0.0,0.0,0.0,0.0,0.0,0.0,0.0,0.0,0.0,0.0,0.0,0.0,0.0,0.0,0.0,0.0,0.0,0.0,0.0,0.0,0.0,0.0,0.0,0.0,0.0,0.0,0.0,0.0,0.0,0.0,0.0,0.0,0.0,0.0,0.0,0.0,0.0,0.0,0.0,0.0,0.0,0.0,0.0,0.0,0.0,0.0,0.0,0.0,0.0,0.0,0.0,0.0,0.0,0.0,0.0,0.0,0.0,0.0,0.0,0.0,0.0,0.0,0.0,0.0,0.0,0.0,0.0,0.0,0.0,0.0,0.0,0.0,0.0,0.0,0.0,0.0,0.0,0.0,0.0,0.0,0.0,0.0,0.0,0.0,0.0,0.0,0.0,0.0,0.0,0.0,0.0,0.0,0.0,0.0,0.0,0.0,0.0,0.0,0.0,0.0,0.0,0.0,0.0,0.0,0.0,0.0,0.0,0.0,0.0,0.0,0.0,0.0,0.0,0.0,0.0,0.0,0.0,0.0,0.0,0.0,0.0,0.0,0.0,0.0,0.0,0.0,0.0,0.0,0.0,0.0,0.0,0.0,0.0,0.0,0.0,0.0,0.0,0.0,0.0,0.0,0.0,0.0,0.0,0.0,0.0,0.0,0.0,0.0,0.0,0.0,0.0,0.0,0.0,0.0,0.0,0.0,0.0,0.0,0.0,0.0,0.0,0.0,0.0,0.0,0.0,0.0,0.0,0.0,0.0,0.0,0.0,0.0,0.0,0.0,0.0,0.0,0.0,0.0,0.0,0.0,0.0,0.0,0.0,0.0,0.0,0.0,0.0,0.0,0.0,0.0,0.0,0.0,0.0,0.0,0.0,0.0,0.0,0.0,0.0,0.0,0.0,0.0,0.0,0.0,0.0,0.0,0.0,0.0,0.0,0.0,0.0,0.0,0.0,0.0,0.0,0.0,0.0,0.0,0.0,0.0,0.0,0.0,0.0,0.0,0.0,0.0,0.0,0.0,0.0,0.0,0.0,0.0,0.0,0.0,0.0,0.0,0.0,0.0,0.0,0.0,0.0,0.0,0.0,0.0,0.0,0.0,0.0,0.0,0.0,0.0,0.0,0.0,0.0,0.0,0.0,0.0,0.0,0.0,0.0,0.0,0.0,0.0,0.0,0.0,0.0,0.0,0.0,0.0,0.0,0.0,0.0,0.0,0.0,0.0,0.0,0.0,0.0,0.0,0.0,0.0,0.0,0.0,0.0,0.0,0.0,0.0,0.0,0.0,0.0,0.0,0.0,0.0,0.0,0.0,0.0,0.0,0.0,0.0,0.0,0.0,0.0,0.0,0.0,0.0,0.0,0.0,0.0,0.0,0.0,0.0,0.0,0.0,0.0,0.0,0.0,0.0,0.0,0.0,0.0,0.0,0.0,0.0,0.0,0.0,0.0,0.0,0.0,0.0,0.0,0.0,0.0,0.0,0.0,0.0,0.0,0.0,0.0,0.0,0.0,0.0,0.0,0.0,0.0,0.0,0.0,0.0,0.0,0.0,0.0,0.0,0.0,0.0,0.0,0.0,0.0,0.0,0.0,0.0,0.0,0.0,0.0,0.0,0.0,0.0,0.0,0.0,0.0,0.0,0.0,0.0,0.0,0.0,0.0,0.0,0.0,0.0,0.0,0.0,0.0,0.0,0.0,0.0,0.0,0.0,0.0,0.0,0.0,0.0,0.0,0.0,0.0,0.0,0.0,0.0,0.0,0.0,0.0,0.0,0.0,0.0,0.0,0.0,0.0,0.0,0.0,0.0,0.0,0.0,0.0,0.0,0.0,0.0,0.0,0.0,0.0,0.0,0.0,0.0,0.0,0.0,0.0,0.0,0.0,0.0,0.0,0.0,0.0,0.0,0.0,0.0,0.0,0.0,0.0,0.0,0.0,0.0,0.0,0.0,0.0,0.0,0.0,0.0,0.0,0.0,0.0,0.0,0.0,0.0,0.0,0.0,0.0,0.0,0.0,0.0,0.0,0.0,0.0,0.0,0.0,0.0,0.0,0.0,0.0,0.0,0.0,0.0,0.0,0.0,0.0,0.0,0.0,0.0,0.0,0.0,0.0,0.0,0.0,0.0,0.0,0.0,0.0,0.0,0.0,0.0,0.0,0.0,0.0,0.0,0.0,0.0,0.0,0.0,0.0,0.0,0.0,0.0,0.0,0.0,0.0,0.0,0.0,0.0,0.0,0.0,0.0,0.0,0.0,0.0,0.0,0.0,0.0,0.0,0.0,0.0,0.0,0.0,0.0,0.0,0.0,0.0,0.0,0.0,0.0,0.0,0.0,0.0,0.0,0.0,0.0,0.0,0.0,0.0,0.0,0.0,0.0,0.0,0.0,0.0,0.0,0.0,0.0,0.0,0.0,0.0,0.0,0.0,0.0,0.0,0.0,0.0,0.0,0.0,0.0,0.0,0.0,0.0,0.0,0.0,0.0,0.0,0.0,0.0,0.0,0.0,0.0,0.0,0.0,0.0,0.0,0.0,0.0,0.0,0.0,0.0,0.0,0.0,0.0,0.0,0.0,0.0,0.0,0.0,0.0,0.0,0.0,0.0,0.0,0.0,0.0,0.0,0.0,0.0,0.0,0.0,0.0,0.0,0.0,0.0,0.0,0.0,0.0,0.0,0.0,0.0,0.0,0.0,0.0,0.0,0.0,0.0,0.0,0.0,0.0,0.0,0.0,0.0,0.0,0.0,0.0,0.0,0.0,0.0,0.0,0.0,0.0,0.0,0.0,0.0,0.0,0.0,0.0,0.0,0.0,0.0,0.0,0.0,0.0,0.0,0.0,0.0,0.0,0.0,0.0,0.0,0.0,0.0,0.0,0.0,0.0,0.0,0.0,0.0,0.0,0.0,0.0,0.0,0.0,0.0,0.0,0.0,0.0,0.0,0.0,0.0,0.0,0.0,0.0,0.0,0.0,0.0,0.0,0.0,0.0,0.0,0.0,0.0,0.0,0.0,0.0,0.0,0.0,0.0,0.0,0.0,0.0,0.0,0.0,0.0,0.0,0.0,0.0,0.0,0.0,0.0,0.0,0.0,0.0,0.0,0.0,0.0,0.0,0.0,0.0,0.0,0.0,0.0,0.0,0.0,0.0,0.0,0.0,0.0,0.0,0.0,0.0,0.0,0.0,0.0,0.0,0.0,0.0,0.0,0.0,0.0,0.0,0.0,0.0,0.0,0.0,0.0,0.0,0.0,0.0,0.0,0.0,0.0,0.0,0.0,0.0,0.0,0.0,0.0,0.0,0.0,0.0,0.0,0.0,0.0,0.0,0.0,0.0,0.0,0.0,0.0,0.0,0.0,0.0,0.0,0.0,0.0,0.0,0.0,0.0,0.0,0.0,0.0,0.0,0.0,0.0,0.0,0.0,0.0,0.0,0.0,0.0,0.0,0.0,0.0,0.0,0.0,0.0,0.0,0.0,0.0,0.0,0.0,0.0,0.0,0.0,0.0,0.0,0.0,0.0,0.0,0.0,0.0,0.0,0.0,0.0,0.0,0.0,0.0,0.0,0.0,0.0,0.0,0.0,0.0,0.0,0.0,0.0,0.0,0.0,0.0,0.0,0.0,0.0,0.0,0.0,0.0,0.0,0.0,0.0,0.0,0.0,0.0,0.0,0.0,0.0,0.0,0.0,0.0,0.0,0.0,0.0,0.0,0.0,0.0,0.0,0.0,0.0,0.0,0.0,0.0,0.0,0.0,0.0,0.0,0.0,0.0,0.0,0.0,0.0,0.0,0.0,0.0,0.0,0.0,0.0,0.0,0.0,0.0,0.0,0.0,0.0,0.0,0.0,0.0,0.0,0.0,0.0,0.0,0.0,0.0,0.0,0.0,0.0,0.0,0.0,0.0,0.0,0.0,0.0,0.0,0.0,0.0,0.0,0.0,0.0,0.0,0.0,0.0,0.0,0.0,0.0,0.0,0.0,0.0,0.0,0.0,0.0,0.0,0.0,0.0,0.0,0.0,0.0,0.0,0.0,0.0,0.0,0.0,0.0,0.0,0.0,0.0,0.0,0.0,0.0,0.0,0.0,0.0,0.0,0.0,0.0,0.0,0.0,0.0,0.0,0.0,0.0,0.0,0.0,0.0,0.0,0.0,0.0,0.0,0.0,0.0,0.0,0.0,0.0,0.0,0.0,0.0,0.0,0.0,0.0,0.0,0.0,0.0,0.0,0.0,0.0,0.0,0.0,0.0,0.0,0.0,0.0,0.0,0.0,0.0,0.0,0.0,0.0,0.0,0.0,0.0,0.0,0.0,0.0,0.0,0.0,0.0,0.0,0.0,0.0,0.0,0.0,0.0,0.0,0.0,0.0,0.0,0.0,0.0,0.0,0.0,0.0,0.0,0.0,0.0,0.0,0.0,0.0,0.0,0.0,0.0,0.0,0.0,0.0,0.0,0.0,0.0,0.0,0.0,0.0,0.0,0.0,0.0,0.0,0.0,0.0,0.0,0.0,0.0,0.0,0.0,0.0,0.0,0.0,0.0,0.0,0.0,0.0,0.0,0.0,0.0,0.0,0.0,0.0,0.0,0.0,0.0,0.0,0.0,0.0,0.0,0.0,0.0,0.0,0.0,0.0,0.0,0.0,0.0,0.0,0.0,0.0,0.0,0.0,0.0,0.0,0.0,0.0,0.0,0.0,0.0,0.0,0.0,0.0,0.0,0.0,0.0,0.0,0.0,0.0,0.0,0.0,0.0,0.0,0.0,0.0,0.0,0.0,0.0,0.0,0.0,0.0,0.0,0.0,0.0,0.0,0.0,0.0,0.0,0.0,0.0,0.0,0.0,0.0,0.0,0.0,0.0,0.0,0.0,0.0,0.0,0.0,0.0,0.0,0.0,0.0,0.0,0.0,0.0,0.0,0.0,0.0,0.0,0.0,0.0,0.0,0.0,0.0,0.0,0.0,0.0,0.0,0.0,0.0,0.0,0.0,0.0,0.0,0.0,0.0,0.0,0.0,0.0,0.0,0.0,0.0,0.0,0.0,0.0,0.0,0.0,0.0,0.0,0.0,0.0,0.0,0.0,0.0,0.0,0.0,0.0,0.0,0.0,0.0,0.0,0.0,0.0,0.0,0.0,0.0,0.0,0.0,0.0,0.0,0.0,0.0,0.0,0.0,0.0,0.0,0.0,0.0,0.0,0.0,0.0,0.0,0.0,0.0,0.0,0.0,0.0,0.0,0.0,0.0,0.0,0.0,0.0,0.0,0.0,0.0,0.0,0.0,0.0,0.0,0.0,0.0,0.0,0.0,0.0,0.0,0.0,0.0,0.0,0.0,0.0,0.0,0.0,0.0,0.0,0.0,0.0,0.0,0.0,0.0,0.0,0.0,0.0,0.0,0.0,0.0,0.0,0.0,0.0,0.0,0.0,0.0,0.0,0.0,0.0,0.0,0.0,0.0,0.0,0.0,0.0,0.0,0.0,0.0,0.0,0.0,0.0,0.0,0.0,0.0,0.0,0.0,0.0,0.0,0.0,0.0,0.0,0.0,0.0,0.0,0.0,0.0,0.0,0.0,0.0,0.0,0.0,0.0,0.0,0.0,0.0,0.0,0.0,0.0,0.0,0.0,0.0,0.0,0.0,0.0,0.0,0.0,0.0,0.0,0.0,0.0,0.0,0.0,0.0,0.0,0.0,0.0,0.0,2.8428,2.8118,0.0,0.0,0.0,0.0,0.0,0.0,0.0,0.0,0.0,0.0,0.0,0.0,0.0,0.0,0.0,0.0,0.0,0.0,0.0,0.0,0.0,0.0,0.0,2.6617,2.7277,2.7604,2.7908,2.8006,2.7756,0.0,0.0,0.0,0.0,0.0,2.6499,2.5967,2.5582,2.5312,2.5047,2.4935,2.4893,2.4578,2.4145,2.3613,0.0,0.0,0.0,0.0,0.0,0.0,0.0,0.0,0.0,0.0,0.0,0.0,0.0,0.0,0.0,0.0,0.0,0.0,0.0,0.0,0.0,0.0,0.0,0.0,0.0,0.0,0.0,0.0,0.0,0.0,0.0,0.0,0.0,0.0,0.0,0.0,0.0,0.0,0.0,0.0,0.0,0.0,0.0,0.0,0.0,0.0,0.0,0.0,0.0,0.0,0.0,0.0,0.0,0.0,0.0,0.0,0.0,0.0,0.0,0.0,0.0,0.0,0.0,0.0,0.0,0.0,0.0,0.0,0.0,0.0,2.9801,2.8945,0.0,0.0,0.0,0.0,0.0,0.0,0.0,0.0,0.0,0.0,0.0,0.0,0.0,0.0,0.0,0.0,0.0,0.0,0.0,0.0,0.0,2.5837,2.6479,2.7528,2.8274,2.8497,2.9012,2.9139,2.8693,2.9205,0.0,0.0,0.0,2.8609,2.8089,2.7342,2.6734,2.6299,2.6092,2.6034,2.6133,2.5687,2.5218,2.4739,2.4291,0.0,0.0,0.0,0.0,0.0,0.0,0.0,0.0,0.0,0.0,0.0,0.0,0.0,0.0,0.0,0.0,0.0,0.0,0.0,0.0,0.0,0.0,0.0,0.0,0.0,0.0,0.0,0.0,0.0,0.0,0.0,0.0,0.0,0.0,0.0,0.0,0.0,0.0,0.0,0.0,0.0,0.0,0.0,0.0,0.0,0.0,0.0,0.0,0.0,0.0,0.0,0.0,0.0,0.0,0.0,0.0,0.0,0.0,0.0,0.0,0.0,0.0,0.0,3.2481,3.2521,3.2413,3.2382,3.269,3.3199,3.1112,2.9912,2.9499,2.983,0.0,0.0,0.0,0.0,0.0,0.0,0.0,0.0,0.0,0.0,0.0,0.0,0.0,0.0,0.0,0.0,0.0,0.0,0.0,2.6091,2.7376,2.766,2.8194,2.925,2.9411,2.9442,2.938,2.9442,0.0,0.0,2.9392,2.935,2.9265,2.8171,2.7551,2.7478,2.6933,2.6976,2.7525,2.7468,2.7381,2.7223,2.5061,2.4347,2.4704,0.0,0.0,0.0,0.0,0.0,0.0,0.0,0.0,0.0,0.0,0.0,0.0,0.0,0.0,0.0,0.0,0.0,0.0,0.0,0.0,0.0,0.0,0.0,0.0,0.0,0.0,0.0,0.0,0.0,0.0,0.0,0.0,0.0,0.0,0.0,0.0,0.0,0.0,0.0,0.0,0.0,3.0305,2.9725,0.0,0.0,0.0,0.0,0.0,0.0,0.0,0.0,0.0,0.0,0.0,0.0,0.0,3.4052,3.3965,3.5183,3.5509,3.499,3.5971,3.6216,3.5719,3.4594,3.4143,3.4168,3.3258,0.0,3.2876,3.2168,0.0,0.0,0.0,0.0,0.0,0.0,0.0,0.0,0.0,0.0,0.0,0.0,0.0,0.0,0.0,0.0,0.0,0.0,0.0,0.0,0.0,2.8653,2.932,2.947,3.0868,3.1279,3.016,3.0767,3.1023,3.0628,3.0614,3.0614,3.0614,2.974,2.9113,2.8777,2.8525,2.8554,2.8805,2.8453,2.8297,2.824,2.6813,2.5941,2.5537,2.5014,0.0,0.0,0.0,0.0,0.0,0.0,0.0,0.0,0.0,0.0,0.0,0.0,0.0,0.0,0.0,0.0,0.0,0.0,0.0,0.0,0.0,0.0,0.0,0.0,0.0,0.0,0.0,0.0,0.0,0.0,0.0,0.0,0.0,0.0,0.0,0.0,0.0,0.0,0.0,3.008,3.0769,3.0031,3.0594,3.0687,0.0,0.0,0.0,0.0,0.0,0.0,0.0,0.0,0.0,3.4039,3.5035,3.556,3.556,3.6757,3.723,3.6954,3.747,3.7586,3.7346,3.6743,3.6731,3.7118,3.6368,3.6359,3.6688,3.3983,3.2643,3.2213,0.0,0.0,0.0,0.0,3.1194,3.1245,0.0,0.0,0.0,0.0,0.0,0.0,0.0,0.0,0.0,0.0,0.0,0.0,2.8098,2.9572,3.0444,3.028,3.2094,3.26,0.0,0.0,3.2019,3.1525,3.1511,3.1421,3.1241,3.0612,3.0208,3.0088,2.9965,2.995,3.0073,2.9627,2.9415,2.9415,2.8958,2.7978,2.6689,2.6524,2.5632,0.0,0.0,0.0,0.0,0.0,0.0,0.0,0.0,0.0,0.0,0.0,0.0,0.0,0.0,0.0,0.0,0.0,0.0,0.0,0.0,0.0,0.0,0.0,0.0,0.0,0.0,0.0,0.0,0.0,0.0,0.0,0.0,0.0,0.0,0.0,0.0,0.0,0.0,3.1078,3.1758,3.1142,3.2098,3.2514,0.0,0.0,0.0,0.0,0.0,0.0,3.5535,3.5922,3.6182,3.6401,3.7381,3.7923,3.7923,3.8649,3.9011,3.8996,3.8782,3.8694,3.8694,3.8531,3.8799,3.9314,3.8549,3.8702,3.9238,3.5811,3.427,3.4015,3.3304,3.2811,3.2521,3.2679,3.2773,3.2867,0.0,0.0,0.0,0.0,0.0,0.0,0.0,0.0,0.0,0.0,0.0,2.8043,2.9358,3.0118,3.0987,3.2243,3.2467,3.2512,0.0,0.0,3.154,3.1511,3.1511,3.1197,3.0567,2.9953,3.0223,3.1406,3.0778,3.0793,3.1406,3.1377,3.1377,3.1377,3.1348,3.028,2.8537,2.7947,2.7622,2.7365,0.0,0.0,0.0,0.0,0.0,0.0,0.0,0.0,0.0,0.0,0.0,0.0,0.0,0.0,0.0,0.0,0.0,0.0,0.0,0.0,0.0,0.0,0.0,0.0,0.0,0.0,0.0,0.0,0.0,0.0,0.0,0.0,0.0,0.0,0.0,0.0,0.0,0.0,0.0,3.4261,3.4887,0.0,0.0,0.0,0.0,3.5341,3.5988,3.6884,3.8153,3.9481,4.0529,4.1234,4.1909,4.2278,4.2278,4.171,4.1418,4.1418,4.0692,4.0385,4.0355,3.9711,3.9453,3.9456,3.8778,3.8854,3.9379,3.7779,3.6443,3.5327,3.4653,3.3634,3.2584,3.3209,3.344,3.3546,0.0,0.0,0.0,0.0,0.0,2.6556,2.6317,2.7041,2.736,2.6701,2.718,2.7944,0.0,2.9879,3.0881,3.178,3.2566,3.2844,3.2387,0.0,3.1893,3.202,3.2394,3.2703,3.2932,3.1968,3.168,3.2079,3.2328,3.2332,3.2138,3.2602,3.2796,3.2796,3.2796,3.2421,3.1688,2.9798,2.8326,2.7244,2.7183,2.6566,0.0,0.0,0.0,0.0,0.0,0.0,0.0,0.0,0.0,0.0,0.0,0.0,0.0,0.0,0.0,0.0,0.0,0.0,0.0,0.0,0.0,0.0,0.0,0.0,0.0,0.0,0.0,0.0,0.0,0.0,0.0,0.0,0.0,0.0,0.0,0.0,0.0,3.631,3.6945,0.0,3.6718,3.6911,3.75,3.864,3.937,4.0157,4.1056,4.158,4.1964,4.2248,4.2063,4.1971,4.1971,4.1724,4.137,4.0874,4.1124,4.097,4.0489,4.0243,4.0136,4.012,3.9874,3.9905,4.0105,3.957,3.8617,3.7369,3.6697,3.5853,3.5105,3.5338,3.5431,3.5462,0.0,0.0,0.0,0.0,2.5904,2.6655,2.6613,2.718,2.736,2.6701,2.718,2.8006,2.9089,3.0147,3.123,3.2322,3.2908,3.3042,3.259,0.0,3.2092,3.2241,3.2641,3.3525,3.4976,3.3553,3.3082,3.3737,3.4017,3.3801,3.3154,3.3592,3.3683,3.3499,3.3499,3.3499,3.3379,3.1708,3.0032,2.8511,2.8455,2.784,2.6841,0.0,0.0,0.0,0.0,0.0,0.0,0.0,0.0,0.0,0.0,0.0,0.0,0.0,0.0,0.0,0.0,0.0,0.0,0.0,0.0,0.0,0.0,0.0,0.0,0.0,0.0,0.0,0.0,0.0,0.0,0.0,0.0,0.0,0.0,3.5977,3.7406,3.8017,3.8908,3.9461,3.9461,3.9672,4.0203,4.1151,4.1878,4.2371,4.2602,4.2817,4.2833,4.2617,4.2171,4.194,4.194,4.194,4.1694,4.1197,4.1478,4.134,4.0843,4.0597,4.0489,4.0489,4.0489,4.0489,4.0489,4.0489,3.9828,3.8785,3.8108,3.743,3.6799,3.6569,3.6492,3.6523,0.0,0.0,0.0,2.467,2.5839,2.6587,2.6587,2.718,2.736,2.6701,2.7195,2.8334,3.0207,3.0988,3.2133,3.4038,3.3513,3.3061,3.3135,3.2483,3.2114,3.2196,3.2276,3.3599,3.6346,3.4413,3.4354,3.6381,3.576,3.509,3.4442,3.4472,3.4179,3.3606,3.3621,3.359,3.359,3.356,3.2796,3.1482,3.0264,2.9405,2.8709,0.0,0.0,0.0,0.0,0.0,0.0,0.0,0.0,0.0,0.0,0.0,0.0,0.0,0.0,0.0,0.0,0.0,0.0,0.0,0.0,0.0,0.0,0.0,0.0,0.0,0.0,0.0,0.0,0.0,0.0,0.0,0.0,0.0,3.6584,3.7738,3.8846,3.9521,4.0816,4.1632,4.1663,4.2232,4.2602,4.2602,4.3187,4.33,4.2633,4.3202,4.3248,4.2633,4.2586,4.2586,4.2586,4.2602,4.2602,4.2571,4.194,4.1617,4.1571,4.0847,4.0524,4.0524,4.0558,4.0558,4.0558,4.0524,4.0139,3.9477,3.8785,3.8092,3.7415,3.6769,3.6554,3.6569,0.0,0.0,2.2975,2.4621,2.5839,2.6587,2.6587,2.718,2.736,2.6701,2.747,2.8704,3.0233,3.0875,3.2007,3.4017,3.2991,3.2657,3.37,0.0,3.2462,3.4055,3.484,3.5758,3.6885,3.5551,3.5302,3.6244,3.6166,3.6042,3.5841,3.6344,3.6507,3.6299,3.5815,3.5599,3.5538,3.4616,3.3993,3.3559,3.2273,3.1337,3.067,0.0,0.0,0.0,0.0,0.0,0.0,0.0,0.0,0.0,0.0,0.0,0.0,0.0,0.0,0.0,0.0,0.0,0.0,0.0,0.0,0.0,0.0,0.0,0.0,0.0,0.0,0.0,0.0,0.0,0.0,0.0,3.7477,3.8692,3.8692,3.9398,4.0586,4.2263,4.2386,4.2509,4.3008,4.2771,4.2602,4.2602,4.2771,4.2802,4.2617,4.2771,4.2786,4.2617,4.2125,4.1878,4.1878,4.2371,4.2355,4.1878,4.2186,4.2078,4.1571,4.1317,4.1243,4.1243,4.1739,4.1949,4.1917,4.1426,4.1133,4.0784,3.9152,3.8092,3.7479,3.7233,3.7474,3.7953,0.0,2.1379,2.3122,2.4636,2.5839,2.6677,2.6986,2.7345,2.7465,2.7076,2.7759,2.8801,3.0173,3.075,3.1694,3.3407,3.3039,3.2782,3.2963,0.0,3.3326,3.6158,3.6238,3.6798,3.8013,3.7063,3.6869,3.7511,3.7583,3.7456,3.7201,3.7601,3.7648,3.7399,3.6981,3.6662,3.6337,3.5627,3.5162,3.4816,3.3754,3.2946,3.2243,3.1599,3.0905,3.0261,3.0052,2.9761,2.9409,2.9158,0.0,0.0,0.0,0.0,0.0,0.0,0.0,0.0,0.0,0.0,0.0,0.0,0.0,0.0,0.0,0.0,0.0,0.0,0.0,0.0,0.0,0.0,0.0,0.0,3.9212,4.066,4.1548,4.1751,4.2248,4.347,4.3494,4.3464,4.3593,4.327,4.2894,4.2633,4.2602,4.2479,4.2202,4.2186,4.2048,4.172,4.1355,4.1279,4.156,4.2576,4.3017,4.2887,4.328,4.328,4.289,4.2215,4.1933,4.1933,4.2332,4.252,4.2458,4.2078,4.1933,4.1725,0.0,0.0,0.0,0.0,3.8096,3.8518,0.0,2.2003,2.3585,2.4771,2.5884,2.6836,2.7495,2.76,2.763,2.7705,0.0,2.883,3.0259,3.0723,3.143,3.2707,3.3408,3.3276,0.0,0.0,0.0,3.7831,3.6936,3.7235,3.9133,3.8626,3.8642,3.9299,3.9299,3.8996,3.8407,3.8407,3.8124,3.7605,3.7546,3.7161,3.66,3.6538,3.6164,3.5542,3.4958,3.4281,3.3529,3.2871,3.2617,3.2467,3.127,3.0791,3.0642,3.0103,0.0,0.0,0.0,0.0,0.0,0.0,0.0,0.0,0.0,0.0,0.0,0.0,0.0,0.0,0.0,0.0,0.0,0.0,0.0,0.0,0.0,0.0,0.0,0.0,4.1102,4.2706,4.456,4.4319,4.396,4.396,4.4425,4.4502,4.3898,4.3639,4.3241,4.2633,4.251,4.2201,4.1599,4.1674,0.0,0.0,0.0,4.1024,4.1624,4.3085,4.4092,4.4593,4.4674,4.4674,4.4545,4.3199,4.2614,4.2614,4.2707,4.2738,4.2738,4.2645,4.2517,4.2179,4.0259,3.9469,3.9291,3.8633,3.853,3.875,0.0,2.2643,2.4187,2.5344,2.614,2.6836,2.7495,2.76,2.7794,2.8323,2.8353,2.9211,3.1571,3.1261,3.1626,3.3435,3.3707,3.3922,0.0,0.0,3.6936,3.6456,3.7847,3.856,3.8427,3.8858,3.9166,3.9299,3.9299,3.9245,3.9121,3.9121,3.905,3.8914,3.8367,3.8051,3.7908,3.7413,3.6845,3.6212,3.6074,3.5351,3.4249,3.3559,3.3305,3.3275,3.3006,3.2572,3.2108,3.1988,3.1645,3.1286,3.1167,0.0,0.0,0.0,0.0,0.0,0.0,0.0,0.0,0.0,0.0,0.0,0.0,0.0,0.0,0.0,0.0,0.0,0.0,0.0,0.0,4.2588,4.4107,4.5139,4.5525,4.5936,4.6185,4.6185,4.5766,4.5445,4.5317,4.3796,4.2739,4.2614,4.2048,4.1655,4.1529,4.201,4.227,4.2109,4.2109,4.2173,4.23,4.3767,4.4268,4.3816,4.4415,0.0,4.3816,4.3455,4.3317,4.3347,4.396,4.4179,4.415,4.3558,4.2611,4.1436,4.0542,3.9807,3.9215,3.9073,3.948,4.0112,2.2074,2.3475,2.4688,2.5257,2.6329,2.721,2.754,2.76,2.7839,2.8502,2.8723,2.9518,3.1451,3.1173,3.1352,3.2585,3.3027,0.0,0.0,3.6489,3.7102,3.7102,3.8162,3.8742,3.8742,3.9116,3.9299,3.9299,3.9299,3.9299,3.9299,3.9299,3.9299,3.9299,3.8969,3.8618,3.8278,3.7966,3.7531,3.6981,3.692,3.6566,3.5891,3.4514,3.3978,3.3948,3.3619,3.3275,3.3006,3.3006,3.2781,3.2452,3.2093,3.1989,3.1958,0.0,0.0,0.0,0.0,0.0,0.0,0.0,0.0,0.0,0.0,0.0,0.0,0.0,0.0,3.9524,4.1251,0.0,4.2592,4.3981,4.5421,4.6356,4.6291,4.6913,4.7078,4.6345,4.5919,4.5418,4.4722,4.3699,4.2941,4.2573,4.2205,4.1981,4.1981,4.2332,4.252,4.252,4.252,4.2676,4.3015,4.4504,4.5236,4.5202,4.5566,4.5549,4.5168,4.4402,4.4047,4.4076,4.444,4.4615,4.4536,4.3759,4.278,4.1743,4.1156,4.0421,3.9747,3.9825,4.0129,4.051,2.2761,2.4096,2.5027,2.5133,2.6323,2.7309,2.7545,2.748,2.7705,2.8502,2.8819,2.9468,3.082,3.0672,3.0898,0.0,0.0,0.0,0.0,3.6473,3.7119,3.8136,3.8344,3.8692,3.9282,3.9299,3.9299,3.9299,3.9299,3.9299,3.9299,3.9299,3.9299,3.9299,3.9299,3.8996,3.849,3.849,3.8238,3.7764,3.7618,3.7589,3.7408,3.5723,3.4983,3.4812,3.427,3.3832,3.3499,3.3499,3.332,3.3021,3.2497,3.2392,3.2422,3.1923,3.1875,0.0,0.0,0.0,0.0,0.0,0.0,0.0,0.0,3.7294,3.8261,4.1056,4.1478,4.1827,4.329,4.3891,4.4399,4.5128,4.6281,4.7028,4.6832,4.7331,4.7172,4.5849,4.5702,4.5245,4.4102,4.3763,4.3326,4.274,4.2691,4.2691,4.2691,4.2831,4.2909,4.2909,4.2909,4.3183,4.3706,4.5216,4.619,4.6583,4.6718,4.6718,4.6532,4.5224,4.4615,4.4615,4.4615,4.4615,4.453,4.3616,4.2871,4.2255,4.1554,4.089,4.0404,4.0461,4.051,4.0558,0.0,2.3751,2.5135,2.563,2.5807,2.6293,2.7419,2.7106,2.7156,2.8427,2.8145,2.8485,3.0284,2.9783,3.0456,0.0,0.0,0.0,3.6887,3.8195,3.8692,3.8228,3.8825,3.9216,3.9299,3.9299,3.9299,3.9299,3.9299,3.9299,3.9299,3.9299,3.9299,3.9299,3.9299,3.9272,3.9175,3.9175,3.8882,3.839,3.825,3.7966,3.756,3.7216,3.672,3.6183,3.6106,3.4956,3.3499,3.3499,3.2721,3.1705,3.1645,3.2019,3.2422,3.1923,3.2191,3.2551,3.2246,3.3091,3.4534,3.6453,3.6578,3.7365,0.0,4.1822,4.1761,4.4624,4.4645,4.48,4.6903,4.6317,4.5951,4.7325,4.768,4.7545,4.69,4.6874,4.6608,4.5803,4.569,4.5622,4.5471,4.4268,4.3476,4.3393,4.3393,4.3393,4.3393,4.4018,4.4355,4.4355,4.4355,4.4412,4.4485,4.5954,4.6406,4.5838,4.6481,4.6447,4.5805,4.4987,4.4615,4.4615,4.4615,4.4615,4.4496,4.3165,4.2547,4.2353,4.1218,4.0734,4.0648,4.0534,4.0583,4.0673,0.0,2.3651,2.4664,2.5231,2.5544,2.6003,2.6946,2.6807,2.7081,2.8427,2.8353,2.8761,3.0228,3.0259,3.0684,0.0,0.0,0.0,3.5777,3.8006,3.8984,3.8219,3.8907,3.9299,3.9299,3.9299,3.9299,3.9299,3.9299,3.9299,3.9299,3.9299,3.9299,3.9299,3.9299,3.9299,3.9299,3.9299,3.9228,3.9061,3.8925,3.8816,3.8689,3.8634,3.7883,3.6769,3.6087,3.537,0.0,0.0,3.2931,3.2166,3.2108,3.2092,3.2088,3.1945,3.2423,3.3157,3.3864,3.5084,3.626,3.6673,3.808,3.9861,4.194,4.258,4.3552,4.6421,4.6759,4.6802,4.772,4.7767,4.7547,4.731,4.7631,4.7496,4.6329,4.6532,4.6532,4.5788,4.6075,4.5991,4.5128,4.4495,4.415,4.415,4.415,4.415,4.415,4.444,4.4615,4.4615,4.4615,4.4615,4.4615,4.6041,4.643,4.572,4.6447,4.6413,4.5669,4.4953,4.4615,4.4615,4.4615,4.4316,4.3826,4.2894,4.2234,4.1793,4.1011,4.0697,4.0697,4.0728,4.0752,4.0817,0.0,2.3316,2.4032,2.4637,2.5009,2.5495,2.6295,2.6251,2.6589,2.7889,2.8203,2.8705,2.972,3.0029,3.0396,3.0914,0.0,0.0,0.0,3.7406,3.8626,3.851,3.8808,3.91,3.9299,3.9299,3.9299,3.9299,3.9299,3.9299,3.9299,3.9299,3.9299,3.9299,3.9299,3.9299,3.9299,3.9299,3.9379,3.9501,3.9352,3.9379,3.9468,3.9215,3.8467,3.7395,3.6381,3.5728,0.0,0.0,3.3551,3.3194,3.2911,3.2968,3.3124,3.2851,3.3222,3.397,3.5042,3.6494,3.7645,3.7481,3.9575,4.1877,4.2527,4.3463,4.4905,4.7406,4.7889,4.7889,4.7889,4.8359,4.8291,4.7005,4.7259,4.7158,4.5889,4.616,4.6295,4.5771,4.6346,4.6295,4.501,4.4919,4.4835,4.4632,4.4615,4.4615,4.4615,4.4615,4.4615,4.4615,4.4615,4.4615,4.4615,4.6041,4.643,4.572,4.6447,4.6413,4.5669,4.4953,4.4615,4.4615,4.4615,4.413,4.3369,4.2794,4.2125,4.1401,4.094,4.0745,4.0769,4.0847,4.0912,4.0912,0.0,0.0,2.3433,2.4008,2.4084,2.4447,2.5545,2.528,2.5365,2.6508,2.7225,2.7815,2.8317,2.8383,2.9111,3.093,3.2345,3.4006,3.6026,3.6788,3.7798,3.9216,3.8593,3.8576,3.9282,3.9299,3.9299,3.9299,3.9299,3.9299,3.9299,3.9299,3.9299,3.9299,3.9299,3.9299,3.9299,3.9299,3.9379,3.9501,3.9352,3.9379,3.9418,3.8562,3.829,3.8292,3.7738,0.0,0.0,0.0,3.4617,3.45,3.3786,3.4979,0.0,3.5166,3.4926,3.5088,3.5179,3.6652,3.8503,3.9933,4.1278,4.2868,4.5066,4.5607,4.6063,4.7584,4.7889,4.7889,4.7889,4.7906,4.7699,4.6921,4.6802,4.6566,4.5821,4.572,4.5737,4.5703,4.6346,4.6498,4.5737,4.5669,4.5365,4.4649,4.4615,4.4615,4.4615,4.4615,4.4615,4.4615,4.4615,4.4615,4.4615,4.6041,4.643,4.572,4.6447,4.6413,4.5669,4.4953,4.4615,4.4615,4.4615,4.413,4.3352,4.29,4.2253,4.1544,4.1085,4.0894,4.0894,4.0912,4.0912,4.0912,0.0,0.0,0.0,2.3016,2.2628,2.259,2.3335,2.4562,2.5592,2.6065,2.7382,0.0,0.0,0.0,0.0,0.0,3.1785,3.3019,3.4202,3.6119,3.7437,3.7954,3.8599,3.905,3.9299,3.9299,3.9299,3.9299,3.9299,3.9547,4.0028,4.0028,4.0276,4.0696,4.0696,4.0696,4.0663,4.0227,4.0591,4.1365,3.9879,3.9906,4.0647,3.9505,3.8467,3.7669,0.0,0.0,0.0,0.0,3.4028,3.4057,3.3713,3.4503,3.5653,3.6298,3.5859,3.5558,3.736,3.8745,3.9874,4.0711,4.2399,4.4039,4.4818,4.5348,4.5991,4.6972,4.7175,4.7327,4.7804,4.7513,4.709,4.6836,4.6397,4.5805,4.506,4.5382,4.5889,4.6363,4.665,4.6701,4.6447,4.5991,4.5399,4.4666,4.4615,4.4615,4.4615,4.4615,4.4615,4.4615,4.4615,4.4852,4.5331,4.5821,4.5957,4.5703,4.5449,4.5196,4.4942,4.4716,4.4615,4.4615,4.4615,4.413,4.3369,4.2794,4.2193,4.1544,4.0988,4.0817,4.0912,4.0912,4.0912,4.0912,0.0,0.0,0.0,0.0,0.0,0.0,0.0,0.0,0.0,0.0,0.0,0.0,0.0,0.0,0.0,0.0,0.0,3.1956,3.2966,0.0,3.5943,3.6929,3.7302,3.7844,3.8547,3.8123,3.8247,3.8907,3.8698,3.9209,4.0409,4.0409,4.0746,4.1409,4.1409,4.1409,4.1331,4.0423,4.0553,4.1214,3.936,3.9301,4.0175,3.9154,3.833,0.0,0.0,0.0,0.0,3.4734,3.4579,3.4808,3.4431,3.5086,3.6188,3.7202,3.7072,3.6918,3.8652,3.9716,4.0491,4.1379,4.2895,4.4231,4.4547,4.5162,4.5838,4.6312,4.6616,4.6938,4.7428,4.7124,4.6786,4.6786,4.6397,4.5838,4.5094,4.5618,4.6177,4.638,4.6633,4.6684,4.643,4.5974,4.5399,4.4666,4.4615,4.4615,4.4615,4.4615,4.4733,4.4976,4.4976,4.5348,4.6092,4.6092,4.5957,4.5703,4.4942,4.4615,4.4615,4.4615,4.4615,4.4598,4.4654,4.423,4.3451,4.2873,4.2253,4.1619,4.1013,4.0817,4.0912,4.0912,4.0912,4.0912,0.0,0.0,0.0,0.0,0.0,0.0,0.0,0.0,0.0,0.0,0.0,0.0,0.0,0.0,0.0,0.0,0.0,0.0,0.0,0.0,0.0,3.6087,3.5023,3.5222,3.7079,3.5995,3.6302,3.8091,3.753,3.8291,4.031,4.031,4.0662,4.1295,4.1274,4.1274,4.1168,3.9854,3.9331,3.924,3.7934,3.7735,3.8213,3.7655,0.0,0.0,0.0,0.0,0.0,3.5853,3.6129,3.6677,3.596,3.6715,3.7922,3.799,3.8481,3.9005,3.9039,3.958,4.0502,4.1931,4.2861,4.3595,4.4429,4.5128,4.5652,4.5652,4.6194,4.6684,4.6684,4.6684,4.6684,4.6735,4.6735,4.6498,4.5805,4.6295,4.6481,4.5788,4.6278,4.643,4.5771,4.5669,4.5348,4.4649,4.4615,4.4615,4.4615,4.4649,4.4976,4.5686,4.5737,4.6092,4.6786,4.6752,4.6363,4.5652,4.4925,4.4615,4.4615,4.4615,4.4598,4.4626,4.4765,4.4395,4.369,4.3108,4.2465,4.1751,4.1133,4.0894,4.0912,4.0912,4.0912,4.0912,0.0,0.0,0.0,0.0,0.0,0.0,0.0,0.0,0.0,0.0,0.0,0.0,0.0,0.0,0.0,0.0,0.0,0.0,0.0,0.0,0.0,0.0,0.0,3.5356,3.586,3.5562,0.0,0.0,0.0,3.7432,3.8969,3.8969,3.9321,3.9946,3.951,3.9301,3.9253,3.8355,3.8325,3.88,0.0,3.7546,3.7809,0.0,0.0,0.0,0.0,0.0,0.0,3.5853,3.6129,3.6863,3.7212,3.7584,3.8125,3.9208,3.9276,3.9106,3.9673,4.0358,4.1136,4.2066,4.2861,4.3595,4.4429,4.475,4.4874,4.4874,4.5038,4.5173,4.5173,4.5173,4.5331,4.5889,4.5974,4.5923,4.5737,4.5872,4.5906,4.572,4.5365,4.5297,4.5669,4.5196,4.4818,4.4615,4.4615,4.4615,4.4615,4.5111,4.5517,4.5703,4.6227,4.6599,4.6786,4.6261,4.5602,4.4874,4.4699,4.4615,4.4598,4.4709,4.4765,4.4765,4.4886,4.4541,4.3807,4.3057,4.2381,4.1727,4.1037,4.0817,4.0912,4.0912,4.0912,4.0912,0.0,0.0,0.0,0.0,0.0,0.0,0.0,0.0,0.0,0.0,0.0,0.0,0.0,0.0,0.0,0.0,0.0,0.0,0.0,0.0,0.0,0.0,0.0,3.3957,3.4507,3.3973,0.0,0.0,0.0,0.0,0.0,3.763,3.7995,3.8659,3.8324,3.8166,3.8088,0.0,0.0,0.0,0.0,0.0,0.0,0.0,0.0,0.0,0.0,0.0,0.0,3.6196,3.6371,3.6931,3.7669,3.8125,3.8548,3.9385,3.9554,3.9571,3.9994,4.0417,4.0967,4.2016,4.2608,4.3132,4.3893,4.4062,4.3978,4.3667,4.3599,4.3701,4.4012,4.435,4.4852,4.5585,4.6244,4.6447,4.5788,4.5974,4.594,4.528,4.4869,4.4767,4.5179,4.4852,4.4615,4.4615,4.4615,4.4615,4.4615,4.5297,4.5855,4.6177,4.6583,4.6633,4.6312,4.5906,4.5331,4.4615,4.4615,4.4615,4.4598,4.4682,4.4709,4.472,4.4913,4.4595,4.386,4.3177,4.2507,4.1808,4.1085,4.084,4.0912,4.0912,4.0912,4.0912,0.0,0.0,0.0,0.0,0.0,0.0,0.0,0.0,0.0,0.0,0.0,0.0,0.0,0.0,0.0,0.0,0.0,0.0,0.0,0.0,0.0,0.0,0.0,3.201,3.3117,3.2069,3.2327,0.0,0.0,0.0,0.0,0.0,0.0,0.0,0.0,0.0,0.0,0.0,0.0,0.0,0.0,0.0,0.0,0.0,0.0,0.0,0.0,0.0,0.0,3.67,3.6905,3.7202,3.7838,3.8548,3.914,3.914,3.9605,4.0096,4.0096,4.018,4.0587,4.1948,4.2371,4.2608,4.324,4.3392,4.3172,4.2439,4.2286,4.2472,4.3031,4.3842,4.4637,4.5297,4.665,4.7175,4.5889,4.6244,4.6126,4.4767,4.4615,4.4615,4.4615,4.4615,4.4615,4.4615,4.4615,4.4649,4.475,4.5449,4.6177,4.6921,4.6752,4.6346,4.572,4.5602,4.5229,4.4615,4.4615,4.4615,4.4615,4.4626,4.4643,4.4626,4.4913,4.4553,4.3732,4.3364,4.2672,4.1809,4.1153,4.0912,4.0912,4.0912,4.0912,4.0912,0.0,0.0,0.0,0.0,0.0,0.0,0.0,0.0,0.0,0.0,2.5367,2.7039,0.0,0.0,0.0,0.0,0.0,0.0,0.0,0.0,0.0,0.0,0.0,3.1613,3.1834,3.1613,3.1926,3.2807,0.0,0.0,0.0,0.0,0.0,0.0,0.0,0.0,0.0,0.0,0.0,0.0,0.0,0.0,0.0,0.0,0.0,0.0,0.0,0.0,0.0,0.0,3.8012,3.8633,3.8768,3.9334,3.991,3.991,4.0011,4.0096,4.0096,4.0527,4.1221,4.2066,4.276,4.3223,4.3358,4.3392,4.3172,4.2439,4.2286,4.2151,4.1677,4.2692,4.3656,4.3764,4.5066,4.5991,4.5737,4.5821,4.5568,4.4699,4.4615,4.4615,4.4615,4.4615,4.4615,4.4615,4.4615,4.4886,4.5483,4.621,4.6955,4.7699,4.6532,4.5838,4.5703,4.5094,4.4733,4.4615,4.4615,4.4615,4.4598,4.4709,4.4765,4.4776,4.5059,4.4361,4.3074,4.3166,4.2378,4.1084,4.0963,4.0912,4.0912,4.0912,4.0912,4.0912,0.0,0.0,0.0,0.0,0.0,0.0,0.0,2.2465,2.3221,2.4396,2.5845,2.6752,2.6707,2.8084,2.8843,0.0,0.0,0.0,0.0,0.0,0.0,0.0,0.0,3.1161,3.1511,3.1511,3.166,3.1974,0.0,3.2138,3.2452,3.2452,3.2452,3.2437,0.0,0.0,0.0,0.0,0.0,0.0,0.0,0.0,0.0,0.0,0.0,0.0,0.0,0.0,0.0,0.0,3.7544,3.8882,3.942,3.9775,4.0011,4.0087,4.0096,4.0096,4.0096,4.0629,4.139,4.2117,4.2861,4.3189,4.2412,4.2557,4.2405,4.0882,4.0882,4.106,4.0679,4.183,4.2963,4.3325,4.4705,4.5703,4.5703,4.5703,4.5432,4.4699,4.4615,4.4615,4.4615,4.4615,4.4615,4.4615,4.4615,4.4767,4.5094,4.5821,4.6397,4.6722,4.6075,4.5517,4.5128,4.4784,4.4615,4.4615,4.4615,4.4615,4.4615,4.4654,4.4709,4.4692,4.4568,4.387,4.2775,4.2641,4.1912,4.0912,4.0912,4.1018,4.1186,4.0989,4.1018,4.1186,0.0,0.0,0.0,0.0,0.0,0.0,0.0,2.2738,2.372,2.5545,2.6321,2.6543,2.6184,2.7535,2.8435,0.0,0.0,0.0,0.0,0.0,0.0,0.0,0.0,3.0524,3.1058,0.0,0.0,3.15,3.1647,0.0,0.0,0.0,0.0,0.0,3.1511,3.1511,3.1511,0.0,0.0,0.0,0.0,3.341,0.0,0.0,0.0,0.0,0.0,3.4241,3.5902,3.5815,3.6832,3.8362,3.953,3.9792,3.9724,3.9986,4.0087,4.0096,4.0096,4.0747,4.1542,4.1948,4.2743,4.2953,4.1356,4.1525,4.1474,3.9411,3.9605,4.0096,4.0096,4.1196,4.2303,4.3047,4.4468,4.5517,4.5686,4.5703,4.5483,4.4919,4.4699,4.4615,4.4615,4.4615,4.4615,4.4615,4.4615,4.4682,4.4835,4.5382,4.5703,4.5703,4.5551,4.5179,4.4615,4.4615,4.4615,4.4615,4.4615,4.4615,4.4615,4.4615,4.4513,4.4383,4.4034,4.3433,4.2619,4.2306,4.1782,4.118,4.118,4.1373,4.1604,4.13,4.1373,4.1604,0.0,0.0,0.0,0.0,0.0,0.0,0.0,2.2358,2.3261,2.5493,2.6321,2.6844,2.7281,2.7996,2.8187,0.0,0.0,0.0,0.0,0.0,0.0,0.0,0.0,0.0,0.0,0.0,0.0,3.1503,3.2094,0.0,0.0,0.0,0.0,0.0,0.0,3.1511,3.1511,3.1511,0.0,0.0,0.0,0.0,0.0,0.0,0.0,0.0,0.0,3.3988,3.4063,3.5975,3.6686,3.7077,3.8758,3.9115,3.9034,3.9724,4.0011,4.0096,4.0096,4.1145,4.2049,4.1457,4.2371,4.2834,4.0688,4.0755,4.0865,3.9309,3.9605,4.0096,4.0096,4.0747,4.1542,4.2269,4.369,4.4925,4.5618,4.5703,4.5669,4.5618,4.4993,4.4615,4.4615,4.4615,4.4615,4.4615,4.4615,4.4874,4.5568,4.5669,4.5703,4.5703,4.5043,4.4682,4.4615,4.4615,4.4615,4.4615,4.4615,4.4615,4.4615,4.4615,4.4264,4.3695,4.3849,4.3364,4.2533,4.2585,4.2432,4.2074,4.2074,4.2095,4.2136,4.2095,4.2095,4.2136,0.0,0.0,0.0,0.0,0.0,0.0,2.2572,2.3113,2.4008,2.5584,2.6621,2.7406,2.7981,2.8569,2.8543,2.7581,0.0,0.0,0.0,0.0,0.0,0.0,0.0,0.0,0.0,0.0,3.1221,3.1498,3.2583,0.0,0.0,0.0,0.0,0.0,0.0,3.1511,3.1511,3.1511,0.0,0.0,0.0,0.0,0.0,0.0,0.0,0.0,0.0,0.0,3.3596,3.4152,3.5011,3.5969,3.6788,3.7485,3.8278,3.9632,3.9691,3.9437,3.9952,4.1196,4.2117,4.139,4.2293,4.2682,4.0054,4.0358,4.0663,3.8734,3.9276,4.0096,4.0096,4.035,4.0916,4.21,4.2838,4.3623,4.4857,4.5415,4.5551,4.5077,4.5162,4.5077,4.4649,4.4615,4.4615,4.4615,4.4615,4.4733,4.501,4.5026,4.5026,4.5026,4.4767,4.4615,4.4615,4.4615,4.4615,4.4615,4.4615,4.4615,4.4581,4.4096,4.3735,4.3434,4.2807,4.2469,4.2376,4.2088,4.2078,4.2198,4.2198,4.2378,4.2595,4.23,4.2378,4.2577,0.0,0.0,0.0,0.0,0.0,2.2184,2.2894,2.3618,2.4553,2.5903,2.6889,2.779,2.8569,2.8904,2.8673,2.785,2.7594,0.0,0.0,0.0,0.0,0.0,0.0,0.0,0.0,0.0,3.0991,3.1162,3.252,3.3192,0.0,0.0,3.2706,3.2497,0.0,0.0,0.0,0.0,0.0,0.0,0.0,0.0,0.0,0.0,0.0,0.0,0.0,0.0,0.0,0.0,0.0,3.5198,3.5551,3.6314,0.0,3.9177,3.9396,3.9278,3.991,4.1027,4.1847,4.1339,4.183,4.188,3.98,3.9952,4.0104,3.8548,3.9249,4.0096,4.0096,4.0096,4.0519,4.1762,4.2337,4.3149,4.4716,4.5551,4.5906,4.5602,4.5652,4.55,4.4976,4.4733,4.4615,4.4615,4.4615,4.4615,4.4615,4.4615,4.4615,4.4615,4.4615,4.4615,4.4615,4.4615,4.4615,4.4615,4.4615,4.4615,4.4581,4.3775,4.3366,4.3274,4.2244,4.2035,4.2383,4.2051,4.2177,4.2578,4.2578,4.2788,4.3032,4.2713,4.2789,4.3032,0.0,0.0,0.0,0.0,0.0,0.0,2.2829,2.3618,2.4726,2.647,2.717,2.7968,2.9144,2.8773,2.8386,2.8407,2.785,0.0,0.0,0.0,0.0,0.0,0.0,0.0,0.0,0.0,2.9746,3.0399,3.1748,3.2454,3.2506,3.3177,3.314,3.2512,0.0,0.0,0.0,0.0,0.0,0.0,0.0,0.0,0.0,0.0,0.0,0.0,0.0,0.0,0.0,0.0,0.0,0.0,0.0,0.0,0.0,0.0,3.9227,3.991,4.0045,4.0629,4.1221,4.1204,4.0646,4.013,4.0096,3.9554,3.9005,3.8988,3.9588,4.0096,4.0096,4.0096,4.035,4.1085,4.2455,4.3916,4.5483,4.6312,4.7056,4.78,4.6599,4.5703,4.5703,4.501,4.4615,4.4615,4.4615,4.4615,4.4615,4.4615,4.4615,4.4615,4.4615,4.4615,4.4615,4.4615,4.4615,4.4615,4.4615,4.4615,4.4581,4.3775,4.3327,4.3175,4.2558,4.2458,4.2692,4.2844,4.3124,4.3497,4.3497,4.3479,4.3479,4.3497,4.3479,4.3479,0.0,0.0,0.0,0.0,0.0,0.0,0.0,2.4246,2.5027,2.5968,2.6902,2.779,2.8582,2.849,2.842,2.842,2.7863,0.0,0.0,0.0,0.0,0.0,0.0,0.0,0.0,0.0,3.0188,3.0412,3.1741,3.2667,3.319,3.293,3.3186,3.3814,3.2916,3.2363,0.0,0.0,0.0,0.0,0.0,0.0,0.0,0.0,0.0,0.0,0.0,0.0,0.0,0.0,0.0,0.0,0.0,0.0,0.0,0.0,3.6978,3.7799,3.9006,3.9512,3.9698,3.9698,3.9512,3.9208,3.87,3.8802,3.8988,3.8988,3.9605,4.0096,4.0096,4.0096,4.0688,4.2439,4.3088,4.4102,4.616,4.665,4.6701,4.6447,4.5534,4.4942,4.4942,4.475,4.4615,4.4615,4.4615,4.4615,4.4615,4.4615,4.4615,4.4615,4.4615,4.4615,4.4615,4.4615,4.4615,4.4598,4.4045,4.3949,4.4213,4.2954,4.2583,4.2882,4.2286,4.2284,4.2711,4.2844,4.3142,4.3515,4.3515,4.3515,4.3515,4.3515,4.3515,4.3515,0.0,0.0,0.0,0.0,0.0,0.0,0.0,2.4641,2.5357,2.5741,2.6785,2.7745,2.8307,2.819,2.8137,2.8394,2.8059,0.0,0.0,0.0,0.0,0.0,0.0,0.0,0.0,2.9576,3.0065,3.0293,3.1364,3.2038,3.2331,3.2421,3.2913,3.3724,3.3154,3.2751,0.0,0.0,0.0,0.0,0.0,0.0,0.0,0.0,0.0,0.0,0.0,0.0,0.0,0.0,0.0,0.0,0.0,0.0,0.0,0.0,3.5251,3.6183,3.808,3.8785,3.8988,3.8988,3.8565,3.8261,3.8633,3.865,3.8734,3.9317,3.9791,4.0096,4.0096,4.0096,4.0553,4.1931,4.2625,4.369,4.5669,4.6194,4.621,4.5754,4.528,4.4919,4.4632,4.4615,4.4615,4.4615,4.4615,4.4615,4.4615,4.4615,4.4615,4.4615,4.4615,4.4462,4.4147,4.4147,4.4105,4.399,4.3496,4.3485,4.3908,4.2701,4.248,4.3022,4.2391,4.2458,0.0,4.3069,4.3268,4.3515,4.3515,4.3515,4.3515,4.3515,4.3515,4.3515,0.0,0.0,0.0,0.0,0.0,0.0,0.0,2.4879,2.5667,2.5793,2.6785,2.7699,2.8255,2.785,2.7758,2.8368,0.0,0.0,0.0,0.0,0.0,0.0,0.0,0.0,0.0,2.931,2.9562,3.01,3.0695,3.0783,3.0446,3.1673,3.2362,3.2579,3.3207,3.3155,0.0,0.0,0.0,0.0,0.0,0.0,0.0,0.0,0.0,0.0,0.0,0.0,0.0,0.0,0.0,0.0,0.0,0.0,0.0,0.0,0.0,0.0,0.0,3.8203,3.8768,3.8819,3.7753,3.7269,3.9385,3.8802,0.0,3.9723,4.0028,4.0062,4.0163,4.0146,4.0146,4.0316,4.1474,4.2895,4.4395,4.5179,4.5618,4.5618,4.5618,4.5348,4.4682,4.4615,4.4615,4.4615,4.4615,4.4615,4.4615,4.4615,4.4581,4.453,4.4541,4.4202,4.3447,4.3484,4.3344,4.3044,4.2992,4.3228,4.3652,4.2903,4.2904,4.3435,4.2825,4.2884,4.3394,4.348,4.3515,4.3515,4.3515,4.3515,4.3515,4.3515,4.3515,4.3515,0.0,0.0,0.0,0.0,0.0,0.0,0.0,0.0,0.0,0.0,2.6785,2.7542,2.7686,2.7568,2.7758,0.0,0.0,0.0,0.0,0.0,0.0,0.0,0.0,0.0,0.0,2.931,2.9562,3.01,2.9859,2.9966,3.0399,3.0783,3.1793,3.3263,3.343,0.0,0.0,0.0,0.0,0.0,0.0,0.0,0.0,0.0,0.0,0.0,3.2303,3.2287,0.0,0.0,0.0,0.0,0.0,0.0,0.0,0.0,3.391,3.4982,3.5283,0.0,3.6552,3.7144,3.6586,3.618,0.0,3.732,3.7489,3.8937,3.9242,3.9597,4.073,4.0485,4.0646,4.2354,4.2929,4.3487,4.4479,4.475,4.4869,4.4869,4.4869,4.4801,4.4632,4.4615,4.4615,4.4615,4.4615,4.4615,4.4615,4.4615,4.4316,4.3707,4.4046,4.4138,4.3949,4.4343,4.4216,4.3545,4.2969,4.2926,4.3375,4.2633,4.2647,4.3248,4.3104,4.3196,4.348,4.3497,4.3515,4.3515,4.3515,4.3515,4.3515,4.3515,4.3515,4.3515,0.0,0.0,0.0,0.0,0.0,0.0,0.0,0.0,0.0,0.0,0.0,0.0,0.0,0.0,0.0,0.0,0.0,0.0,0.0,0.0,0.0,0.0,0.0,0.0,0.0,2.9048,2.9287,3.01,2.9562,2.9364,2.9495,2.9816,3.0764,3.2163,3.2787,0.0,0.0,0.0,0.0,0.0,0.0,0.0,0.0,0.0,0.0,0.0,3.2034,3.2034,0.0,3.2392,3.2288,3.2108,0.0,0.0,0.0,0.0,3.3482,3.4512,3.4366,3.5289,3.6374,3.6709,3.6468,3.6349,3.7127,3.7049,3.7134,3.8261,3.8497,3.8836,3.9986,4.0138,4.0595,4.2151,4.2675,4.3166,4.3944,4.4654,4.4976,4.4649,4.4615,4.4615,4.4615,4.4615,4.4615,4.4615,4.4615,4.4445,4.4062,4.4259,4.4036,4.3242,4.3905,4.3903,4.3105,4.3602,4.3569,4.2997,4.2612,4.2676,4.3109,4.2773,4.2825,4.3196,4.3269,4.3375,4.3515,4.3515,4.3515,4.3515,4.3515,4.3515,4.3515,4.3515,4.3515,4.3515,0.0,0.0,0.0,0.0,0.0,0.0,0.0,0.0,0.0,0.0,0.0,0.0,0.0,0.0,0.0,0.0,0.0,0.0,0.0,0.0,0.0,0.0,0.0,2.8124,2.9153,2.876,2.9,2.997,2.9523,2.9009,2.8407,2.898,2.9747,3.0718,3.1835,0.0,0.0,0.0,0.0,0.0,0.0,0.0,0.0,0.0,0.0,0.0,0.0,0.0,0.0,3.2153,3.2003,3.1658,3.2373,0.0,0.0,0.0,0.0,0.0,3.4045,3.5481,3.687,3.6656,3.6711,3.6948,3.7432,3.706,3.6823,3.7584,3.7736,3.8024,3.8988,3.9597,4.0231,4.1221,4.188,4.2591,4.347,4.4604,4.5162,4.4666,4.4615,4.4615,4.4615,4.4496,4.4429,4.4429,4.4327,4.3999,4.3376,4.3716,4.3622,4.2955,4.3852,4.3554,4.1973,4.2542,4.2668,4.2318,4.2318,4.2536,4.2938,4.3049,4.3142,4.3233,4.334,4.3446,4.3515,4.3515,4.3515,4.3515,4.3515,4.3515,4.3515,4.3515,4.3515,4.3515,0.0,0.0,0.0,0.0,0.0,0.0,0.0,0.0,0.0,0.0,0.0,0.0,0.0,0.0,0.0,0.0,0.0,0.0,0.0,0.0,0.0,0.0,2.8569,2.8368,2.8551,2.897,2.9235,2.9405,2.9327,2.9009,2.8394,2.8564,2.9604,3.1375,3.156,3.2709,0.0,0.0,0.0,0.0,3.4098,0.0,0.0,0.0,0.0,0.0,0.0,0.0,0.0,3.163,3.1716,3.1814,3.2033,0.0,0.0,0.0,0.0,0.0,3.4284,3.5308,3.6105,3.584,3.6299,3.666,3.6073,3.5853,3.6011,3.6812,3.6981,3.7591,3.9571,3.9495,3.9817,4.1796,4.2219,4.2794,4.4225,4.4028,4.3961,4.4547,4.4615,4.4615,4.4615,4.3978,4.3589,4.3589,4.2997,4.276,4.3048,4.3133,4.3019,4.2667,4.3195,4.3056,4.2168,4.3281,4.3505,4.2806,4.2806,4.2881,4.3067,4.3086,4.3196,4.3358,4.3394,4.3446,4.3515,4.3515,4.3515,4.3515,4.3515,4.3515,4.3515,4.3515,4.3515,4.3515,0.0,0.0,0.0,0.0,0.0,0.0,0.0,0.0,0.0,0.0,0.0,0.0,0.0,0.0,0.0,0.0,0.0,0.0,0.0,0.0,0.0,2.9745,2.9183,2.8747,2.842,2.8682,2.8826,2.8826,2.8826,2.849,2.7915,2.8323,2.9393,3.0971,3.1344,3.2601,3.4488,0.0,0.0,0.0,0.0,0.0,0.0,0.0,0.0,0.0,0.0,0.0,0.0,0.0,3.1626,3.1813,3.1968,0.0,0.0,0.0,0.0,0.0,3.4512,3.5547,3.629,3.574,3.6502,3.7178,3.6417,3.6248,3.6231,3.6163,3.6146,3.684,3.9097,3.9546,4.0324,4.254,4.325,4.3623,4.391,4.4012,4.4181,4.4564,4.4615,4.4445,4.3995,4.3639,4.325,4.2844,4.2737,4.2612,4.2408,4.2887,4.2929,4.2412,4.2836,4.2935,4.2595,4.3168,4.3281,4.2901,4.2901,4.2938,4.2994,4.3087,4.3196,4.3305,4.3411,4.3463,4.3515,4.3515,4.3515,4.3515,4.3515,4.3515,4.3515,4.3515,4.3515,4.3515,0.0,0.0,0.0,0.0,0.0,0.0,0.0,0.0,0.0,0.0,0.0,0.0,0.0,0.0,0.0,0.0,0.0,0.0,0.0,0.0,3.0035,2.9905,2.9771,2.931,2.8433,2.842,2.842,2.842,2.8551,2.836,2.7941,2.8306,2.9277,3.0739,3.1088,3.2372,3.4264,3.4114,3.4412,0.0,0.0,0.0,0.0,0.0,0.0,0.0,0.0,0.0,0.0,0.0,0.0,0.0,0.0,0.0,0.0,3.3339,3.3869,3.4292,3.4857,3.5729,3.6366,3.5752,3.6637,3.7483,3.6931,3.6795,3.6677,3.6225,3.614,3.6715,3.865,3.9901,4.1161,4.2878,4.3961,4.4395,4.3775,4.4045,4.4316,4.4316,4.4175,4.3809,4.3217,4.2997,4.2712,4.2234,4.2397,4.2341,4.1997,4.2648,4.2825,4.2376,4.2711,4.2901,4.2901,4.2901,4.2901,4.2901,4.2901,4.2919,4.2938,4.3123,4.3214,4.3251,4.3428,4.3515,4.3515,4.3515,4.3515,4.3515,4.3515,4.3515,4.3515,4.3515,4.3515,4.3515,0.0,0.0,0.0,0.0,0.0,0.0,0.0,0.0,0.0,0.0,0.0,0.0,0.0,0.0,0.0,0.0,0.0,0.0,0.0,0.0,2.9902,2.9366,3.032,3.0085,2.8446,2.842,2.842,2.842,2.897,2.9196,2.9144,2.8651,2.945,3.1321,3.0726,3.1639,3.3529,3.2916,3.3036,0.0,0.0,0.0,0.0,0.0,0.0,0.0,0.0,0.0,0.0,0.0,0.0,0.0,0.0,0.0,3.3339,3.4366,3.4697,3.4857,3.5402,3.5611,3.5667,3.5616,3.6248,3.688,3.6812,3.6795,3.6998,3.7618,3.7736,3.799,3.8836,4.0713,4.2185,4.2337,4.3633,4.4581,4.453,4.3927,4.3504,4.3504,4.2878,4.2422,4.2371,4.1762,4.1512,4.1911,4.133,4.1319,4.2124,4.2246,4.2452,4.2844,4.2882,4.2901,4.2901,4.2901,4.2901,4.2901,4.2901,4.2975,4.3086,4.316,4.3269,4.3394,4.3463,4.3515,4.3515,4.3515,4.3515,4.3515,4.3515,4.3515,4.3515,4.3515,4.3515,4.3515,0.0,0.0,0.0,0.0,0.0,0.0,0.0,0.0,0.0,0.0,0.0,0.0,0.0,0.0,0.0,0.0,0.0,0.0,0.0,0.0,2.9274,2.9797,2.9876,2.965,2.8948,2.897,2.88,2.842,2.8643,2.8943,2.931,2.8695,2.9248,3.0792,3.0947,3.1706,3.2901,3.3051,3.326,3.344,0.0,0.0,0.0,0.0,0.0,0.0,0.0,0.0,0.0,0.0,3.2122,3.2547,0.0,3.3329,3.3843,3.4577,3.4793,3.4927,3.5447,3.56,3.56,3.56,3.5842,3.618,3.6694,3.7144,3.7567,3.7838,3.7905,3.8278,3.9469,4.1128,4.2286,4.2286,4.2777,4.3176,4.3176,4.2912,4.2726,4.2726,4.2729,4.2561,4.2107,4.2071,4.1955,4.1661,4.1657,4.1842,4.2177,4.2478,4.2711,4.2882,4.2901,4.2901,4.2901,4.2901,4.2901,4.2901,4.2901,4.2938,4.2994,4.3123,4.3233,4.3286,4.3445,4.3515,4.3515,4.3515,4.3515,4.3515,4.3515,4.3515,4.3515,4.3515,4.3515,4.3515,0.0,0.0,0.0,0.0,0.0,0.0,0.0,0.0,0.0,0.0,0.0,0.0,0.0,0.0,0.0,0.0,0.0,0.0,0.0,2.8281,2.8739,2.9549,2.9379,2.931,2.931,2.931,2.9022,2.842,2.842,2.8721,2.931,2.8695,2.91,3.041,3.0665,3.1319,3.2198,3.245,3.2675,3.2841,3.2363,0.0,0.0,0.0,0.0,0.0,0.0,0.0,0.0,0.0,3.2453,0.0,0.0,0.0,0.0,0.0,3.5045,3.5115,3.5492,3.56,3.56,3.56,3.5785,3.618,3.6958,3.7533,3.8041,3.8497,3.8582,3.8903,3.991,4.1128,4.1948,4.1948,4.2151,4.2286,4.2286,4.21,4.201,4.215,4.2243,4.2154,4.181,4.2044,4.2105,4.1753,4.2032,4.2259,4.2418,4.2731,4.2901,4.2901,4.2901,4.2901,4.2901,4.2901,4.2901,4.2901,4.2901,4.2901,4.2901,4.3105,4.3214,4.3196,4.341,4.3515,4.3515,4.3515,4.3515,4.3515,4.3515,4.3515,4.3515,4.3515,4.3515,4.3515,0.0,0.0,0.0,0.0,0.0,0.0,0.0,0.0,0.0,0.0,0.0,0.0,0.0,0.0,0.0,0.0,0.0,0.0,0.0,2.8059,2.8407,2.842,2.8948,2.931,2.931,2.931,2.9022,2.842,2.842,2.8721,2.931,2.8695,2.9109,3.0337,2.9686,3.0188,3.1455,3.0785,3.0896,3.1511,3.1511,3.1511,0.0,0.0,0.0,0.0,0.0,0.0,0.0,0.0,3.2895,3.3224,0.0,0.0,0.0,3.5447,3.56,3.56,3.56,3.56,3.56,3.56,3.6197,3.6998,3.7736,3.7922,3.8328,3.9808,4.0096,4.0096,4.0096,4.0696,4.1187,4.1187,4.1796,4.2296,4.2296,4.167,4.1376,4.1832,4.125,4.0995,4.1459,4.1503,4.1717,4.2157,4.2216,4.2418,4.2882,4.2901,4.2901,4.2901,4.2901,4.2901,4.2901,4.2901,4.2901,4.2901,4.2901,4.2901,4.2901,4.3105,4.3214,4.3196,4.341,4.3515,4.3515,4.3515,4.3515,4.3515,4.3515,4.3515,4.3515,4.3515,4.3515,4.3515,0.0,0.0,0.0,0.0,0.0,0.0,0.0,0.0,0.0,0.0,0.0,0.0,0.0,0.0,0.0,0.0,0.0,0.0,0.0,2.7659,2.7968,2.8394,2.859,2.8682,2.8682,2.8682,2.88,2.9048,2.8616,2.8721,0.0,2.8695,2.8862,2.9686,2.9509,2.9919,3.0785,3.0567,3.0896,3.1511,3.1511,3.1511,0.0,0.0,0.0,0.0,0.0,0.0,0.0,0.0,0.0,0.0,0.0,0.0,0.0,3.5538,3.56,3.56,3.56,3.56,3.56,3.56,3.6197,3.6998,3.7736,3.8311,3.8937,3.991,4.0096,4.0096,4.0096,4.0282,4.0434,4.0434,4.0889,4.1231,4.1231,4.1339,4.1447,4.1607,4.1728,4.1825,4.1973,4.23,4.2537,4.2673,4.2692,4.275,4.2882,4.2901,4.2901,4.2901,4.2901,4.2901,4.2901,4.2901,4.2901,4.2901,4.2901,4.2901,4.2901,4.3105,4.3214,4.3196,4.341,4.3515,4.3515,4.3515,4.3515,4.3515,4.3515,4.3515,4.3515,4.3515,4.3515,4.3515,0.0,0.0,0.0,0.0,0.0,0.0,0.0,0.0,0.0,0.0,0.0,0.0,0.0,0.0,0.0,0.0,0.0,0.0,0.0,0.0,2.7646,2.8033,2.8255,2.8595,2.9065,2.9078,2.9248,0.0,0.0,0.0,2.8582,2.8216,2.827,2.8659,2.8659,2.9021,2.9718,2.9981,3.0494,3.1117,3.138,3.1511,3.1511,0.0,0.0,0.0,0.0,0.0,0.0,0.0,0.0,0.0,3.4864,0.0,3.56,3.56,3.56,3.56,3.56,3.56,3.5667,3.6011,3.6654,3.7499,3.8531,3.9106,3.9571,4.0011,4.0096,4.0096,4.0096,4.0254,4.0377,4.0377,4.0761,4.1088,4.1088,4.1303,4.1569,4.176,4.2032,4.2259,4.2458,4.2731,4.2901,4.2901,4.2901,4.2901,4.2901,4.2901,4.2901,4.2901,4.2901,4.2901,4.2901,4.2901,4.2901,4.2901,4.2938,4.2975,4.2994,4.3123,4.3214,4.3196,4.341,4.3515,4.3515,4.3515,4.3515,4.3515,4.3515,4.3515,4.3515,4.3515,4.3515,4.3515,0.0,0.0,0.0,0.0,0.0,0.0,0.0,0.0,0.0,0.0,0.0,0.0,0.0,0.0,0.0,0.0,0.0,0.0,0.0,0.0,0.0,0.0,0.0,0.0,0.0,0.0,0.0,0.0,0.0,2.8111,2.7568,2.7529,2.749,2.749,2.749,2.7875,2.8546,2.9142,2.9827,3.0554,3.1161,3.1438,3.1511,3.1511,0.0,0.0,0.0,0.0,0.0,0.0,0.0,0.0,3.5247,3.56,3.56,3.56,3.56,3.56,3.56,3.56,3.5785,3.6609,3.7398,3.8386,3.9824,4.0171,4.0146,4.0096,4.0096,4.0121,4.0146,4.0507,4.0825,4.0873,4.1253,4.1569,4.1569,4.1591,4.1803,4.2218,4.2259,4.2438,4.2863,4.2901,4.2901,4.2901,4.2901,4.2901,4.2901,4.2901,4.2901,4.2901,4.2901,4.2901,4.2901,4.2901,4.2901,4.2901,4.303,4.3104,4.3104,4.3178,4.3233,4.3251,4.341,4.3515,4.3515,4.3515,4.3515,4.3515,4.3515,4.3515,4.3515,4.3515,4.3515,4.3515,0.0,0.0,0.0,0.0,0.0,0.0,0.0,0.0,0.0,0.0,0.0,0.0,0.0,0.0,0.0,0.0,0.0,0.0,0.0,0.0,0.0,0.0,0.0,0.0,0.0,0.0,0.0,0.0,0.0,2.8307,2.819,2.7699,2.749,2.749,2.749,2.7875,2.8514,2.8661,2.9407,3.0524,3.0644,3.1029,3.1511,3.1511,3.1511,0.0,0.0,0.0,0.0,0.0,0.0,0.0,3.5247,3.56,3.56,3.56,3.56,3.56,3.56,3.56,3.5785,3.6609,3.7794,3.9093,4.035,4.0652,4.0556,4.0171,4.0096,4.0204,4.058,4.0731,4.0926,4.1298,4.1739,4.2053,4.2053,4.236,4.2653,4.2749,4.275,4.2787,4.2882,4.2901,4.2901,4.2901,4.2901,4.2901,4.2901,4.2901,4.2901,4.2901,4.2901,4.2901,4.2901,4.2901,4.2901,4.2901,4.303,4.3104,4.3104,4.3287,4.3394,4.3445,4.3479,4.3515,4.3515,4.3515,4.3515,4.3515,4.3515,4.3515,4.3515,4.3515,4.3515,4.3515,0.0,0.0,0.0,0.0,0.0,0.0,0.0,0.0,0.0,0.0,0.0,0.0,0.0,0.0,0.0,0.0,0.0,0.0,0.0,0.0,2.7915,2.8778,0.0,0.0,0.0,0.0,0.0,0.0,0.0,2.8242,2.7968,2.7633,2.749,2.749,2.749,2.7689,2.8039,2.8352,2.8917,2.9594,3.0238,3.0703,3.1058,3.138,3.1511,3.1524,3.1798,0.0,0.0,0.0,0.0,0.0,0.0,0.0,3.56,3.56,3.56,3.56,3.56,3.56,3.587,3.7043,3.8333,3.9576,4.0576,4.0972,4.1088,4.0832,4.0761,4.0855,4.1094,4.1321,4.1543,4.1803,4.2218,4.2555,4.2555,4.2749,4.2901,4.2901,4.2901,4.2901,4.2901,4.2901,4.2901,4.2901,4.2901,4.2901,4.2901,4.2901,4.2901,4.2901,4.2901,4.2901,4.2901,4.2901,4.2901,4.2901,4.3068,4.3196,4.3305,4.3376,4.3446,4.3515,4.3515,4.3515,4.3515,4.3515,4.3515,4.3515,4.3515,4.3515,4.3515,4.3515,4.3515,4.3515,0.0,0.0,0.0,0.0,0.0,0.0,0.0,0.0,0.0,0.0,0.0,0.0,0.0,0.0,0.0,0.0,0.0,0.0,0.0,2.7594,2.8111,2.9114,0.0,0.0,0.0,0.0,0.0,0.0,2.8281,2.8098,2.7824,2.7594,2.749,2.749,2.749,2.749,2.7523,2.8105,2.8384,2.861,2.9827,3.0389,3.0584,3.1248,3.1511,3.1539,3.1883,3.1996,3.2191,3.3433,0.0,0.0,0.0,0.0,3.56,3.56,3.56,3.56,3.56,3.5701,3.614,3.7567,3.8811,3.9911,4.0729,4.1276,4.1635,4.1721,4.1613,4.1525,4.1609,4.1931,4.2236,4.2318,4.2653,4.2901,4.2901,4.2901,4.2901,4.2901,4.2901,4.2901,4.2901,4.2901,4.2901,4.2901,4.2901,4.2901,4.2901,4.2901,4.2901,4.2901,4.2901,4.2901,4.2901,4.2901,4.2901,4.2901,4.3105,4.3322,4.3497,4.3446,4.3446,4.3515,4.3515,4.3515,4.3515,4.3515,4.3515,4.3515,4.3515,4.3515,4.3515,4.3515,4.3515,4.3515,0.0,0.0,0.0,0.0,0.0,0.0,0.0,0.0,0.0,0.0,2.749,2.749,2.749,2.749,0.0,0.0,0.0,0.0,2.749,0.0,0.0,0.0,0.0,0.0,0.0,0.0,0.0,0.0,2.7889,2.8124,2.9026,2.8007,2.749,2.749,2.749,2.749,2.749,2.759,2.7973,2.8578,2.9331,2.9981,3.0584,3.1248,3.1511,3.1539,3.1883,3.1996,3.215,3.3013,3.3614,0.0,0.0,0.0,3.56,3.56,3.56,3.56,3.56,3.6113,3.684,3.7702,3.8811,4.0003,4.1146,4.1782,4.2218,4.2634,4.2077,4.1613,4.2032,4.2157,4.232,4.2731,4.2863,4.2901,4.2901,4.2901,4.2901,4.2901,4.2901,4.2901,4.2901,4.2901,4.2901,4.2901,4.2901,4.2901,4.2901,4.2901,4.2901,4.2901,4.2901,4.2901,4.2901,4.2901,4.2901,4.2901,4.3105,4.3322,4.3515,4.3497,4.3497,4.3515,4.3515,4.3515,4.3515,4.3515,4.3515,4.3515,4.3515,4.3515,4.3515,4.3515,4.3515,4.3515,0.0,0.0,0.0,0.0,0.0,0.0,0.0,0.0,0.0,0.0,0.0,2.749,2.749,2.749,0.0,0.0,0.0,0.0,2.749,2.7771,0.0,0.0,0.0,0.0,0.0,0.0,0.0,2.7902,2.762,2.7764,2.8294,2.8098,2.8177,2.8477,2.779,2.749,2.749,2.749,2.7656,2.8012,2.8675,2.9332,2.9999,3.0688,3.1167,3.1539,3.1883,3.1996,3.2122,3.2922,3.3563,3.4086,3.4625,0.0,0.0,0.0,3.56,3.56,3.56,3.5853,3.6367,3.7388,3.8558,3.9787,4.0951,4.1937,4.2653,4.2863,4.2577,4.234,4.2537,4.2595,4.2653,4.2863,4.2901,4.2901,4.2901,4.2901,4.2901,4.2901,4.2901,4.2901,4.2901,4.2901,4.2901,4.2901,4.2901,4.2901,4.2901,4.2901,4.2901,4.2901,4.2901,4.2901,4.2901,4.2901,4.2957,4.3068,4.316,4.3322,4.3515,4.3515,4.3515,4.3515,4.3515,4.3515,4.3515,4.3515,4.3515,4.3515,4.3515,4.3515,4.3515,4.3515,4.3515,4.3515,0.0,0.0,0.0,0.0,0.0,0.0,0.0,0.0,0.0,0.0,0.0,0.0,2.749,0.0,0.0,0.0,0.0,0.0,2.749,0.0,0.0,0.0,0.0,0.0,0.0,0.0,2.7954,2.749,2.749,2.7646,2.7947,2.8098,2.8569,2.9235,2.8203,2.7633,2.749,2.749,2.749,2.7584,2.8426,2.9066,2.9572,3.0425,3.1062,3.1539,3.1883,3.1996,3.2094,3.2761,3.3355,3.3862,3.4202,3.4692,0.0,0.0,0.0,3.5312,3.5312,3.5447,3.5881,3.7084,3.8206,3.9347,4.0689,4.1818,4.2592,4.2592,4.2592,4.2592,4.2592,4.2755,4.2901,4.2901,4.2901,4.2901,4.2901,4.2901,4.2901,4.2901,4.2901,4.2901,4.2901,4.2901,4.2901,4.2901,4.2901,4.2901,4.2901,4.2901,4.2901,4.2901,4.2901,4.2901,4.2901,4.2901,4.3013,4.3214,4.3214,4.3322,4.3515,4.3515,4.3515,4.3515,4.3515,4.3515,4.3515,4.3515,4.3515,4.3515,4.3515,4.3515,4.3515,4.3515,4.3515,4.3515,0.0,0.0,0.0,0.0,0.0,0.0,0.0,0.0,0.0,0.0,0.0,0.0,0.0,0.0,0.0,0.0,0.0,0.0,0.0,0.0,0.0,0.0,0.0,0.0,0.0,2.7542,2.7529,2.749,2.749,2.8098,2.917,2.8085,2.8177,2.9284,2.8656,2.8033,2.749,2.749,2.749,2.761,2.8911,2.9476,2.9628,3.0955,3.1466,3.1539,3.1883,3.1996,3.2053,3.2342,3.2803,3.3202,3.3038,3.3376,3.3771,0.0,0.0,0.0,3.4556,3.5081,3.5881,3.7084,3.7784,3.8657,4.0564,4.1405,4.1759,4.1759,4.1759,4.1759,4.1759,4.2393,4.2901,4.2901,4.2901,4.2901,4.2901,4.2901,4.2901,4.2901,4.2901,4.2901,4.2901,4.2901,4.2901,4.2901,4.2901,4.2901,4.2901,4.2901,4.2901,4.2901,4.2901,4.2901,4.2901,4.2901,4.3013,4.3214,4.3214,4.3322,4.3515,4.3515,4.3515,4.3515,4.3515,4.3515,4.3515,4.3515,4.3515,4.3515,4.3515,4.3515,4.3515,4.3515,4.3515,4.3515,0.0,0.0,0.0,0.0,0.0,0.0,0.0,0.0,0.0,0.0,0.0,0.0,0.0,2.749,2.749,2.749,0.0,0.0,0.0,0.0,0.0,0.0,0.0,0.0,0.0,2.749,2.749,2.749,2.7941,2.812,2.815,2.8558,2.8525,2.815,2.7928,2.7686,2.749,2.749,2.749,2.7584,2.8494,2.9122,2.9586,3.0513,3.1207,3.1727,3.194,3.2053,3.215,3.2342,3.2776,3.3124,3.2596,3.304,3.3659,3.346,3.3914,3.4387,3.3931,3.467,3.5732,3.6238,3.7239,3.8437,3.9677,4.0474,4.0926,4.0926,4.0926,4.0926,4.0926,4.1578,4.2303,4.2829,4.2901,4.2901,4.2901,4.2901,4.2901,4.2901,4.2901,4.2901,4.2901,4.2901,4.2901,4.2901,4.2901,4.2901,4.2901,4.2901,4.2901,4.2901,4.2901,4.2901,4.2901,4.2994,4.3105,4.3214,4.3287,4.3375,4.3515,4.3515,4.3515,4.3515,4.3515,4.3515,4.3515,4.3515,4.3515,4.3515,4.3515,4.3515,4.3515,4.3515,4.3515,4.3515,0.0,0.0,0.0,0.0,0.0,0.0,0.0,0.0,0.0,2.749,0.0,0.0,0.0,0.0,2.749,2.749,2.749,0.0,0.0,0.0,0.0,0.0,0.0,0.0,0.0,2.7723,2.7842,2.7842,2.85,2.8629,2.8189,2.9024,2.888,2.7842,2.7842,2.7723,2.749,2.749,2.749,2.7564,2.8211,2.8906,2.9586,3.0251,3.1006,3.1727,3.194,3.2066,3.2163,3.2342,3.2641,3.2818,3.2063,3.2216,3.2636,3.2656,3.3355,3.3964,3.322,3.4303,3.5596,3.5598,3.6564,3.78,3.8905,3.9536,3.9932,4.0094,4.013,4.013,4.013,4.0582,4.127,4.2321,4.2775,4.2994,4.2901,4.2938,4.2938,4.2919,4.2901,4.2901,4.2901,4.2901,4.2901,4.2901,4.2901,4.2901,4.2901,4.2901,4.2901,4.2901,4.2901,4.2919,4.2975,4.3067,4.316,4.3269,4.3376,4.3429,4.3515,4.3515,4.3515,4.3515,4.3515,4.3515,4.3515,4.3515,4.3515,4.3515,4.3515,4.3515,4.3515,4.3515,4.3515,4.3515,0.0,0.0,0.0,0.0,0.0,0.0,0.0,0.0,2.749,2.749,0.0,0.0,0.0,0.0,0.0,2.749,2.749,2.749,2.749,2.749,0.0,0.0,0.0,0.0,2.749,2.8157,2.8514,2.8514,2.9205,2.9504,2.9504,2.9504,2.9174,2.8546,2.8546,2.8157,2.7497,2.749,2.749,2.7556,2.8222,2.8903,2.9566,3.0238,3.0925,3.1568,3.1883,3.1996,3.2053,3.233,3.2398,3.2233,3.136,3.0797,3.0559,3.1035,3.2239,3.3237,0.0,0.0,0.0,3.5218,3.5718,3.6707,3.828,3.8647,3.8795,3.9246,3.9334,3.9351,3.9351,3.9387,3.9894,4.1415,4.2505,4.3105,4.292,4.3012,4.3049,4.2919,4.2901,4.2901,4.2901,4.2901,4.2901,4.2901,4.2901,4.2901,4.2901,4.2901,4.2901,4.2901,4.2901,4.2975,4.3104,4.3104,4.3215,4.3394,4.3412,4.3446,4.3515,4.3515,4.3515,4.3515,4.3515,4.3515,4.3515,4.3515,4.3515,4.3515,4.3515,4.3515,4.3515,4.3515,4.3515,4.3515,0.0,0.0,0.0,0.0,0.0,2.749,2.749,2.749,2.749,0.0,0.0,0.0,2.749,2.749,2.749,2.749,2.749,2.749,2.749,2.749,2.749,2.749,2.749,2.749,2.749,2.8157,2.8514,2.8514,2.9656,2.9981,2.9504,3.0011,2.9858,2.9237,2.9237,2.8624,2.765,2.7538,2.749,2.7556,2.8222,2.8903,2.9566,3.0238,3.0999,3.1727,3.1813,3.1968,3.215,3.2247,3.2315,3.2233,3.136,3.0581,3.0097,3.0576,3.1997,3.3119,3.185,0.0,0.0,0.0,0.0,0.0,3.7099,3.7392,3.7508,3.7953,3.8026,3.8133,3.8466,3.9057,3.9764,4.0673,4.156,4.2304,4.2829,4.2938,4.2938,4.2901,4.2901,4.2901,4.2901,4.2901,4.2901,4.2901,4.2901,4.2901,4.2901,4.2901,4.2901,4.2901,4.2994,4.3049,4.3104,4.3251,4.3341,4.3394,4.3464,4.348,4.3515,4.3515,4.3515,4.3515,4.3515,4.3515,4.3515,4.3515,4.3515,4.3515,4.3515,4.3515,4.3515,4.3515,4.3515,4.3515,0.0,0.0,0.0,0.0,0.0,2.749,2.749,2.749,2.749,0.0,0.0,0.0,2.749,2.749,2.749,2.749,2.749,2.749,2.749,2.749,2.749,2.749,2.7776,2.7908,2.7908,2.8839,2.9345,2.9345,3.0404,3.0718,3.0329,3.0748,3.0554,2.9919,2.9919,2.9383,2.8439,2.837,2.7879,2.7275,2.8462,2.9306,2.9978,3.0657,3.1397,3.2074,3.1861,3.1955,3.2122,3.2163,3.2103,3.189,3.1281,3.076,3.0351,3.0474,3.1712,3.2866,3.1928,3.3034,3.4367,3.3874,0.0,0.0,3.5986,3.619,3.654,3.7751,3.7737,3.7757,3.8557,3.8841,3.9202,3.9912,4.0691,4.1615,4.2756,4.2938,4.2957,4.2919,4.2901,4.2901,4.2901,4.2901,4.2901,4.2901,4.2901,4.2919,4.2975,4.2994,4.2994,4.2994,4.3086,4.3142,4.3142,4.3305,4.3411,4.3446,4.348,4.3515,4.3515,4.3515,4.3515,4.3515,4.3515,4.3515,4.3515,4.3515,4.3515,4.3515,4.3515,4.3515,4.3515,4.3515,4.3515,4.3515,0.0,0.0,2.8137,2.7659,2.7529,2.749,2.749,2.749,2.749,0.0,2.749,2.749,2.749,2.749,2.749,2.749,2.749,2.749,2.749,2.749,2.749,2.749,2.8124,2.8514,2.8514,2.9811,3.0494,3.0494,3.1161,3.1511,3.1511,3.1511,3.119,3.0614,3.0614,3.0195,2.9529,2.9569,2.8577,2.7088,2.8888,3.0025,3.0687,3.1353,3.2029,3.2557,3.2134,3.2036,3.2116,3.2193,3.1857,3.1354,3.1183,3.1124,3.1029,3.0664,3.1577,3.2674,3.2391,3.3402,3.4336,3.3694,3.4015,0.0,3.5143,3.5225,3.585,3.799,3.7857,3.7737,3.8976,3.8611,3.8411,3.926,3.9948,4.0944,4.2538,4.2939,4.303,4.2901,4.2901,4.2901,4.2901,4.2901,4.2919,4.2919,4.2938,4.2994,4.3104,4.3104,4.3104,4.3104,4.3178,4.3233,4.3233,4.334,4.3446,4.3515,4.3515,4.3515,4.3515,4.3515,4.3515,4.3515,4.3515,4.3515,4.3515,4.3515,4.3515,4.3515,4.3515,4.3515,4.3515,4.3515,4.3515,4.3515,0.0,2.7941,2.7798,2.815,2.7837,2.749,2.749,2.749,2.749,2.749,2.749,2.749,2.749,2.749,2.749,2.749,2.749,0.0,0.0,2.749,2.749,2.749,2.8124,2.8514,2.8514,2.9811,3.0494,3.0494,3.1161,3.1511,3.1511,3.1511,3.1438,3.1307,3.1307,3.0675,2.9696,3.0113,2.9517,2.8441,2.975,3.0718,3.1387,3.2034,3.2737,3.329,3.3186,3.302,3.2768,3.2458,3.1869,3.1232,3.1334,3.1222,3.1097,3.1006,3.2171,3.3359,3.2713,3.3493,3.4455,3.432,3.4387,0.0,3.536,3.5518,3.5757,3.6606,3.664,3.6794,3.7701,3.7739,3.8026,3.9208,3.9514,4.0166,4.1705,4.2521,4.2938,4.2901,4.2901,4.2901,4.2901,4.2901,4.2938,4.3049,4.3105,4.3142,4.3178,4.3178,4.3178,4.3178,4.3305,4.3358,4.3358,4.3428,4.3497,4.3515,4.3515,4.3515,4.3515,4.3515,4.3515,4.3515,4.3515,4.3515,4.3515,4.3515,4.3515,4.3515,4.3515,4.3515,4.3515,4.3515,4.3515,4.3515,2.7902,2.7699,2.7594,2.7902,2.7686,2.749,2.749,2.749,2.7594,2.7915,2.7954,2.7837,2.7529,2.749,2.749,2.749,2.749,0.0,2.749,2.749,2.7656,2.7973,2.8661,2.9156,2.9501,3.0494,3.0999,3.0999,3.1351,3.1511,3.1511,3.1511,3.1511,3.1511,3.1511,3.1157,3.06,3.0527,3.0353,3.0176,3.1113,3.1711,3.2113,3.3118,3.3713,3.3933,3.3619,3.3502,3.3391,3.2668,3.2342,3.2146,3.1201,3.1305,3.1675,3.124,3.1941,3.2942,3.3093,3.3617,3.4248,3.4879,3.4776,0.0,0.0,3.5312,3.5501,3.7115,3.6857,3.6717,3.81,3.7873,3.7721,3.8348,3.8993,3.9659,4.0437,4.156,4.2303,4.2303,4.2647,4.2901,4.2901,4.2901,4.2975,4.3086,4.316,4.3233,4.3305,4.3305,4.3305,4.3305,4.3411,4.3429,4.3394,4.3463,4.3515,4.3515,4.3515,4.3515,4.3515,4.3515,4.3515,4.3515,4.3515,4.3515,4.3515,4.3515,4.3515,4.3515,4.3515,4.3515,4.3515,4.3515,4.3515,4.3515,2.749,2.749,2.749,2.749,2.749,2.749,2.749,2.749,2.7699,2.8307,2.842,2.8242,2.7902,2.7842,2.7881,2.7986,2.779,2.7712,2.7829,2.7754,2.7941,2.8481,2.9268,2.995,3.0494,3.1161,3.1511,3.1511,3.1511,3.1511,3.1511,3.1511,3.1511,3.1511,3.1511,3.1511,3.1466,3.0763,3.0943,3.175,3.2279,3.243,3.2478,3.3988,3.446,3.4326,3.3952,3.3985,3.403,3.2931,3.2924,3.3049,3.1324,3.1536,3.2249,3.1555,3.1823,3.2488,3.3363,3.3874,3.4363,3.5238,3.52,3.5047,0.0,0.0,0.0,3.7556,3.7038,3.6684,3.8346,3.776,3.7143,3.7341,3.8205,3.8884,3.9011,4.0311,4.1307,4.1451,4.2176,4.2665,4.2665,4.2684,4.2812,4.3105,4.3051,4.3122,4.3411,4.3411,4.3411,4.3411,4.3463,4.348,4.3411,4.3463,4.3515,4.3515,4.3515,4.3515,4.3515,4.3515,4.3515,4.3515,4.3515,4.3515,4.3515,4.3515,4.3515,4.3515,4.3515,4.3515,4.3515,4.3515,4.3515,4.3515,2.749,2.749,2.749,2.749,2.749,2.749,2.749,2.749,2.7699,2.8307,2.842,2.859,2.9026,2.9114,2.9287,2.9761,2.8882,2.8503,2.9052,2.8659,2.8417,2.8514,2.9718,3.0419,3.0494,3.1161,3.1511,3.1511,3.1511,3.1511,3.1511,3.1511,3.1511,3.1511,3.1511,3.1511,3.1466,3.0763,3.124,3.2392,3.2467,3.2139,3.1826,3.3908,3.4361,3.397,3.4729,3.4942,3.4714,3.3637,3.3266,3.3104,3.2401,3.2275,3.2394,3.228,3.2643,3.3098,3.3228,3.446,3.561,3.5013,3.5723,3.6372,3.5735,0.0,3.5554,3.5892,0.0,3.5878,3.6508,0.0,0.0,3.6796,3.6842,3.697,3.7613,3.8833,3.9894,4.0546,4.1343,4.1831,4.1831,4.1941,4.2341,4.3124,4.2647,4.2659,4.3461,4.3497,4.3497,4.3497,4.3497,4.3497,4.3497,4.3497,4.3515,4.3515,4.3515,4.3515,4.3515,4.3515,4.3515,4.3515,4.3515,4.3515,4.3515,4.3515,4.3515,4.3515,4.3515,4.3515,4.3515,4.3515,4.3515,4.3515,2.7656,2.749,2.749,2.749,2.7798,2.7902,2.7542,2.8351,2.8847,2.8438,2.9297,2.9862,2.9784,2.9771,2.9826,3.0074,3.0046,2.9835,2.9386,2.955,2.9676,2.967,3.0208,3.0673,3.1058,3.1351,3.1511,3.1511,3.1511,3.1511,0.0,0.0,3.1511,3.1511,3.1511,3.172,3.2004,3.0956,3.1061,3.1914,3.1914,3.1583,3.1398,3.4226,3.5209,3.5153,3.5598,3.5752,3.5522,3.4417,3.4,3.3848,3.3198,3.2705,3.2475,3.2859,3.2841,3.2788,3.3119,3.377,3.4556,3.53,3.5564,3.575,3.6196,3.5943,3.5718,3.6197,0.0,0.0,0.0,0.0,0.0,0.0,3.6636,3.6874,3.7415,3.7954,3.869,3.975,4.0528,4.0999,4.0999,4.156,4.2068,4.2467,4.2755,4.3062,4.3479,4.3515,4.3515,4.3515,4.3515,4.3515,4.3515,4.3515,4.3515,4.3515,4.3515,4.3515,4.3515,4.3515,4.3515,4.3515,4.3515,4.3515,4.3515,4.3515,4.3515,4.3515,4.3515,4.3515,4.3515,4.3515,4.3515,4.3515,2.8241,2.8059,2.8059,2.8059,2.8405,2.8625,2.8372,2.9233,2.9799,2.952,3.0396,3.1093,3.1192,3.1229,3.1349,3.172,3.192,3.1666,3.0754,3.09,3.106,3.1061,3.0863,3.1087,3.1765,3.16,3.1511,3.1511,3.1511,3.1511,0.0,0.0,3.1511,3.1511,3.1511,3.1898,3.2511,3.1371,3.1476,3.2435,3.2255,3.2221,3.25,3.453,3.5639,3.6132,3.6258,3.6274,3.6136,3.5107,3.4782,3.4659,3.3921,3.3352,3.3059,3.3552,3.3352,3.3033,3.3197,3.3518,3.4012,3.4984,3.5087,3.5158,3.6048,3.5957,3.5851,3.636,3.618,0.0,0.0,0.0,3.5869,3.6075,0.0,3.6613,3.7097,3.7265,3.7774,3.8919,3.9749,4.0275,4.0474,4.1107,4.1559,4.1665,4.23,4.2826,4.3149,4.3167,4.3276,4.3496,4.3515,4.3515,4.3515,4.3515,4.3515,4.3515,4.3515,4.3515,4.3515,4.3515,4.3515,4.3515,4.3515,4.3515,4.3515,4.3515,4.3515,4.3515,4.3515,4.3515,4.3515,4.3515,4.3515,4.3515,2.9442,2.9442,2.9442,2.9442,2.9456,2.9666,3.0305,2.9857,3.0111,3.2022,3.1647,3.1938,3.385,3.4084,3.4562,3.5798,3.486,3.4178,3.405,3.3049,3.2445,3.2431,3.1827,3.1765,3.2437,3.1824,3.1511,3.1511,3.1511,3.1511,0.0,0.0,0.0,0.0,3.1511,3.1972,3.2734,3.2039,3.2957,3.4835,3.4182,3.476,3.5905,3.4759,3.5247,3.6492,3.6492,3.6492,3.6384,3.5722,3.5475,3.5367,3.469,3.4459,3.4443,3.4459,3.4459,3.4289,3.3581,3.4329,3.4991,3.3615,3.4236,3.5114,3.4919,3.5461,3.5921,3.5695,3.6231,3.6518,3.5769,3.5069,3.4781,3.5504,3.5429,0.0,0.0,3.6678,3.7245,3.8142,3.8952,3.9713,4.042,4.0546,4.0635,4.081,4.0881,4.1296,4.2288,4.2341,4.269,4.3478,4.3515,4.3515,4.3515,4.3515,4.3515,4.3515,4.3515,4.3515,4.3515,4.3515,4.3515,4.3515,4.3515,4.3515,4.3515,4.3515,4.3515,4.3515,4.3515,4.3515,4.3515,4.3515,4.3515,4.3515,3.0807,3.0807,3.0554,2.9659,2.9824,3.0315,3.0998,3.1551,3.2152,3.2882,3.3457,3.4208,3.533,3.5451,3.5634,3.6057,3.6174,3.5849,3.4965,3.4647,3.4273,3.3845,3.3168,3.2736,3.2512,3.2273,3.1944,3.1511,3.1511,3.1511,0.0,0.0,0.0,0.0,3.1511,3.2241,3.3427,3.2748,3.3184,3.4334,3.4241,3.5003,3.6165,3.5861,3.6061,3.6492,3.6492,3.6492,3.6461,3.623,3.5891,3.5552,3.5768,3.5213,3.4597,3.5044,3.4859,3.4351,3.3598,3.3738,3.3945,3.3355,3.353,3.3944,3.4209,3.4822,3.5283,3.5101,3.5685,3.6097,3.5667,3.5397,3.5295,3.5549,3.5535,3.5668,0.0,3.6638,3.7113,3.7685,3.8254,3.8716,3.8952,3.9512,3.9888,3.9989,4.0548,4.1052,4.148,4.2011,4.2415,4.269,4.3222,4.3515,4.3515,4.3515,4.3515,4.3515,4.3515,4.3515,4.3515,4.3515,4.3515,4.3515,4.3515,4.3515,4.3515,4.3515,4.3515,4.3515,4.3515,4.3515,4.3515,4.3515,4.3515,4.3515,3.1899,3.1854,3.153,3.0403,3.074,3.1386,3.2051,3.2968,3.3785,3.4338,3.5075,3.5874,3.6798,3.6907,3.7008,3.7238,3.7711,3.7445,3.6123,3.6138,3.5893,3.5252,3.4322,3.3754,3.3574,3.2886,3.2273,3.1854,3.1615,3.1511,0.0,0.0,0.0,0.0,3.1511,3.239,3.3849,3.3426,3.3879,3.4912,3.5018,3.5554,3.6305,3.646,3.6492,3.6492,3.6492,3.6492,3.6492,3.6492,3.6199,3.5953,3.6353,3.5891,3.526,3.5444,3.5198,3.4659,3.366,3.3398,3.3314,3.2986,3.2922,3.3055,3.3588,3.4246,3.4771,3.4849,3.5424,3.5966,3.6085,3.584,3.5684,3.5994,0.0,3.5711,0.0,3.6412,3.6781,3.7055,3.7595,3.802,3.8174,3.8968,3.9362,3.9154,3.9947,4.0487,4.0624,4.1425,4.2011,4.2286,4.3075,4.3515,4.3515,4.3515,4.3515,4.3515,4.3515,4.3515,4.3515,4.3515,4.3515,4.3515,4.3515,4.3515,4.3515,4.3515,4.3515,4.3515,4.3515,4.3515,4.3515,4.3515,4.3515,4.3515,3.2736,3.2617,3.2392,3.1765,3.2138,3.2781,3.344,3.4,3.4892,3.6365,3.6463,3.694,3.8292,3.8437,3.8706,3.9328,3.9388,3.8871,3.7584,3.7479,3.7195,3.6611,3.5357,3.4906,3.5489,3.3604,3.2587,3.2512,3.1824,3.1511,0.0,0.0,0.0,0.0,3.1511,3.2434,3.4015,3.4015,3.4973,3.6492,3.6492,3.6492,3.6492,3.6492,3.6492,3.6492,3.6492,3.6492,3.6492,3.6492,3.6492,3.6492,3.6492,3.6476,3.6322,3.5706,3.5491,3.5167,3.3767,3.3398,3.3244,3.2567,3.2398,3.2547,3.3039,3.3735,3.4387,3.4826,3.5512,3.6191,3.6779,3.6212,3.591,3.6626,0.0,3.56,3.56,3.598,3.628,3.6301,3.6978,3.7632,3.8123,3.888,3.9058,3.8361,3.9062,3.9601,3.9735,4.0588,4.1444,4.2213,4.3057,4.3515,4.3515,4.3515,4.3515,4.3515,4.3515,4.3515,4.3515,4.3515,4.3515,4.3515,4.3515,4.3515,4.3515,4.3515,4.3515,4.3515,4.3515,4.3515,4.3515,4.3515,4.3515,4.3515,3.4008,3.3978,3.3918,3.3754,3.3455,3.3469,3.4159,3.476,3.5681,3.6996,3.758,3.818,3.9044,3.9155,3.923,3.9373,3.9388,3.9239,3.8931,3.8422,3.8063,3.7913,3.7105,3.6297,3.5519,3.4502,3.3499,3.2512,3.1824,3.1511,3.1511,0.0,0.0,0.0,3.167,3.2566,3.4015,3.4119,3.5049,3.6492,3.6492,3.6492,3.6492,3.6492,3.6492,3.6492,3.6492,3.6492,3.6492,3.6492,3.6492,3.6492,3.6492,3.6153,3.5707,3.5568,3.5152,3.4566,3.3644,3.3398,3.3244,3.2567,3.2398,3.2453,3.2559,3.3156,3.3649,3.3668,3.4997,3.5992,3.5464,3.5968,3.6349,3.5977,3.5718,3.56,3.56,3.5694,3.5915,3.6259,3.6492,3.6898,3.7614,3.8217,3.8525,3.8387,3.8583,3.8793,3.8972,4.0278,4.1137,4.1389,4.2763,4.3515,4.3515,4.3515,4.3515,4.3515,4.3515,4.3515,4.3515,4.3515,4.3515,4.3515,4.3515,4.3515,4.3515,4.3515,4.3515,4.3515,4.3515,4.3515,4.3515,4.3515,4.3515,4.3515,3.4683,3.4758,3.5026,3.5327,3.504,3.4831,3.4906,3.5504,3.6282,3.7285,3.7973,3.8542,3.8931,3.923,3.9388,3.9388,3.9388,3.929,3.899,3.8886,3.8706,3.8407,3.8033,3.7509,3.6776,3.5564,3.4412,3.3365,3.2392,3.1795,3.1511,0.0,0.0,0.0,3.1698,3.2473,3.362,3.4437,3.5446,3.6492,3.6492,3.6492,0.0,3.6492,3.6492,3.6492,3.6492,3.6492,3.6492,3.6492,3.6492,3.6492,3.6492,3.623,3.5814,3.5244,3.4813,3.4289,3.3229,3.2952,3.2875,3.249,3.2398,3.2398,3.2398,3.269,3.3089,3.3538,3.4488,3.5438,3.6125,3.6252,3.6129,3.5667,3.56,3.56,3.56,3.56,3.5711,3.5958,3.6174,3.6492,3.6939,3.7632,3.8104,3.8305,3.8382,3.8481,3.8562,4.015,4.1062,4.1095,4.2653,4.3515,4.3515,4.3515,4.3331,4.2983,4.2983,4.2983,4.2983,4.2983,4.3167,4.3515,4.3515,4.3515,4.3515,4.3515,4.3515,4.3515,4.3515,4.3515,4.3515,4.3515,4.3515,4.3515,3.522,3.5415,3.6043,3.6522,3.6611,3.6447,3.5953,3.6297,3.6836,3.7449,3.8108,3.8527,3.8527,3.9065,3.9388,3.9388,3.9388,3.917,3.8556,3.9095,3.9155,3.8556,3.8527,3.8482,3.8392,3.6582,3.525,3.4503,3.3155,3.2153,3.1511,0.0,0.0,3.1511,3.1727,3.2335,3.3299,3.4848,3.5876,3.6492,3.6492,3.6492,3.6492,3.6492,3.6492,3.6492,3.6492,3.6492,3.6492,3.6492,3.6492,3.6492,3.6492,3.643,3.6122,3.4982,3.4582,3.4212,3.2875,3.2521,3.2505,3.2413,3.2398,3.2398,3.2398,3.2398,3.2717,3.3837,3.411,3.4868,3.7232,3.6513,3.56,3.56,3.56,3.56,3.56,3.56,3.56,3.56,3.5958,0.0,3.6301,3.7092,3.7775,3.8105,3.832,3.843,3.8449,4.0024,4.0985,4.1095,4.2561,4.3404,4.3515,4.3387,4.2983,4.2304,4.2194,4.2139,4.2139,4.2139,4.258,4.3332,4.3332,4.3387,4.3515,4.3515,4.3515,4.3515,4.3515,4.3515,4.3515,4.3515,4.3515,4.3515,3.7075,3.7419,3.7749,3.733,3.724,3.7389,3.7823,3.7524,3.7479,3.8138,3.8811,3.923,3.923,3.9313,3.9388,3.9388,3.9388,3.9328,3.9245,3.9313,3.9364,3.9245,3.923,3.8975,3.8407,3.703,3.5714,3.4503,3.3155,3.2153,3.1511,3.1511,3.1511,3.1496,3.1826,3.2823,3.4278,3.5137,3.5876,3.6492,3.6492,3.6492,3.6492,3.6492,3.6492,3.6492,3.6492,3.6492,3.6492,3.6492,3.6492,3.6492,3.6492,3.6107,3.5645,3.5368,3.4936,3.432,3.346,3.3229,3.309,3.2536,3.2398,3.2398,3.2398,3.2398,3.2578,3.325,3.4194,3.5008,3.5308,3.5515,3.56,3.56,3.56,3.56,3.56,3.56,3.56,3.56,3.5667,3.5871,3.6259,3.6856,3.7394,3.7844,3.7896,3.8135,3.8627,3.9511,4.0352,4.1077,4.2029,4.2818,4.3496,4.2837,4.2433,4.2286,4.1627,4.1297,4.1297,4.1297,4.1754,4.2506,4.2506,4.2892,4.3515,4.3515,4.3515,4.3515,4.3515,4.3515,4.3515,4.3515,4.3515,4.3515,3.8377,3.8138,3.7883,3.7913,3.7913,3.8018,3.8347,3.8422,3.8437,3.8392,3.8676,3.8886,3.8886,3.92,3.9388,3.9388,3.9388,3.9388,3.9388,3.9388,3.9388,3.9388,3.9388,3.926,3.8931,3.7973,3.6671,3.5011,3.4023,3.2886,3.167,3.167,3.1683,3.1769,3.2374,3.332,3.4551,3.5229,3.5876,3.6492,3.6492,3.6492,3.6492,3.6492,3.6492,3.6492,3.6492,3.6492,3.6492,3.6492,3.6492,3.6492,3.6492,3.6261,3.5938,3.5614,3.5275,3.4874,3.4152,3.369,3.3321,3.2998,3.2659,3.2398,3.2398,3.2398,3.2547,3.3093,3.3896,3.4676,3.5135,3.5767,3.6096,3.5667,3.56,3.56,3.56,3.56,3.56,3.56,3.56,3.5689,3.5915,3.622,3.6799,3.7685,3.7808,3.8066,3.8559,3.9397,4.0237,4.1058,4.1882,4.2488,4.2873,4.2488,4.1882,4.1038,4.0653,4.0487,4.0487,4.0487,4.1148,4.2304,4.2304,4.2763,4.3515,4.3515,4.3515,4.3515,4.3515,4.3515,4.3515,4.3515,4.3515,4.3515,3.902,3.8467,3.7958,3.8317,3.8512,3.8601,3.8601,3.9065,3.923,3.8676,3.8601,3.8601,3.8601,3.9095,3.9388,3.9388,3.9388,3.9388,3.9388,3.9388,3.9388,3.9388,3.9388,3.9388,3.9388,3.8736,3.7569,3.5908,3.4951,3.3711,3.2191,3.192,3.1974,3.2281,3.2913,3.3746,3.4751,3.529,3.5876,3.6492,3.6492,3.6492,3.6523,3.6631,3.6693,3.6723,3.6831,3.68,3.6693,3.6693,3.6616,3.6492,3.6492,3.6492,3.6384,3.5891,3.5691,3.5583,3.4905,3.4305,3.3767,3.3475,3.2998,3.2567,3.2428,3.2398,3.2574,3.3251,3.3894,3.4601,3.5447,3.6129,3.6332,3.5701,3.56,3.56,3.56,3.56,3.56,3.56,3.56,3.5532,3.538,3.5627,3.619,3.7126,3.756,3.8035,3.8634,3.9289,4.0084,4.1058,4.1552,4.1864,4.2047,4.1882,4.1148,3.99,3.9717,3.9643,3.9643,3.9643,4.0524,4.2047,4.2047,4.2598,4.3515,4.3515,4.3515,4.3515,4.3515,4.3515,4.3515,4.3515,4.3515,4.3515,3.8586,3.8886,3.905,3.8497,3.8901,3.9334,3.9334,3.9379,3.9394,3.9334,3.9334,3.9334,3.9334,3.9343,3.9388,3.9388,3.9388,3.9388,3.9388,3.9388,3.9388,3.9388,3.9388,3.9388,3.9388,3.8736,3.8003,3.7225,3.5385,3.4161,3.3502,3.2342,3.2258,3.3108,3.3169,3.4006,3.5429,3.5491,3.5876,3.6492,3.6492,3.6492,3.6554,3.7104,3.7328,3.7387,3.7924,3.7796,3.7328,3.7328,3.6952,3.6492,3.6492,3.6492,3.6476,3.6415,3.6399,3.6245,3.5598,3.5367,3.4983,3.3721,3.3352,3.3152,3.2536,3.2398,3.2695,3.3716,3.4745,3.547,3.5577,3.565,3.5684,3.5616,3.56,3.56,3.56,3.56,3.56,3.56,3.56,3.5329,3.4675,3.5321,3.5711,3.5548,3.6672,3.79,3.915,3.8956,3.9533,4.104,4.0469,4.0469,4.1205,4.0487,4.0047,3.9882,3.9166,3.8817,3.8817,3.8817,3.9698,4.1205,4.1205,4.2084,4.3515,4.3515,4.3515,4.3515,4.3515,4.3515,4.3515,4.3515,4.3515,4.3515,3.9065,3.8901,3.8841,3.899,3.8901,3.908,3.9888,4.0008,4.0142,4.0546,3.9903,3.9574,3.9963,3.9649,3.9388,3.9388,3.9388,3.9388,3.9388,3.9388,3.9388,3.9388,3.9388,3.9388,3.9388,3.9155,3.8482,3.7404,3.6252,3.5227,3.4285,3.3487,3.3633,3.4617,3.5416,3.6107,3.6722,3.7123,3.7215,3.7123,3.7499,3.7403,3.7104,3.7709,3.7924,3.7982,3.8193,3.8137,3.7924,3.7924,3.7312,3.6492,3.6492,3.6492,3.6585,3.6922,3.7043,3.7055,3.7171,3.6632,3.5806,3.482,3.3991,3.3298,3.2944,3.2895,3.3093,3.386,3.4601,3.5224,3.5554,3.56,3.5752,3.6231,3.5926,3.5752,3.6248,3.591,3.56,3.56,3.5216,3.4827,3.4523,3.4885,3.5109,3.5074,3.6445,3.7649,3.8432,3.9069,3.9717,4.0359,4.0543,4.0543,4.0377,4.0065,3.9662,3.9184,3.8854,3.8707,3.8707,3.8707,3.9588,4.115,4.2121,4.291,4.3515,4.3515,4.3515,4.3515,4.3515,4.3515,4.3515,4.3515,4.3515,4.3515,3.9993,3.9604,3.9424,3.9918,3.9589,3.9589,4.0546,4.0681,4.092,4.1632,4.0531,3.9888,4.0352,3.9813,3.9388,3.9388,3.9388,3.9388,3.9388,3.9388,3.9388,3.9388,3.9388,3.9388,3.9388,3.9388,3.896,3.8003,3.7165,3.6382,3.5565,3.4956,3.5263,3.6427,3.7359,3.8013,3.8404,3.8905,3.8826,3.8404,3.8851,3.8589,3.8057,3.8659,3.8753,3.8601,3.8767,3.8712,3.8574,3.8574,3.7867,3.7028,3.7028,3.7028,3.7118,3.7549,3.765,3.7767,3.8165,3.7657,3.674,3.586,3.4924,3.4089,3.3562,3.3433,3.3588,3.4119,3.4649,3.5155,3.5515,3.56,3.5853,3.6677,3.6129,3.5893,3.6694,3.6113,3.56,3.56,3.5148,3.4764,3.4588,3.4882,3.5087,3.5091,3.6712,3.7845,3.8114,3.8905,3.953,3.9882,4.023,4.012,3.9551,3.9551,3.9258,3.8707,3.8707,3.8707,3.8726,3.9203,4.0031,4.1187,4.28,4.3515,4.3515,4.3515,4.3515,4.3515,4.3515,4.3515,4.3515,4.3515,4.3515,4.3515,4.1392,4.1392,4.1392,4.1354,4.1392,4.1392,4.1407,4.1407,4.1647,4.2306,4.1205,4.0382,4.0397,3.9813,3.9388,3.9388,3.9388,3.9388,3.9388,3.9388,3.9388,3.9388,3.9388,3.9388,3.9388,3.9388,3.9373,3.9394,3.8048,3.7458,3.7647,3.666,3.6987,3.8457,3.8473,3.9202,4.0472,4.0488,4.0488,4.0472,4.0472,4.0021,3.9433,4.0056,3.9802,3.9259,3.985,3.9696,3.9179,3.9179,3.8767,3.8278,3.8278,3.8278,3.8278,3.8294,3.8294,3.8278,3.8306,3.8278,3.7938,3.6546,3.6189,3.5774,3.4334,3.3986,3.4136,3.4673,3.5224,3.56,3.56,3.56,3.5853,3.6677,3.6129,3.5893,3.6694,3.6113,3.56,3.56,3.5583,3.5362,3.4763,3.5488,3.5847,3.5518,3.7456,3.8703,3.8685,3.8328,3.8667,3.9863,3.9148,3.8726,3.8707,3.8707,3.8707,3.8707,3.8707,3.8707,3.8762,4.0343,4.1077,4.1187,4.28,4.3515,4.3515,4.3515,4.3515,4.3515,4.3515,4.3515,4.3515,4.3515,4.3515,4.3515,4.1422,4.1422,4.1422,4.1422,4.1422,4.1572,4.2021,4.2096,4.2171,4.2366,4.1647,4.107,4.107,4.0083,3.9388,3.9388,3.9388,3.9388,3.9388,3.9388,3.9388,3.9388,3.9388,3.9388,3.9388,3.9388,3.9646,4.0146,3.8742,3.8007,3.7906,3.8508,3.9153,3.9913,4.0814,4.1445,4.1871,4.1871,4.1596,4.1219,4.1635,4.1371,4.0765,4.0879,4.0774,4.0531,4.0206,3.9969,3.9799,3.9799,3.9696,3.9523,3.9523,3.8957,3.8362,3.8794,3.8903,3.9001,3.9401,3.9216,3.8689,3.7804,3.6865,3.6052,3.5489,3.5221,3.5155,3.5316,3.547,3.56,3.56,3.6045,3.6485,3.6761,3.6592,3.6524,3.6761,3.6113,3.5397,3.4912,3.4421,3.4058,3.3964,3.4294,3.4805,3.5512,3.7261,3.8264,3.8169,3.9432,3.9825,3.9111,3.9368,3.9239,3.8707,3.8707,3.8707,3.8707,3.8707,3.9001,3.9551,4.0618,4.1389,4.1992,4.3039,4.3515,4.3515,4.3515,4.3515,4.3515,4.3515,4.3515,4.3515,4.3515,4.3515,4.3515,4.2117,4.2117,4.2117,4.2117,4.2117,4.2252,4.2656,4.2731,4.2731,4.2731,4.2201,4.1796,4.1796,4.0786,4.0157,4.0157,3.9709,3.9493,3.9768,3.9796,3.9824,3.9824,3.9824,3.995,4.0181,3.995,4.0146,4.0873,4.005,3.9634,3.9629,4.0478,4.1151,4.1656,4.2496,4.3031,4.329,4.329,4.3056,4.2703,4.3086,4.2796,4.215,4.2068,4.1863,4.1542,4.1094,4.0756,4.0493,4.0493,4.0333,4.0096,4.0096,3.9575,3.9038,3.9444,3.9523,3.9618,3.9995,3.9825,3.9382,3.8672,3.7858,3.7067,3.6436,3.6175,3.596,3.565,3.56,3.5684,3.5994,3.6451,3.6981,3.7557,3.7381,3.7195,3.7195,3.6535,3.5774,3.5013,3.4566,3.4359,3.4487,3.463,3.5155,3.6223,3.784,3.8754,3.8673,3.9786,4.0028,3.9184,3.9331,3.9203,3.8707,3.8707,3.8707,3.8707,3.9019,3.9405,3.9953,4.1056,4.1827,4.2341,4.3149,4.3515,4.3515,4.3515,4.3515,4.3515,4.3515,4.3515,4.3515,4.3515,4.3515,4.3515,4.329,4.329,4.329,4.329,4.329,4.329,4.329,4.329,4.3275,4.323,4.2746,4.2434,4.2473,4.1888,4.1528,4.1693,4.0417,3.9907,4.0596,4.0705,4.0705,4.0658,4.0643,4.0919,4.1492,4.0873,4.0873,4.1509,4.1674,4.1965,4.23,4.2363,4.2769,4.3512,4.3542,4.3943,4.4615,4.4615,4.4615,4.4615,4.4615,4.4147,4.3477,4.3409,4.298,4.2354,4.2303,4.1863,4.1288,4.1288,4.0781,4.018,4.018,4.0146,4.0096,4.0096,4.0096,4.0096,4.0096,4.0096,3.9943,3.9242,3.9039,3.8599,3.7151,3.6795,3.6552,3.5752,3.5633,3.5904,3.666,3.688,3.7405,3.87,3.8396,3.7939,3.7838,3.7229,3.6468,3.5616,3.5644,3.5776,3.5907,3.6037,3.6519,3.7414,3.8935,3.9878,3.9978,3.9571,3.9501,3.99,3.9129,3.8707,3.8707,3.8707,3.8726,3.8799,3.9588,4.001,4.012,4.1625,4.2323,4.2433,4.3167,4.3515,4.3515,4.3515,4.3515,4.3515,4.3515,4.3515,4.3515,4.3515,4.3515,4.3515,4.329,4.329,4.329,4.329,4.329,4.329,4.329,4.329,4.315,4.2656,4.25,4.2612,4.3189,4.2637,4.2894,4.4533,4.2896,4.2083,4.2876,4.2944,4.2682,4.2113,4.2097,4.1913,4.1508,4.1327,4.1377,4.1642,4.2252,4.2458,4.23,4.2816,4.3229,4.3512,4.4076,4.444,4.4615,4.4615,4.4615,4.4615,4.4615,4.4496,4.4231,4.3639,4.3274,4.3081,4.2489,4.2185,4.2033,4.2033,4.1542,4.0933,4.0933,4.0544,4.0096,4.0096,4.0096,4.0096,4.0096,4.0096,4.0062,3.9893,3.9436,3.8599,3.7151,3.6795,3.6552,3.5752,3.6096,3.6552,3.6761,3.7726,3.8396,3.821,3.8481,3.8345,3.7235,3.6914,3.6304,3.4912,3.4885,3.5015,3.5138,3.5282,3.5963,3.7379,3.8417,3.9518,4.0751,4.0148,3.9784,3.99,3.9129,3.8707,3.8707,3.8707,3.9019,3.9625,4.0432,4.1148,4.1735,4.2121,4.2635,4.3222,4.3423,4.3515,4.3515,4.3515,4.3515,4.3515,4.3515,4.3515,4.3515,4.3515,4.3515,4.3515,4.329,4.3591,4.3849,4.3849,4.4143,4.4259,4.3888,4.3849,4.3713,4.3403,4.3357,4.3647,4.4402,4.4169,4.4557,4.6083,4.4279,4.3357,4.4123,4.4197,4.4015,4.3631,4.3261,4.304,4.2943,4.2334,4.2253,4.2816,4.3216,4.3366,4.335,4.371,4.3931,4.4001,4.4412,4.4615,4.4615,4.4615,4.4615,4.4615,4.4615,4.4615,4.4564,4.4113,4.3944,4.3893,4.3487,4.3098,4.2811,4.2811,4.2303,4.1694,4.1694,4.1187,4.0595,4.0595,4.0367,4.0096,4.0096,4.0096,4.0096,4.0096,3.9808,3.9216,3.8082,3.7811,3.7584,3.68,3.7009,3.7398,3.7743,3.8447,3.8971,3.8903,3.9225,3.9114,3.798,3.7516,3.688,3.5723,3.5414,3.5356,3.548,3.5739,3.6501,3.7932,3.8958,3.9967,4.1042,4.0689,4.0451,4.0451,3.9313,3.8707,3.8707,3.9056,3.946,3.99,4.1093,4.1882,4.2304,4.2671,4.3075,4.3515,4.3515,4.3515,4.3515,4.3515,4.3515,4.3515,4.3515,4.3515,4.3515,4.3515,4.3515,4.3515,4.329,4.3966,4.451,4.451,4.5184,4.5478,4.4774,4.4662,4.4662,4.4662,4.4662,4.4999,4.5769,4.5877,4.6163,4.6931,4.5355,4.458,4.5167,4.5252,4.5212,4.5114,4.4545,4.4456,4.4884,4.3651,4.3363,4.4126,4.4126,4.427,4.4615,4.4615,4.4615,4.4615,4.4615,4.4615,4.4615,4.4615,4.4615,4.4615,4.4615,4.4615,4.4615,4.4615,4.4615,4.4615,4.4615,4.4147,4.3589,4.3589,4.3081,4.2472,4.2472,4.1965,4.1339,4.1238,4.0747,4.0248,4.013,4.0096,4.0096,4.0096,4.0096,3.991,3.9157,3.8988,3.8785,3.8058,3.799,3.8261,3.887,3.9089,3.9326,3.9859,4.0028,3.9808,3.8937,3.8294,3.7665,3.6984,3.637,3.6041,3.6204,3.6635,3.7358,3.8433,3.9518,4.0377,4.0877,4.0802,4.0838,4.1095,3.9662,3.8946,3.9074,3.9863,4.0249,4.0267,4.1772,4.2488,4.2506,4.3185,4.3515,4.3515,4.3515,4.3515,4.3515,4.3515,4.3515,4.3515,4.3515,4.3515,4.3515,4.3515,4.3515,4.3515,4.329,4.3966,4.451,4.451,4.5184,4.566,4.5551,4.5515,4.5515,4.5515,4.5515,4.5789,4.6534,4.6638,4.6931,4.7737,4.7507,4.7391,4.7473,4.7523,4.7209,4.6582,4.6626,4.6404,4.5882,4.5177,4.4624,4.4281,4.4281,4.4367,4.4615,4.4615,4.4615,4.4615,4.4615,4.4615,4.4615,4.4615,4.4615,4.4615,4.4615,4.4615,4.4615,4.4615,4.4615,4.4615,4.4615,4.453,4.4401,4.4401,4.3893,4.325,4.325,4.2726,4.1999,4.139,4.1119,4.0882,4.0282,4.0096,4.0096,4.0096,4.0096,3.991,3.9157,3.8988,3.8785,3.8058,3.8396,3.8853,3.8971,3.952,3.9774,3.9242,3.9706,3.9622,3.8261,3.7973,3.7665,3.6984,3.637,3.6041,3.6204,3.6635,3.7127,3.7648,3.8167,3.894,4.0031,3.9441,3.9698,4.1058,4.0194,4.0047,4.071,4.1534,4.1937,4.1937,4.2855,4.3296,4.3331,4.3441,4.3515,4.3515,4.3515,4.3515,4.3515,4.3515,4.3515,4.3515,4.3515,4.3515,4.3515,4.3515,4.3515,4.3515,4.4663,4.519,4.5737,4.5737,4.6394,4.6809,4.6359,4.6288,4.6288,4.6288,4.6288,4.6585,4.7371,4.7454,4.7605,4.7968,4.8001,4.8001,4.8001,4.8001,4.7852,4.7504,4.7187,4.6734,4.6127,4.5912,4.5509,4.487,4.5303,4.539,4.5196,4.5585,4.5551,4.5179,4.5179,4.4959,4.4615,4.4615,4.4615,4.4615,4.4615,4.4615,4.4615,4.4615,4.4615,4.4615,4.4615,4.4615,4.4615,4.4615,4.4333,4.4045,4.4045,4.3521,4.276,4.2016,4.1221,4.0527,4.0197,4.0096,4.0096,4.0096,4.0096,4.0011,3.9673,3.9605,3.9503,3.9165,3.9368,3.9605,3.9605,3.9876,3.9994,3.9656,3.9943,3.9976,3.9289,3.8523,3.7972,3.7729,3.6759,3.6233,3.6533,3.6958,3.7555,3.842,3.8837,3.9301,3.9863,3.9551,3.968,4.0432,4.0506,4.0726,4.1095,4.1901,4.2304,4.2304,4.3112,4.3515,4.3515,4.3515,4.3515,4.3515,4.3515,4.3515,4.3515,4.3515,4.3515,4.3515,4.3515,4.3515,4.3515,4.3515,4.3515,4.3515,4.6112,4.6545,4.7006,4.6844,4.7488,4.7787,4.7186,4.7084,4.7084,4.7084,4.7084,4.7287,4.7935,4.8001,4.8001,4.8001,4.8001,4.8001,4.8001,4.8001,4.8001,4.8001,4.7551,4.6999,4.6452,4.6589,4.637,4.5719,4.6304,4.6364,4.5974,4.6532,4.6498,4.5957,4.5957,4.5635,4.5122,4.5122,4.5122,4.5106,4.4936,4.4869,4.4852,4.4682,4.4615,4.4615,4.4615,4.4615,4.4615,4.4615,4.4615,4.4615,4.4615,4.4181,4.3538,4.2777,4.1508,4.0333,4.0146,4.0096,4.0096,4.0096,4.0096,4.0096,4.0096,4.0096,4.0096,4.0096,4.0096,4.0096,4.0096,4.0096,4.0045,3.9876,4.0111,4.0237,4.0067,3.8973,3.8282,3.851,3.721,3.6492,3.6997,3.7414,3.8025,3.8952,3.9378,3.9625,3.9625,3.979,4.0065,4.0451,4.1056,4.1462,4.1645,4.2268,4.258,4.2598,4.3185,4.3515,4.3515,4.3515,4.3515,4.3515,4.3515,4.3515,4.3515,4.3515,4.3515,4.3515,4.3515,4.3515,4.3515,4.3515,4.3515,4.3515,4.684,4.7317,4.7605,4.6941,4.7488,4.7968,4.7935,4.7886,4.7886,4.7886,4.7886,4.7935,4.8001,4.8001,4.8001,4.8001,4.8001,4.8001,4.8001,4.8001,4.8001,4.8001,4.8258,4.808,4.7497,4.7696,4.7432,4.6718,4.6752,4.6769,4.6718,4.6769,4.6752,4.6718,4.6718,4.6684,4.6633,4.6633,4.6633,4.6566,4.5889,4.5618,4.5551,4.484,4.4615,4.4615,4.4615,4.4615,4.4615,4.4615,4.4615,4.4615,4.4615,4.4564,4.4333,4.3555,4.2286,4.0967,4.0299,4.0096,4.0096,4.0096,4.0096,4.0096,4.0096,4.0096,4.0096,4.0096,4.0096,4.0096,4.0096,4.0096,3.9893,3.9174,3.9772,4.0067,3.9387,3.8649,3.838,3.8894,3.7585,3.6865,3.7396,3.7826,3.8086,3.8174,3.8556,3.8799,3.8799,3.9496,4.0579,4.2084,4.2176,4.2561,4.3331,4.3386,4.3423,4.3423,4.3478,4.3515,4.3515,4.3515,4.3515,4.3515,4.3515,4.3515,4.3515,4.3515,4.3515,4.3515,4.3515,4.3515,4.3515,4.3515,4.3515,4.3515,4.904,4.912,4.9247,4.8967,4.876,4.868,4.868,4.8299,4.8001,4.8001,4.8001,4.8001,4.8001,4.8001,4.8001,4.8001,4.8001,4.8001,4.8001,4.8001,4.8001,4.8001,4.8324,4.8381,4.8159,4.8425,4.8223,4.7479,4.7936,4.7936,4.7496,4.7953,4.7919,4.7479,4.7479,4.7225,4.6786,4.6786,4.6786,4.6769,4.6481,4.638,4.6295,4.5551,4.528,4.5213,4.4767,4.4615,4.4615,4.4615,4.4615,4.4615,4.4615,4.4615,4.4361,4.3081,4.1999,4.1035,4.0316,4.0096,4.0096,4.0096,4.0096,4.0096,4.0096,4.0096,4.0096,4.0096,4.0096,4.0096,4.0096,4.0096,4.0011,3.974,4.0026,4.0228,4.0036,3.9416,3.9049,3.9118,3.8205,3.7643,3.7845,3.7999,3.8419,3.9161,3.936,3.9662,4.0159,4.0946,4.1662,4.2286,4.2782,4.3185,4.3515,4.3515,4.3515,4.3515,4.3515,4.3515,4.3515,4.3515,4.3515,4.3515,4.3515,4.3515,4.3515,4.3515,4.3515,4.3515,4.3515,4.3515,4.3515,4.3515,4.3515,4.3515,5.0684,5.0551,5.0469,5.0253,4.979,4.9375,4.9144,4.868,4.8266,4.8034,4.8001,4.8001,4.8001,4.8001,4.8001,4.8001,4.8001,4.8001,4.8001,4.8001,4.8001,4.8001,4.8324,4.8515,4.8515,4.8846,4.8748,4.8257,4.8748,4.8748,4.8274,4.8765,4.8731,4.8257,4.8257,4.797,4.7479,4.7479,4.7479,4.7462,4.7242,4.7141,4.7056,4.6329,4.5906,4.5635,4.5128,4.4818,4.4615,4.4615,4.4615,4.4615,4.4615,4.4615,4.4344,4.3031,4.2117,4.1373,4.0646,4.0282,4.0096,4.0096,4.0096,4.0096,4.0096,4.0096,4.0096,4.0096,4.0096,4.0096,4.0096,4.0096,4.0096,4.0096,4.0213,4.0355,4.0485,4.004,3.9723,3.9764,3.9226,3.89,3.9035,3.9031,3.9385,4.0215,4.0286,4.0634,4.1425,4.2011,4.2415,4.2671,4.3221,4.3515,4.3515,4.3515,4.3515,4.3515,4.3515,4.3515,4.3515,4.3515,4.3515,4.3515,4.3515,4.3515,4.3515,4.3515,4.3515,4.3515,4.3515,4.3515,4.3515,4.3515,4.3515,4.3515,5.1464,5.1315,5.1065,5.0353,5.022,4.9972,4.9226,4.911,4.8845,4.81,4.8001,4.8001,4.8001,4.8001,4.8001,4.8001,4.8001,4.8001,4.8001,4.8001,4.8001,4.8001,4.8324,4.8515,4.8515,4.8846,4.9001,4.9001,4.9001,4.9001,4.9001,4.9001,4.9001,4.9001,4.9001,4.9001,4.9001,4.9001,4.9001,4.8951,4.8193,4.7889,4.7821,4.709,4.6346,4.572,4.5703,4.5229,4.4615,4.4615,4.4615,4.4615,4.4615,4.4615,4.4445,4.3656,4.2878,4.2134,4.1407,4.0646,4.0096,4.0096,4.0096,4.0096,4.0096,4.0096,4.0096,4.0096,4.0096,4.0096,4.0096,4.0096,4.0096,4.0096,4.0213,4.0355,4.0485,4.0331,4.0401,4.094,4.0706,4.065,4.1062,4.1095,4.1095,4.1113,4.1113,4.1462,4.2268,4.2304,4.2671,4.3478,4.3515,4.3515,4.3515,4.3515,4.3515,4.3515,4.3515,4.3515,4.3515,4.3515,4.3515,4.3515,4.3515,4.3515,4.3515,4.3515,4.3515,4.3515,4.3515,4.3515,4.3515,4.3515,4.3515,4.3515,5.2127,5.2078,5.2011,5.1761,5.1313,5.0717,4.9988,4.9442,4.8845,4.81,4.8001,4.8001,4.8001,4.8001,4.8001,4.8001,4.8001,4.8001,4.8001,4.8001,4.8001,4.8001,4.8324,4.8515,4.8515,4.8846,4.9001,4.9001,4.9001,4.9001,4.9001,4.9001,4.9001,4.9001,4.9001,4.9001,4.9001,4.9001,4.9001,4.8984,4.8765,4.868,4.8595,4.7868,4.7445,4.7124,4.6075,4.5568,4.528,4.4784,4.4615,4.4615,4.4615,4.4615,4.4445,4.3656,4.2878,4.2134,4.1407,4.0646,4.0096,4.0096,4.0096,4.0096,4.0096,4.0096,4.0096,4.0096,4.0096,4.0096,4.0096,4.0096,4.0096,4.0096,4.0121,4.0328,4.0855,4.0879,4.0981,4.1367,4.1323,4.1215,4.1117,4.1095,4.1334,4.1901,4.247,4.2892,4.313,4.313,4.324,4.3496,4.3515,4.3515,4.3515,4.3515,4.3515,4.3515,4.3515,4.3515,4.3515,4.3515,4.3515,4.3515,4.3515,4.3515,4.3515,4.3515,4.3515,4.3515,4.3515,4.3515,4.3515,4.3515,4.3515,4.3515,5.1529,5.1529,5.1612,5.1893,5.133,5.0701,5.0286,4.9574,4.8845,4.81,4.8001,4.8001,4.8001,4.8001,4.8001,4.8001,4.8001,4.8001,4.8001,4.8001,4.8001,4.8001,4.8324,4.8515,4.8515,4.8846,4.9001,4.9001,4.9001,4.9001,4.9001,4.9001,4.9001,4.9001,4.9001,4.9001,4.9001,4.9001,4.9001,4.9001,4.9001,4.9001,4.8951,4.8511,4.8142,4.777,4.6904,4.621,4.5635,4.5179,4.4852,4.4615,4.4615,4.4615,4.4513,4.4012,4.3335,4.2574,4.183,4.1085,4.0485,4.018,4.0096,4.0096,4.0096,4.0096,4.0096,4.0096,4.0096,4.0096,4.0096,4.0096,4.0096,4.0096,4.0096,4.0336,4.1024,4.1258,4.157,4.2063,4.225,4.2266,4.2086,4.2047,4.2249,4.2745,4.3222,4.3515,4.3515,4.3515,4.3515,4.3515,4.3515,4.3515,4.3515,4.3515,4.3515,4.3515,4.3515,4.3515,4.3515,4.3515,4.3515,4.3515,4.3515,4.3515,4.3515,4.3515,4.3515,4.3515,4.3515,4.3515,4.3515,4.3515,4.3515,4.3515,5.022,5.022,5.0419,5.1065,5.0651,5.0187,5.0121,4.9541,4.8845,4.81,4.8067,4.81,4.81,4.81,4.81,4.81,4.8034,4.8001,4.8001,4.8001,4.8001,4.8001,4.8324,4.8515,4.8515,4.8846,4.9001,4.9001,4.9001,4.9001,4.9001,4.9001,4.9001,4.9001,4.9001,4.9001,4.9001,4.9001,4.9001,4.9001,4.9001,4.9001,4.9001,4.9001,4.8595,4.7973,4.7906,4.7056,4.5889,4.5754,4.5213,4.4615,4.4615,4.4615,4.4615,4.4615,4.4028,4.3223,4.2489,4.1762,4.1018,4.0282,4.0096,4.0096,4.0096,4.0096,4.0096,4.0096,4.0096,4.0096,4.0096,4.0096,4.0096,4.0113,4.0146,4.041,4.1076,4.1556,4.2124,4.2882,4.3286,4.3515,4.3515,4.3515,4.3515,4.3515,4.3515,4.3515,4.3515,4.3515,4.3515,4.3515,4.3515,4.3515,4.3515,4.3515,4.3515,4.3515,4.3515,4.3515,4.3515,4.3515,4.3515,4.3515,4.3515,4.3515,4.3515,4.3515,4.3515,4.3515,4.3515,4.3515,4.3515,4.3515,4.3515,4.3515,5.022,5.022,5.027,5.0419,5.032,5.0021,4.9442,4.921,4.8845,4.81,4.8514,4.8862,4.8862,4.8862,4.8862,4.8862,4.8332,4.8001,4.8001,4.8001,4.8001,4.8001,4.8324,4.8515,4.8515,4.8846,4.9001,4.9001,4.9001,4.9001,4.9001,4.9001,4.9001,4.9001,4.9001,4.9001,4.9001,4.9001,4.9001,4.9001,4.9001,4.9001,4.9001,4.9001,4.89,4.8697,4.8122,4.7686,4.7259,4.6092,4.5213,4.4615,4.4615,4.4615,4.4615,4.4615,4.4028,4.3223,4.2489,4.1762,4.1018,4.0282,4.0096,4.0096,4.0096,4.0096,4.0096,4.0096,4.0096,4.0096,4.0096,4.0096,4.0121,4.0238,4.0476,4.0926,4.1703,4.2124,4.26,4.3286,4.3444,4.3515,4.3515,4.3515,4.3515,4.3515,4.3515,4.3515,4.3515,4.3515,4.3515,4.3515,4.3515,4.3515,4.3515,4.3515,4.3515,4.3515,4.3515,4.3515,4.3515,4.3515,4.3515,4.3515,4.3515,4.3515,4.3515,4.3515,4.3515,4.3515,4.3515,4.3515,4.3515,4.3515,4.3515,4.3515,4.916,4.9442,4.9806,5.0154,5.022,5.0204,5.0154,4.9856,4.9508,4.911,4.9392,4.9624,4.9624,4.9624,4.9491,4.9144,4.8431,4.8001,4.8001,4.8001,4.8033,4.8082,4.8356,4.8547,4.8627,4.8877,4.9001,4.9001,4.9001,4.9001,4.9001,4.9001,4.9001,4.9001,4.9001,4.9001,4.9001,4.9001,4.9001,4.9001,4.9001,4.9001,4.9001,4.9001,4.9001,4.8951,4.8578,4.7986,4.7208,4.6092,4.5213,4.4615,4.4615,4.4615,4.4615,4.4615,4.4282,4.3809,4.3031,4.2286,4.1542,4.0798,4.0367,4.0096,4.0096,4.0096,4.0096,4.0096,4.0096,4.0096,4.0096,4.0163,4.0213,4.0305,4.0676,4.119,4.1895,4.2344,4.2827,4.3427,4.3515,4.3515,4.3515,4.3515,4.3515,4.3515,4.3515,4.3515,4.3515,4.3515,4.3515,4.3515,4.3515,4.3515,4.3515,4.3515,4.3515,4.3515,4.3515,4.3515,4.3515,4.3515,4.3515,4.3515,4.3515,4.3515,4.3515,4.3515,4.3515,4.3515,4.3515,4.3515,4.3515,4.3515,4.3515,4.3515,4.8199,4.868,4.9342,5.0088,5.022,5.0419,5.0999,5.0585,5.022,5.022,5.032,5.0402,5.0402,5.0286,4.9906,4.9177,4.8431,4.805,4.8183,4.8067,4.8116,4.8378,4.8455,4.8646,4.8971,4.8993,4.9001,4.9001,4.9001,4.9001,4.9001,4.9001,4.9001,4.9001,4.9001,4.9001,4.9001,4.9001,4.9001,4.9001,4.9001,4.9001,4.9001,4.9001,4.9001,4.9001,4.9001,4.8139,4.687,4.6143,4.5399,4.4784,4.4649,4.4615,4.4615,4.4615,4.4615,4.4429,4.3639,4.2861,4.2117,4.139,4.0646,4.0096,4.0096,4.0096,4.0096,4.0096,4.0171,4.0221,4.0221,4.0395,4.0517,4.0461,4.0949,4.1508,4.1976,4.248,4.2995,4.3444,4.3515,4.3515,4.3515,4.3515,4.3515,4.3515,4.3515,4.3515,4.3515,4.3515,4.3515,4.3515,4.3515,4.3515,4.3515,4.3515,4.3515,4.3515,4.3515,4.3515,4.3515,4.3515,4.3515,4.3515,4.3515,4.3515,4.3515,4.3515,4.3515,4.3515,4.3515,4.3515,4.3515,4.3515,4.3515,4.3515,4.8961,4.9044,4.9342,5.0088,5.022,5.0237,5.0336,5.027,5.022,5.022,5.075,5.1166,5.1166,5.0585,4.9906,4.9177,4.8431,4.8266,4.8912,4.8365,4.8381,4.9193,4.8771,4.8897,4.9729,4.9246,4.9001,4.9001,4.9001,4.9001,4.9001,4.9001,4.9001,4.9001,4.9001,4.9001,4.9001,4.9001,4.9001,4.9001,4.9001,4.9001,4.9001,4.9001,4.9001,4.9001,4.9001,4.8477,4.7618,4.6904,4.616,4.5432,4.4818,4.4615,4.4615,4.4615,4.4615,4.4429,4.3639,4.2861,4.2117,4.139,4.0646,4.0096,4.0096,4.0096,4.0096,4.0096,4.041,4.0724,4.0724,4.1151,4.1423,4.114,4.1764,4.2284,4.2198,4.2844,4.334,4.3479,4.3515,4.3515,4.3515,4.3515,4.3515,4.3515,4.3515,4.3515,4.3515,4.3515,4.3515,4.3515,4.3515,4.3515,4.3515,4.3515,4.3515,4.3515,4.3515,4.3515,4.3515,4.3515,4.3515,4.3515,4.3515,4.3515,4.3515,4.3515,4.3515,4.3515,4.3515,4.3515,4.3515,4.3515,4.3515,4.3515,4.9723,5.0055,5.0419,5.075,5.1148,5.1429,5.1429,5.1429,5.1429,5.1429,5.1694,5.1928,5.1928,5.1247,5.0667,5.0353,4.9657,4.9375,4.9707,4.9493,4.9393,4.9524,4.9368,4.931,4.9384,4.9156,4.9001,4.9001,4.9001,4.9001,4.9001,4.9001,4.9001,4.9001,4.9001,4.9001,4.9001,4.9001,4.9001,4.9001,4.9001,4.9001,4.9001,4.9001,4.9001,4.9001,4.9001,4.8545,4.777,4.7056,4.6312,4.5568,4.4852,4.4615,4.4615,4.4615,4.4615,4.453,4.4164,4.3504,4.2743,4.1999,4.1255,4.0595,4.0197,4.0096,4.0171,4.0451,4.0676,4.0896,4.1139,4.1472,4.1687,4.16,4.2177,4.2616,4.2577,4.3087,4.3463,4.3497,4.3515,4.3515,4.3515,4.3515,4.3515,4.3515,4.3515,4.3515,4.3515,4.3515,4.3515,4.3515,4.3515,4.3515,4.3515,4.3515,4.3515,4.3515,4.3515,4.3515,4.3515,4.3515,4.3515,4.3515,4.3515,4.3515,4.3515,4.3515,4.3515,4.3515,4.3515,4.3515,4.3515,4.3515,4.3515,4.3515]}]]